GFSWCAN_500_spd_000.txt.gz
Wind_Speed
71 77 82 71 62 47 21 11 45 46 51 54 43 41 38 36 27 28 28 24 32 33 29 26 23 22 19 20 13 14 15 19 28 24 19 20 12 9 13 15 18 15 12 10 7 5 6 9 10 12 12 13 15 17
71 78 83 71 63 44 22 10 43 53 60 58 48 41 35 36 34 30 28 27 30 32 29 29 25 19 16 19 13 15 14 21 24 24 21 21 17 11 12 15 13 14 14 13 10 13 10 10 10 14 15 14 15 17
70 77 82 72 63 41 21 8 40 55 57 57 53 45 40 39 35 25 30 33 30 29 30 26 24 19 15 22 9 16 13 25 25 22 20 21 16 14 12 13 11 12 14 16 15 13 10 13 10 11 12 13 13 15
69 75 80 71 63 43 21 10 33 53 55 59 53 48 46 41 34 25 26 33 32 30 28 25 22 19 16 17 18 17 14 17 23 24 21 19 17 19 19 16 11 8 13 15 14 13 14 14 12 16 10 11 15 13
67 73 79 73 64 46 24 12 23 46 53 58 57 48 48 43 33 25 27 36 35 35 27 24 19 20 16 15 13 17 12 22 22 20 22 18 20 21 21 22 17 15 14 16 19 18 16 12 15 17 13 15 14 15
66 71 77 73 65 48 30 18 23 45 61 58 58 53 45 45 37 29 30 32 38 34 29 22 21 19 17 16 13 15 14 18 22 22 22 21 19 20 21 21 23 19 19 21 24 24 21 17 18 15 15 18 18 16
64 69 75 74 68 55 35 21 21 45 62 66 59 53 50 47 35 30 29 29 33 37 34 26 21 19 16 20 11 11 16 20 20 16 19 18 18 13 12 13 15 18 20 17 16 18 24 22 19 15 14 14 14 12
61 67 73 74 69 58 38 17 16 41 57 65 60 55 52 48 40 33 24 27 28 33 36 30 22 18 17 17 17 8 12 23 24 19 20 19 15 13 10 15 11 10 14 17 15 17 17 17 19 17 14 14 11 10
58 65 71 73 67 57 35 14 12 37 51 61 59 51 48 49 41 31 28 30 26 27 31 30 26 23 20 15 16 11 15 21 24 21 19 16 13 13 13 15 13 7 10 14 16 17 16 15 16 17 13 13 14 15
56 62 69 71 66 54 32 13 9 36 50 52 54 54 51 53 42 23 28 34 30 28 29 29 29 25 23 19 15 17 18 24 27 23 22 17 13 13 16 16 14 16 16 14 13 13 16 16 15 15 16 16 17 19
54 60 67 69 65 53 34 19 8 34 50 54 51 52 53 57 44 35 36 36 31 30 29 29 29 27 26 23 19 17 18 20 21 21 22 19 19 24 24 20 20 19 16 15 14 14 16 17 19 20 20 21 23 25
51 56 64 68 65 53 38 23 10 31 53 56 53 53 57 54 51 52 44 39 31 31 29 25 28 30 28 25 23 19 19 21 23 22 20 15 19 25 26 24 23 22 20 19 19 18 19 20 22 22 23 23 24 26
49 53 59 64 63 54 41 22 9 28 52 56 54 54 56 56 57 53 45 39 31 31 27 25 30 31 28 26 26 25 24 21 19 23 23 19 24 23 24 24 24 23 24 25 26 26 26 25 24 24 23 23 23 23
45 49 55 60 59 53 42 22 9 26 48 54 56 58 60 55 49 45 41 34 28 21 17 16 26 30 28 27 29 28 28 24 20 14 15 28 27 25 24 25 25 25 25 25 25 25 25 24 24 24 24 24 23 23
42 45 50 56 53 55 43 21 7 24 42 50 55 50 56 49 52 47 44 40 33 24 23 25 27 30 31 36 36 31 27 26 15 13 18 20 21 23 24 24 24 25 25 25 24 24 25 26 26 25 24 22 23 23
39 40 44 50 49 53 45 22 8 24 40 49 51 51 49 54 47 46 47 41 33 28 28 30 31 34 35 38 33 32 31 20 13 17 21 21 21 22 22 23 25 25 24 23 22 22 23 23 23 23 23 22 23 24
38 38 40 45 46 51 46 27 9 25 43 49 49 49 47 52 51 45 42 38 37 34 32 29 33 34 33 37 34 32 22 18 21 25 25 24 22 19 19 19 20 20 21 22 22 24 24 24 24 24 24 24 25 25
37 37 38 41 41 46 45 35 12 25 43 49 50 49 48 49 53 51 48 45 41 37 29 29 27 30 31 31 28 26 25 26 29 29 28 26 24 24 23 22 21 21 21 22 22 22 23 24 24 24 24 24 25 26
37 35 36 39 35 41 47 36 24 16 37 50 54 49 52 52 50 53 52 47 42 38 33 32 31 29 28 27 25 26 24 29 33 33 31 29 27 26 24 24 24 24 24 24 23 23 23 23 22 22 22 22 21 20
37 36 36 40 38 35 48 36 30 16 27 44 55 57 55 55 53 50 51 53 49 40 37 33 31 28 28 29 28 27 26 29 32 36 35 31 28 25 24 25 25 23 22 21 20 20 19 18 18 18 19 19 20 22
36 36 37 39 41 34 44 36 30 22 18 33 49 60 60 56 53 53 41 48 52 44 38 34 32 32 33 29 26 27 29 31 34 35 36 34 31 27 26 24 22 22 21 20 20 20 20 20 21 21 22 23 24 25
34 36 38 40 41 38 40 38 32 27 20 25 36 51 61 57 56 49 47 39 47 50 44 42 39 35 35 31 30 28 29 31 33 34 34 34 32 27 24 24 24 24 24 24 25 24 24 23 23 23 25 27 29 30
35 38 41 40 42 40 40 42 31 25 21 23 32 40 51 60 59 58 49 43 36 35 41 48 41 37 35 33 32 32 31 30 30 30 29 31 30 28 27 28 28 27 27 27 27 26 24 24 25 27 28 32 34 34
37 41 39 42 43 41 46 39 30 24 21 22 31 35 41 47 58 57 58 55 44 39 41 42 44 42 39 36 34 33 30 35 33 32 26 29 30 29 32 30 28 28 27 29 29 30 28 29 31 31 34 37 38 39
37 39 41 46 45 44 44 34 27 22 20 20 28 36 35 41 44 47 49 52 53 53 50 48 47 44 44 42 37 35 36 39 39 41 34 34 36 37 39 33 33 31 33 34 32 33 34 34 33 38 38 39 39 41
36 41 47 48 46 42 35 27 23 21 20 20 23 37 37 36 38 44 46 41 44 47 44 44 44 46 44 43 47 42 43 43 43 45 44 41 37 35 39 40 37 36 36 37 37 36 39 44 43 39 39 40 42 46
40 46 46 46 42 35 27 25 23 20 21 21 20 31 40 36 35 34 44 47 40 44 38 33 37 42 44 42 42 43 43 45 48 44 43 41 41 38 37 37 38 36 34 29 36 42 44 43 40 38 39 42 45 46
46 45 43 41 35 27 22 22 21 21 21 21 19 23 38 37 33 32 34 47 42 45 45 45 38 40 40 40 44 44 44 43 41 41 41 41 41 40 37 33 32 31 36 39 40 42 43 43 42 42 43 43 43 43
41 43 41 35 29 22 18 18 19 20 21 20 19 20 30 39 33 32 29 31 44 46 46 40 35 27 33 44 42 38 36 34 33 32 31 30 30 30 31 33 36 37 39 40 42 42 40 40 41 42 41 41 42 45
40 40 35 29 23 18 16 16 17 18 20 19 17 17 22 32 33 30 30 27 27 34 41 42 42 38 38 39 39 40 39 40 40 40 39 38 37 36 35 36 38 40 41 41 41 40 40 40 39 40 42 43 46 48
37 34 29 24 20 17 16 13 14 15 18 15 14 13 16 21 32 28 28 28 25 30 32 34 37 40 41 41 39 36 34 34 34 36 36 35 34 34 34 35 36 36 37 38 38 39 39 40 41 43 44 45 47 48
35 31 25 21 17 17 15 11 10 11 14 13 10 9 11 14 19 30 24 26 25 27 32 37 40 41 42 41 39 37 36 35 35 35 35 35 35 35 34 34 35 36 37 38 38 39 40 41 43 43 44 45 47 47
29 26 21 15 15 18 17 13 9 9 10 11 8 7 10 14 17 20 26 24 27 29 31 32 35 38 39 39 38 36 36 36 36 35 35 34 34 34 35 34 34 36 37 38 39 41 41 41 42 43 44 45 47 49

GFSWCAN_500_spd_003.txt.gz
Wind_Speed
62 62 66 70 73 69 57 36 14 45 51 45 42 37 30 27 34 27 29 29 28 26 25 25 23 21 19 19 17 16 16 18 16 18 19 19 23 17 17 16 12 10 8 7 7 7 8 6 5 7 8 11 12 12
60 61 64 69 72 69 57 39 17 45 52 52 48 42 35 32 32 28 24 26 26 23 28 20 23 22 19 19 18 21 16 16 17 17 19 20 19 18 19 17 14 13 11 12 11 7 6 6 7 8 10 11 11 12
59 60 63 68 71 69 61 39 20 27 58 55 51 46 39 37 33 29 27 32 22 24 29 23 22 22 20 19 18 15 13 14 15 14 21 16 22 18 16 17 13 12 13 14 12 9 9 7 5 5 7 10 10 10
58 59 62 67 72 68 63 45 21 17 57 55 54 49 47 39 35 32 28 28 21 22 26 26 25 22 21 21 17 18 13 14 18 23 19 21 19 19 15 16 16 12 12 15 16 14 12 8 8 6 6 2 9 9
57 59 61 67 71 69 66 53 24 18 46 54 57 54 45 41 37 35 30 22 24 27 28 27 28 20 19 19 17 20 17 14 16 29 22 18 17 17 19 21 18 14 17 19 18 17 16 11 9 6 9 7 9 9
55 58 60 65 69 70 67 54 31 22 31 54 58 58 49 43 41 38 32 21 28 28 30 31 28 20 20 17 12 11 13 14 18 20 18 13 15 18 22 22 23 21 18 22 22 20 19 16 15 14 12 12 14 13
54 57 59 64 68 69 69 54 32 19 30 48 58 64 53 46 42 39 32 21 25 30 32 31 27 23 20 20 13 11 14 13 15 20 18 17 18 18 16 18 25 24 21 19 21 20 22 22 19 16 15 14 12 13
52 55 57 62 67 68 69 56 36 25 24 48 58 61 55 51 45 39 32 23 25 29 32 30 28 20 23 18 13 10 14 16 17 17 16 15 15 12 11 14 14 15 19 20 20 19 20 22 25 23 16 14 13 12
51 53 55 59 64 68 69 59 37 24 15 44 56 57 55 48 44 42 35 26 23 26 34 31 28 23 22 16 11 12 9 13 21 21 18 16 15 13 14 10 14 7 9 16 18 14 13 14 15 15 15 15 16 14
48 50 51 56 61 66 69 61 37 20 11 44 52 53 52 50 42 40 38 29 24 26 25 26 30 29 23 20 16 10 13 16 19 21 19 17 16 10 14 13 14 12 5 7 14 16 14 13 14 15 17 18 16 16
45 48 47 51 58 62 68 61 38 15 13 47 52 51 51 49 45 44 35 33 29 27 23 21 26 28 30 25 21 15 16 16 18 20 18 18 14 15 13 12 15 14 12 13 12 11 13 13 13 15 18 18 17 19
42 44 45 48 54 59 65 61 39 12 18 47 57 51 51 49 49 48 45 35 30 21 20 18 22 26 28 27 24 19 16 17 19 17 19 18 19 18 18 19 19 18 18 17 16 15 15 16 17 17 18 20 22 24
40 41 40 43 48 54 60 59 40 12 20 43 53 53 52 50 48 51 43 33 22 16 16 18 23 25 29 28 25 23 21 18 17 17 18 20 20 17 16 17 18 20 22 22 21 21 20 19 20 21 23 24 25 25
38 39 38 39 42 47 56 55 41 15 19 40 49 50 50 53 46 47 47 38 30 23 17 16 25 30 30 29 26 26 25 22 18 13 16 24 26 20 18 17 17 20 22 23 24 25 25 25 25 25 24 23 24 24
35 37 37 37 39 39 50 50 43 18 14 36 42 39 49 52 52 51 52 47 40 32 27 23 20 21 28 32 34 31 28 24 17 18 21 21 21 22 23 24 22 21 21 22 25 26 27 27 26 26 26 26 26 26
33 35 33 33 36 37 42 44 42 24 7 30 43 40 41 49 53 52 51 49 46 42 35 28 24 23 26 32 35 36 32 23 18 23 25 24 23 23 21 20 22 23 23 24 24 24 25 24 25 26 27 26 26 26
32 34 31 30 31 35 31 41 37 29 8 26 43 44 36 46 44 51 50 46 44 44 39 30 26 25 26 30 29 28 22 21 30 30 27 26 27 25 21 21 22 22 22 23 23 24 23 24 26 26 26 26 26 26
32 34 30 28 28 30 27 35 33 29 14 16 46 55 19 38 50 52 49 46 44 45 41 35 32 29 28 30 28 25 26 30 31 30 32 30 27 24 23 22 22 23 23 23 23 23 23 24 24 25 26 26 26 27
32 33 30 28 26 27 27 29 32 28 18 14 32 54 49 36 43 52 53 49 50 48 46 43 38 35 30 29 25 28 29 32 35 34 32 33 30 26 25 26 26 26 26 25 24 24 24 24 24 25 26 27 27 27
32 33 31 28 27 28 26 29 33 31 25 15 24 45 55 54 46 44 52 56 52 49 47 44 37 35 31 32 30 28 30 32 34 36 34 33 32 30 29 29 28 28 28 27 26 26 27 27 27 26 26 24 23 22
32 35 33 29 28 31 28 34 35 34 32 25 21 31 55 58 53 53 49 50 48 48 52 47 41 41 35 31 29 27 31 35 35 34 31 30 32 34 33 30 30 30 30 28 26 26 26 25 23 22 21 21 22 24
34 36 32 30 32 32 27 38 39 39 37 30 25 25 34 58 64 56 51 47 46 43 54 54 49 44 39 38 33 34 32 31 33 32 32 32 32 33 32 29 29 29 29 28 27 26 26 25 25 24 25 25 25 25
35 35 31 32 34 30 35 42 42 42 39 33 27 26 27 37 61 70 62 56 47 45 48 55 55 54 49 43 38 34 35 33 30 30 32 33 32 32 32 32 32 31 30 29 29 29 28 28 28 27 27 27 26 26
35 34 33 34 32 35 42 43 46 46 41 34 29 26 27 28 42 60 72 60 53 53 50 48 50 51 51 45 40 40 36 33 32 30 30 32 34 33 31 31 30 30 30 30 30 30 30 29 29 29 30 30 30 34
36 35 36 37 35 42 43 46 49 46 39 32 27 26 25 26 32 43 54 67 61 56 56 54 49 48 46 48 48 44 39 35 33 33 32 32 30 31 31 29 30 31 31 31 30 28 28 27 27 29 32 34 37 39
35 40 34 33 40 42 45 48 48 43 36 31 26 24 24 23 26 35 37 49 67 64 58 56 54 51 51 51 48 46 44 42 39 35 34 36 37 35 32 28 30 31 32 35 36 35 33 31 29 33 38 40 41 41
35 29 33 39 41 44 47 47 45 39 33 27 23 22 22 23 22 31 34 37 49 55 59 56 53 52 48 47 45 46 45 46 44 38 38 40 38 44 41 35 35 37 39 40 39 38 35 32 38 40 41 42 42 41
28 33 36 38 42 45 45 44 39 34 29 23 20 21 23 23 22 27 35 33 36 46 48 57 63 55 50 43 42 44 48 47 46 44 45 41 40 41 41 41 42 42 40 38 36 35 36 37 39 41 42 41 39 37
34 36 37 41 42 42 41 38 33 29 25 21 20 23 23 22 21 22 31 31 29 38 46 43 45 46 44 48 45 42 43 45 45 43 42 41 40 40 40 40 37 35 30 28 32 34 36 39 41 40 39 38 37 37
35 36 39 40 39 39 37 33 28 25 23 20 21 24 22 19 18 19 26 29 27 25 37 49 43 49 52 51 41 36 37 39 39 40 37 34 35 36 35 32 30 33 35 35 36 37 37 37 37 38 37 37 37 38
35 38 38 38 37 36 32 28 23 21 19 19 22 24 18 14 14 17 21 22 23 25 23 33 48 47 41 45 44 42 38 38 39 40 41 41 40 40 37 36 36 37 37 36 37 38 38 38 37 37 37 37 38 39
37 36 36 35 34 31 26 22 18 17 17 19 20 20 13 9 11 19 20 19 20 21 19 23 29 34 38 42 41 39 39 39 38 37 38 40 40 40 40 40 40 41 40 38 36 35 35 35 35 35 35 36 37 39
36 35 34 33 31 27 23 18 18 17 16 18 18 15 11 5 13 20 21 21 21 20 19 20 22 26 31 36 39 41 42 42 42 41 41 41 41 41 40 38 36 35 34 34 34 33 32 32 32 34 36 37 38 40

GFSWCAN_500_spd_006.txt.gz
Wind_Speed
57 60 61 60 59 63 67 67 57 23 34 40 36 31 31 33 28 26 19 17 31 19 20 18 16 21 18 14 13 13 10 11 10 13 12 13 15 17 16 15 12 8 6 5 4 7 8 7 8 11 12 14 12 13
56 59 61 60 59 61 67 69 61 37 13 45 46 39 33 34 30 23 23 23 23 26 24 21 19 16 16 14 13 15 13 15 11 13 11 17 14 16 19 18 16 13 9 6 6 6 6 8 9 9 9 9 8 8
55 58 60 60 58 60 66 68 62 38 12 30 50 44 42 38 29 29 26 29 23 21 19 23 19 20 18 16 14 15 13 11 8 7 11 18 16 15 16 17 16 17 15 15 13 9 9 8 7 5 6 7 9 10
54 58 58 59 58 59 64 68 65 37 18 17 45 46 45 41 32 36 31 26 26 20 17 23 20 18 18 17 14 15 14 8 9 12 11 17 17 19 14 14 18 16 16 17 17 13 13 10 7 5 4 5 5 7
53 56 57 58 58 58 63 67 68 42 24 13 43 49 48 41 33 34 32 28 27 25 17 21 25 19 17 16 14 16 15 18 13 13 15 16 18 17 20 17 16 17 16 17 18 16 16 12 6 3 7 4 3 5
50 54 56 57 57 60 63 67 70 50 24 14 29 55 50 43 40 37 33 32 27 26 20 21 23 21 18 15 14 12 10 15 14 12 13 17 16 19 24 19 18 20 15 14 16 18 17 12 9 9 9 7 7 8
48 52 53 55 55 58 64 68 72 58 29 17 26 48 56 47 46 41 34 30 24 23 23 24 25 21 17 16 16 12 11 13 13 13 12 12 19 18 16 18 25 27 20 15 14 17 17 16 16 14 11 9 9 10
46 50 51 53 52 56 62 69 73 63 37 16 26 51 56 51 47 43 38 32 25 21 25 27 21 19 19 18 17 16 11 12 12 12 16 15 15 14 15 19 22 22 19 20 22 21 21 20 19 20 18 13 12 10
44 47 49 52 51 53 60 68 72 65 38 14 23 52 57 52 48 43 38 35 29 23 26 27 23 21 20 18 20 14 11 9 14 14 16 15 11 9 13 13 12 13 15 19 24 24 22 20 18 18 20 20 16 14
42 44 47 50 49 51 56 66 70 62 34 11 22 52 57 56 48 40 38 36 31 24 23 23 27 24 24 22 21 14 9 9 10 17 19 13 10 14 13 11 11 13 9 10 13 16 14 13 12 10 12 13 14 14
39 41 44 46 46 47 52 62 66 57 32 8 26 49 53 53 48 41 40 37 31 22 16 19 26 27 28 25 22 18 10 11 10 13 16 15 12 16 11 14 12 11 9 5 7 12 12 9 8 9 12 12 14 15
36 38 38 42 42 43 47 55 62 53 26 1 32 46 48 46 39 41 44 39 32 24 15 17 19 25 28 29 28 22 17 13 11 11 12 15 14 15 12 13 11 12 12 10 10 10 10 10 11 11 11 13 15 17
33 35 34 39 39 38 41 47 57 50 21 7 35 42 45 47 39 40 43 41 35 23 18 18 19 19 23 26 28 27 24 17 13 11 13 16 14 15 14 16 13 13 14 15 15 14 13 12 13 13 13 15 17 20
30 30 31 34 36 35 37 40 48 48 17 13 35 41 51 51 48 46 43 39 34 28 23 13 18 22 23 24 26 26 25 22 16 11 15 16 16 15 14 13 14 15 16 17 19 20 19 18 18 19 19 21 23 24
29 27 28 31 33 33 32 34 39 44 25 9 32 40 51 52 51 46 42 38 37 32 26 19 13 14 22 25 27 29 26 25 19 17 19 17 16 16 18 19 17 16 16 19 22 22 23 24 25 24 24 24 24 25
27 25 26 28 29 29 28 29 31 36 31 6 26 40 42 44 46 43 40 40 40 37 35 28 22 20 20 24 25 25 26 27 23 22 23 22 21 21 17 15 16 18 19 19 19 20 22 24 25 25 23 24 25 25
26 22 23 26 26 25 25 25 25 29 30 19 16 31 40 42 44 42 44 38 38 45 42 35 30 27 24 24 22 22 21 25 27 29 29 26 23 24 21 20 18 17 17 18 20 22 22 22 22 23 24 25 25 25
25 22 22 23 25 25 22 21 21 24 25 23 13 22 38 43 45 47 47 51 50 47 45 48 44 39 33 26 22 19 18 26 30 32 33 31 29 25 25 27 24 21 21 22 23 22 22 23 23 23 23 24 24 25
24 23 22 22 25 25 21 17 20 19 22 23 20 13 25 41 46 47 51 55 57 54 51 48 48 44 39 31 28 26 25 29 31 32 31 29 29 29 28 26 25 25 24 24 24 24 24 24 24 23 24 24 24 25
24 24 23 23 25 27 23 19 21 18 22 25 25 21 18 34 50 51 48 52 52 50 49 53 47 44 45 42 34 32 27 27 32 35 34 32 33 31 29 28 28 27 28 29 28 28 27 26 26 25 25 25 26 27
27 25 26 25 26 28 26 24 26 22 24 29 30 29 24 25 37 56 54 48 50 55 55 53 50 47 47 49 43 39 34 32 32 33 34 34 34 36 32 31 31 29 29 30 29 29 29 29 28 28 28 28 28 26
25 27 27 28 27 27 27 28 28 27 29 34 35 37 33 29 34 43 62 67 56 48 51 54 51 50 54 52 47 42 40 35 34 37 36 35 35 33 32 32 33 31 30 30 31 31 31 29 28 27 26 25 24 24
25 28 28 28 29 30 27 31 31 29 35 37 40 41 41 36 33 40 47 61 69 60 56 57 55 58 57 50 45 44 43 37 33 33 34 34 34 34 33 31 31 30 28 30 30 30 29 27 27 27 27 27 27 28
25 28 29 29 30 29 33 31 29 34 38 43 46 46 44 41 37 35 39 45 57 70 63 61 62 62 57 53 47 45 46 43 39 34 36 34 34 35 36 35 33 31 30 30 30 30 30 29 28 29 28 29 28 28
27 29 29 30 31 34 29 28 35 39 43 46 48 48 45 42 36 32 33 34 40 59 76 66 67 68 71 58 56 53 49 52 45 41 34 35 37 36 33 33 33 32 30 27 27 29 30 30 30 29 28 26 23 27
28 28 26 30 30 26 30 35 39 43 47 49 49 47 44 39 33 30 28 31 34 41 59 79 70 59 64 61 52 53 55 53 50 44 38 33 35 37 32 29 27 27 27 28 29 29 30 29 28 27 27 25 29 34
27 28 30 32 27 31 36 39 43 47 49 49 47 44 41 35 28 25 28 27 28 35 42 58 80 71 57 57 54 53 50 49 50 50 43 38 34 34 35 31 31 32 36 32 30 31 31 31 32 31 31 32 36 38
28 33 32 28 29 35 38 41 45 46 48 47 44 40 33 27 25 26 27 27 26 31 37 40 48 77 70 57 56 55 58 52 51 49 46 41 40 37 35 34 40 40 37 36 37 38 37 38 34 34 37 39 41 41
29 26 25 27 33 37 39 43 44 45 46 44 40 34 25 23 25 27 28 26 25 28 35 36 34 42 62 68 57 54 55 48 46 48 47 46 44 43 40 39 40 40 47 46 42 42 42 37 37 38 37 37 37 36
24 26 28 32 35 37 41 43 43 44 42 38 35 26 21 24 27 28 26 24 23 25 31 32 28 33 41 47 56 46 51 51 46 45 45 44 42 40 40 40 39 38 38 42 45 41 39 37 36 35 34 34 34 33
25 29 32 33 35 39 42 42 42 40 37 33 27 20 20 24 27 25 20 18 18 22 24 25 21 26 37 42 41 39 37 45 40 39 39 39 39 40 41 41 41 40 38 37 37 37 37 36 34 32 33 33 32 31
29 32 32 32 36 40 40 40 39 36 33 27 21 18 20 23 22 18 14 11 11 15 18 19 16 20 26 32 40 43 45 42 44 41 41 42 43 44 46 45 44 43 41 40 39 38 36 34 33 34 32 31 29 29
31 31 30 34 38 38 38 38 37 35 31 24 19 17 18 19 17 11 9 11 10 11 13 12 10 15 20 27 33 40 44 42 43 44 40 41 43 44 43 42 41 39 36 34 33 33 33 33 31 28 26 26 26 27

GFSWCAN_500_spd_009.txt.gz
Wind_Speed
48 50 54 57 60 61 64 61 59 63 51 10 30 31 20 20 25 17 16 17 16 16 23 22 16 15 13 14 12 9 10 11 10 11 13 11 15 22 15 13 13 9 6 4 3 3 4 8 8 7 8 11 15 14
46 47 51 55 58 59 63 62 58 60 57 23 33 39 31 28 26 25 24 18 17 19 18 16 20 17 12 15 12 13 15 15 14 8 12 11 16 21 24 20 18 16 11 7 5 6 6 6 7 6 4 3 4 4
43 45 50 53 56 58 61 63 58 58 61 36 16 48 39 34 32 31 27 20 20 24 19 18 18 13 9 21 18 15 19 17 8 7 10 12 16 21 21 23 22 21 18 15 10 8 7 9 9 9 8 8 7 7
42 44 50 52 55 58 62 63 60 60 63 50 20 30 45 40 36 35 28 23 22 22 21 17 17 17 14 15 14 18 15 12 11 5 7 9 16 19 21 22 22 22 21 20 15 12 9 10 8 6 7 8 8 7
42 44 48 52 54 58 61 63 60 62 67 60 25 25 44 46 40 36 33 28 28 22 19 18 16 17 15 19 17 14 12 13 13 10 8 12 17 20 20 18 17 20 21 19 16 15 13 12 9 9 9 7 5 7
41 43 47 51 52 57 58 61 61 64 71 65 30 23 48 48 45 40 36 33 28 27 24 17 14 20 16 16 15 13 11 12 13 16 11 15 18 19 16 19 16 16 20 17 15 13 15 14 10 9 9 10 6 4
39 41 44 49 51 54 56 59 60 65 73 65 30 21 50 55 49 43 37 36 31 27 27 21 14 18 17 15 13 11 14 13 12 9 7 13 17 15 10 12 20 22 19 16 12 11 13 15 14 11 12 10 8 6
39 41 43 46 48 51 54 58 59 65 73 60 25 20 50 56 49 43 37 37 34 27 26 23 16 17 16 14 14 13 15 13 11 10 10 14 15 13 10 19 23 23 22 18 17 14 12 15 14 14 14 14 12 6
36 38 40 43 45 47 52 55 57 64 73 55 24 17 47 53 49 42 39 35 31 27 24 19 17 18 18 18 17 16 13 11 10 10 9 16 13 11 14 16 17 17 18 21 22 20 19 18 16 18 20 22 21 18
37 35 38 41 43 44 49 51 55 61 70 49 22 17 47 54 48 44 37 34 35 31 20 16 18 21 21 20 18 15 13 11 10 9 10 10 11 13 10 10 12 13 14 14 15 16 17 19 18 14 9 4 9 11
33 31 35 37 39 40 45 47 50 58 63 43 15 17 51 55 39 40 35 35 35 29 19 13 18 24 25 23 21 17 14 12 9 7 7 14 15 9 11 12 11 10 11 7 6 11 15 15 10 9 10 14 10 11
33 30 33 33 34 35 40 42 45 52 54 33 6 27 50 45 32 31 33 36 33 28 17 13 19 22 27 27 24 19 15 14 10 8 7 10 13 11 13 10 12 12 10 8 5 9 15 15 12 8 6 6 9 12
30 28 31 31 31 31 35 37 38 44 45 19 9 32 49 32 27 42 40 37 32 28 20 14 16 15 20 26 25 22 19 17 14 10 11 8 12 13 16 12 13 11 10 11 10 10 9 8 7 7 6 6 8 9
27 27 27 27 28 26 29 31 31 35 40 10 10 32 44 28 22 38 37 34 31 28 24 20 19 16 17 21 24 23 21 20 19 13 14 12 11 14 16 14 14 15 15 14 14 13 12 12 12 12 13 13 15 16
27 26 25 24 24 24 24 26 25 26 32 16 14 31 40 40 22 20 34 32 32 30 27 24 20 17 20 20 21 22 21 21 19 18 19 17 14 12 14 16 15 15 17 19 19 19 19 20 20 20 20 22 23 24
28 26 24 21 21 22 22 22 20 20 22 29 2 29 40 41 33 18 27 31 32 31 30 28 26 20 19 20 20 22 20 18 20 21 22 22 19 16 14 13 15 18 19 18 18 20 21 22 23 22 23 24 24 23
29 25 22 20 19 20 20 19 17 16 15 18 21 3 32 44 44 42 34 34 34 34 34 35 34 31 24 21 18 15 11 20 26 27 28 28 26 21 18 17 16 16 17 20 22 22 22 22 22 22 21 21 22 22
30 25 20 19 19 19 19 19 16 13 14 13 14 15 10 28 41 49 47 45 43 43 42 41 40 40 35 28 22 17 18 20 24 31 30 30 31 28 24 22 22 21 19 19 21 20 20 20 21 21 21 22 22 22
30 26 21 18 16 19 17 18 19 16 15 16 14 14 15 13 12 39 49 50 51 50 49 48 45 44 44 42 35 29 28 29 26 26 29 31 32 31 27 27 27 25 23 23 23 24 24 22 21 21 21 21 21 21
29 26 21 19 19 18 18 19 20 18 18 19 19 17 17 18 17 18 23 40 53 55 56 57 55 52 49 50 49 47 42 40 36 30 29 30 31 29 27 25 25 26 25 24 25 25 24 23 23 22 22 22 23 23
29 25 23 21 22 18 19 21 21 20 20 20 23 23 22 23 24 26 26 27 35 47 61 60 60 61 60 57 54 51 43 39 44 39 34 30 29 30 30 29 29 29 29 28 26 26 27 28 27 26 26 25 25 26
28 25 24 24 22 17 22 25 24 22 22 26 26 24 24 28 31 34 34 35 36 38 48 59 63 61 60 57 57 59 54 49 47 49 43 38 35 33 30 31 30 30 32 30 30 30 29 29 29 29 28 28 28 26
28 25 25 25 20 20 22 25 25 25 28 27 24 26 30 32 35 39 43 42 40 41 46 54 65 64 63 60 56 52 54 49 50 49 49 43 41 38 36 34 32 30 32 32 31 32 31 30 29 27 26 25 25 24
25 25 26 22 21 23 25 25 26 29 29 26 27 32 34 38 42 46 48 47 46 44 44 50 56 64 66 64 65 56 57 56 53 50 46 43 43 39 36 35 33 31 32 31 30 29 29 30 29 27 25 25 24 24
25 26 24 22 23 25 25 24 27 28 28 30 33 35 40 44 48 51 50 47 45 41 39 42 48 52 61 77 63 66 65 68 58 49 43 41 42 37 34 33 30 33 34 34 32 29 29 28 28 26 25 24 24 22
24 23 23 23 25 26 24 27 30 31 32 34 36 39 44 49 51 52 49 42 36 33 34 37 38 40 48 59 81 68 57 60 65 55 52 50 45 42 37 32 32 33 30 29 29 29 28 28 26 25 24 24 24 20
23 23 24 27 26 23 27 27 28 31 33 35 38 43 48 51 51 47 42 37 33 32 33 33 34 34 38 44 65 78 60 51 61 65 58 54 48 43 38 35 32 32 31 29 29 29 30 26 28 28 26 23 23 27
19 24 29 25 23 24 24 26 29 33 34 37 41 47 50 50 47 44 39 36 33 32 32 33 31 31 32 37 49 70 73 51 47 56 68 56 50 47 41 39 35 30 32 33 30 29 29 30 30 29 28 31 31 28
24 27 24 25 22 22 25 29 32 33 35 39 44 47 48 46 44 40 34 32 32 31 32 32 29 29 30 32 36 46 71 55 44 40 56 58 53 50 45 44 37 34 31 30 30 37 37 37 37 36 33 31 30 31
25 24 21 18 20 24 28 30 30 32 37 41 44 45 44 41 38 34 31 31 33 32 30 28 26 27 27 28 29 34 42 59 52 39 42 54 51 47 44 44 43 40 37 34 33 33 32 39 37 35 36 35 33 32
23 19 17 20 23 27 28 29 30 34 38 41 43 42 40 36 30 30 29 30 30 27 23 22 21 21 22 23 25 28 34 38 49 52 39 43 50 48 49 46 42 38 38 37 35 37 37 35 37 38 37 34 32 30
20 19 21 22 26 28 29 28 31 35 38 40 40 39 37 32 26 26 27 28 24 18 13 10 11 14 15 18 23 26 37 42 35 52 36 41 47 42 40 37 38 40 41 40 37 34 34 34 35 35 34 32 31 28
21 23 23 25 28 29 29 30 32 35 37 38 37 37 33 27 21 23 24 22 13 7 5 7 11 12 15 17 20 25 33 40 40 38 41 40 40 38 39 40 38 35 36 37 36 36 35 35 33 32 29 27 24 21

GFSWCAN_500_spd_012.txt.gz
Wind_Speed
38 39 41 43 44 45 47 51 53 53 53 47 45 16 28 27 23 17 17 18 20 23 16 18 19 18 19 21 21 17 13 11 11 13 15 19 22 23 21 17 11 8 5 3 2 2 3 1 1 4 5 6 8 10
33 37 40 41 43 43 44 49 51 52 52 49 47 35 34 37 33 27 23 17 22 17 17 20 20 17 16 20 18 17 12 10 9 11 14 22 24 27 26 21 14 12 11 8 6 5 6 5 4 4 3 3 2 1
30 36 37 39 39 42 45 46 50 53 54 52 50 51 22 44 38 32 28 25 23 20 16 21 19 21 17 17 17 15 11 11 12 12 13 20 23 26 28 26 21 17 16 15 10 8 9 9 9 9 9 7 5 4
28 36 37 39 40 42 45 45 50 54 56 56 57 61 32 46 49 34 33 30 24 23 23 16 21 20 13 11 19 16 13 14 15 13 10 17 20 26 26 26 25 22 21 20 19 16 13 10 10 10 10 9 8 7
29 34 40 41 42 42 46 47 50 53 58 59 62 67 38 36 54 49 38 34 26 25 27 22 21 18 15 14 17 14 15 15 13 10 10 12 17 22 28 28 24 24 24 23 21 19 14 14 13 11 9 6 6 5
30 34 40 41 41 43 46 48 51 54 59 61 68 61 30 30 53 52 46 38 30 26 26 25 20 17 16 18 19 15 13 11 12 13 14 15 18 23 24 20 23 23 24 23 19 15 14 14 13 11 11 11 4 2
32 33 37 37 38 41 45 48 49 55 60 63 70 50 17 28 54 51 45 40 33 31 27 22 18 15 21 15 15 13 12 12 13 15 14 15 18 20 17 14 23 24 21 15 15 12 11 13 14 13 11 10 10 7
32 34 33 34 35 38 43 47 48 55 59 64 68 42 11 35 54 50 45 40 36 35 32 27 17 11 16 19 15 13 11 12 14 13 13 13 18 14 13 22 18 17 18 17 15 14 10 12 14 14 13 13 13 12
30 32 31 31 32 35 40 43 46 53 57 64 62 31 13 43 55 50 43 39 34 31 29 25 20 14 16 19 17 15 14 12 11 11 10 11 16 16 21 20 17 18 18 16 18 20 18 14 14 13 14 17 17 16
28 29 28 28 31 32 36 39 43 50 53 60 51 15 23 48 49 44 41 36 32 30 24 23 21 18 17 19 19 16 13 11 9 10 9 9 14 16 12 13 15 15 16 15 14 17 20 20 20 18 15 12 7 9
28 27 28 28 29 30 32 35 39 44 48 53 37 6 34 47 40 37 36 35 32 30 25 19 17 18 19 20 19 18 14 10 8 8 6 7 11 13 11 12 8 8 9 10 11 14 18 17 16 15 12 11 9 11
28 28 27 26 26 26 27 30 33 37 42 43 22 22 43 39 35 36 35 36 35 30 19 16 15 14 16 19 21 20 17 12 9 7 6 4 10 14 11 11 9 9 10 10 8 8 11 13 12 14 15 11 10 10
34 32 26 24 25 22 22 25 27 30 35 30 11 37 40 30 30 30 29 34 31 27 20 15 13 12 14 17 19 22 21 17 14 9 8 8 7 12 12 16 12 10 10 9 8 7 11 16 15 13 12 10 9 8
35 29 24 23 23 18 17 19 21 22 25 22 12 39 28 27 29 23 21 26 27 25 24 19 14 12 12 13 15 17 20 20 16 12 13 11 10 10 14 15 16 13 13 11 11 11 12 14 13 11 9 8 9 10
33 26 24 23 22 17 13 14 17 15 16 20 7 36 32 27 27 32 30 25 25 25 25 27 21 16 17 16 15 15 16 18 18 16 16 15 13 12 11 14 16 14 16 17 16 15 14 13 13 14 14 14 15 17
35 28 26 24 22 17 13 10 13 11 10 12 10 17 37 34 24 22 32 33 29 26 27 29 29 25 22 20 18 19 16 16 17 17 18 18 17 15 13 13 14 16 16 17 19 21 21 21 21 21 21 21 21 20
33 29 27 26 22 17 15 12 10 9 6 6 6 9 13 32 41 31 30 31 33 34 34 33 33 31 28 25 20 14 11 17 21 22 22 23 21 19 18 16 15 16 15 17 19 21 21 22 21 21 21 21 20 20
34 31 29 28 23 17 16 16 14 11 8 6 7 7 7 6 25 40 41 36 36 35 36 36 36 34 34 33 29 25 22 21 19 18 21 24 25 27 27 25 23 21 19 20 20 19 20 21 21 21 21 21 21 21
33 31 30 27 24 19 15 18 18 14 11 11 10 11 12 12 10 9 26 44 47 44 43 42 43 41 40 40 39 38 36 31 28 27 24 23 24 26 28 30 29 26 25 25 24 23 21 21 22 22 22 22 23 22
31 31 29 27 25 22 17 18 21 19 15 14 14 15 15 16 19 17 15 14 19 33 48 53 54 55 52 49 49 47 44 45 42 37 33 30 29 29 28 26 24 25 27 29 29 27 26 24 23 23 23 23 22 22
31 32 29 27 26 24 19 19 22 22 19 17 17 17 20 22 24 25 24 23 23 23 25 28 33 46 62 62 59 58 55 51 48 48 46 42 38 36 34 29 25 24 25 27 27 27 28 27 27 26 25 25 25 23
31 29 30 30 29 25 21 21 23 24 23 20 20 19 23 26 27 27 28 29 30 32 33 35 37 37 39 43 50 63 69 65 60 55 50 48 47 45 40 34 27 25 25 28 28 28 29 30 28 27 26 25 24 25
32 31 31 31 30 27 22 23 23 25 24 22 23 23 25 27 27 29 31 33 37 38 38 40 43 45 46 47 49 55 58 62 64 59 57 54 52 49 45 43 38 32 28 27 28 29 30 31 30 28 27 27 27 27
32 32 33 32 30 26 25 25 26 25 25 26 25 24 26 28 30 32 35 38 40 42 44 46 49 52 52 52 51 55 62 61 60 58 56 49 47 52 51 48 45 38 34 32 32 31 30 31 30 29 28 28 27 26
34 33 33 30 28 27 28 28 27 24 26 27 28 29 30 31 32 35 37 41 43 46 48 50 51 48 45 45 48 51 56 57 59 61 55 60 52 50 49 49 44 40 36 34 33 33 30 29 28 28 27 26 26 25
33 33 31 27 27 28 29 28 24 26 29 30 31 30 31 33 35 38 39 43 47 50 50 48 44 41 40 40 40 45 48 47 50 62 62 64 59 56 52 48 44 38 35 34 31 30 31 30 29 29 28 26 24 21
31 28 25 26 28 28 27 25 25 28 29 27 28 32 34 36 36 39 43 46 49 48 46 44 41 38 37 37 38 36 39 41 43 62 68 62 67 62 53 45 46 43 36 32 30 30 26 26 27 29 28 25 22 20
26 24 23 26 29 27 24 24 27 29 27 28 30 32 34 35 39 42 46 48 48 45 42 40 38 33 33 32 32 33 34 36 41 49 67 61 60 54 53 46 46 42 39 37 31 28 27 26 28 28 27 25 23 21
21 23 27 28 26 24 23 27 28 27 27 28 30 31 33 37 41 45 47 47 45 42 37 34 35 33 35 35 34 30 30 32 39 42 57 63 45 53 54 53 47 43 45 41 33 30 29 30 30 28 27 26 27 30
25 26 26 25 22 24 25 25 23 25 27 30 30 30 35 39 42 45 46 45 42 37 34 33 36 36 32 28 26 26 26 28 34 37 44 58 53 45 48 52 50 48 47 41 35 31 29 27 26 29 33 34 36 34
26 27 25 23 22 24 22 21 23 26 28 29 30 33 35 38 41 44 45 43 37 33 33 35 34 29 24 21 21 21 22 24 32 34 34 46 45 45 44 51 56 56 49 41 37 36 30 27 25 28 33 34 35 35
27 25 22 22 22 23 23 23 24 27 28 28 31 34 36 38 40 41 42 38 31 29 32 31 25 20 15 11 10 12 16 22 33 38 37 50 44 40 40 36 36 46 46 42 41 35 32 31 29 31 32 33 32 30
25 26 25 22 23 24 25 25 26 25 26 29 32 34 35 37 38 39 37 30 25 26 27 21 17 12 13 15 13 15 17 21 36 40 39 44 46 35 39 39 37 40 40 36 33 32 31 30 31 30 28 27 26 26

GFSWCAN_500_spd_015.txt.gz
Wind_Speed
33 35 32 35 32 31 35 37 38 39 39 39 40 36 32 27 25 29 24 18 19 20 14 15 18 20 21 23 22 19 18 17 15 16 17 17 18 17 21 20 14 12 11 8 6 6 5 4 6 7 8 10 14 15
33 32 32 30 31 33 35 39 41 41 41 41 41 41 38 35 21 33 33 25 24 26 22 15 20 20 21 23 21 21 19 16 16 14 15 17 19 19 23 24 19 17 15 11 9 8 8 9 9 9 10 10 10 9
30 28 29 29 30 33 37 39 43 44 45 44 48 48 45 44 39 27 46 37 28 27 26 23 23 20 21 23 23 21 19 17 16 13 13 16 20 22 25 27 26 23 18 16 14 11 10 10 12 11 12 13 12 8
27 26 29 29 32 34 39 39 44 46 47 47 53 55 54 55 43 35 47 43 37 31 32 27 26 25 24 22 24 22 18 14 14 13 12 15 20 24 25 27 29 28 24 21 19 17 14 13 14 12 12 12 13 12
32 32 33 30 32 33 38 41 44 47 48 52 58 61 64 61 35 35 53 48 41 35 28 25 22 27 25 20 20 21 20 17 14 13 13 15 18 23 27 29 26 28 30 27 24 21 18 15 15 14 12 12 10 8
30 32 34 31 31 33 36 40 44 46 48 54 59 65 70 52 28 33 56 52 41 36 28 29 23 27 25 19 17 21 21 17 15 15 13 13 17 21 24 25 24 29 28 25 21 20 18 15 15 16 15 12 9 6
31 31 30 28 31 33 35 39 42 44 47 54 60 66 64 37 14 40 55 48 42 34 31 32 24 24 22 20 19 20 18 14 12 12 12 14 18 21 19 14 26 29 29 22 17 16 16 14 15 16 15 11 10 12
30 29 27 28 30 32 36 38 40 42 46 53 60 65 50 15 18 52 52 44 38 34 29 29 26 22 18 20 16 19 16 12 9 10 12 14 15 17 13 25 26 24 19 17 18 14 14 12 13 16 15 13 11 12
29 33 28 27 28 31 33 36 36 39 44 51 58 56 30 3 30 53 47 43 38 34 30 27 24 20 15 17 22 18 15 11 7 9 10 10 13 15 18 21 21 18 16 15 15 16 17 18 12 13 14 15 14 16
29 33 27 26 25 28 32 33 33 36 41 47 52 36 8 22 44 48 42 38 38 33 32 26 24 18 15 14 18 18 15 10 8 10 9 9 11 15 16 21 21 20 18 17 18 16 19 22 21 18 16 14 16 16
28 30 28 29 26 28 29 28 28 32 36 41 40 16 20 38 40 40 38 35 36 31 27 28 25 22 17 15 16 18 15 11 9 11 8 6 7 12 17 16 16 14 13 13 14 16 17 17 21 20 18 18 15 11
26 28 27 27 22 24 26 23 23 27 30 34 26 11 34 34 32 36 35 34 30 27 25 22 19 19 17 15 16 16 16 15 12 11 9 6 5 10 15 14 12 11 11 10 10 12 14 16 17 16 16 15 16 14
25 26 28 29 27 26 23 19 17 21 22 26 10 22 22 21 23 27 30 28 24 20 22 21 19 15 12 13 13 17 20 19 17 13 11 10 8 4 11 12 12 12 10 11 11 9 7 11 15 14 15 17 15 13
28 30 26 26 28 26 21 15 13 15 16 17 2 24 18 17 22 20 24 24 21 24 23 22 18 14 12 13 13 13 13 16 19 17 18 15 12 9 5 11 12 14 11 11 10 9 10 14 20 19 15 15 14 11
23 25 27 26 25 25 20 14 12 12 10 9 2 19 25 19 26 26 24 23 25 26 26 24 21 19 16 14 12 11 11 11 13 20 19 18 16 13 10 8 12 13 13 14 14 13 12 14 15 15 15 13 12 12
22 26 29 26 27 28 23 16 14 12 9 7 5 12 25 28 28 30 30 28 24 26 28 29 28 26 25 20 15 16 15 15 14 15 17 18 18 17 14 12 11 11 15 13 15 18 18 17 17 17 18 17 18 19
25 27 30 29 28 30 27 19 17 15 11 11 8 6 18 31 30 27 30 31 34 30 28 30 32 32 30 29 26 21 14 17 16 15 16 18 18 20 20 18 16 15 14 15 16 16 17 21 23 23 23 24 24 23
27 29 33 31 31 32 27 21 20 17 15 14 13 12 12 11 26 35 39 35 32 32 34 35 38 37 35 33 32 30 27 25 24 21 19 18 19 21 22 23 23 21 20 20 20 19 18 19 20 20 21 21 21 21
31 30 31 30 32 30 27 24 21 19 19 17 16 15 16 18 15 12 14 25 36 44 43 39 40 41 41 38 39 39 37 36 35 32 30 28 24 21 21 23 26 28 29 29 27 25 22 21 21 20 19 19 21 21
29 30 31 31 32 29 27 26 25 22 21 21 19 18 18 19 20 20 19 17 16 18 27 36 41 45 45 45 45 44 43 41 41 40 40 38 37 34 28 25 24 23 23 28 31 32 30 28 26 25 24 24 24 24
28 29 30 32 31 28 27 28 26 24 23 23 23 22 20 22 23 23 22 22 24 26 25 24 24 24 26 32 39 47 53 55 54 52 50 45 46 46 43 37 32 28 25 25 28 31 33 31 30 29 28 27 26 24
29 30 30 30 29 28 27 27 26 26 25 25 26 26 24 24 25 26 26 27 27 28 31 31 30 31 32 33 34 35 36 37 39 47 57 58 54 52 51 51 46 39 34 29 28 31 31 30 29 29 29 29 28 27
30 31 31 29 30 29 26 26 26 27 28 28 29 29 27 27 28 28 30 30 32 32 33 35 37 38 40 42 43 45 46 47 47 46 44 46 58 63 59 56 55 52 47 42 34 30 27 27 29 29 29 29 29 28
30 30 30 31 30 27 24 25 27 29 30 29 29 29 28 28 30 30 30 32 35 34 36 38 40 42 44 46 47 49 51 53 54 55 57 56 51 54 64 65 62 58 52 43 41 36 31 27 26 27 29 30 29 28
32 32 31 30 29 26 26 27 28 28 29 31 31 31 30 31 32 34 34 36 35 36 38 40 41 42 43 46 49 51 54 56 58 59 60 61 60 58 62 63 60 60 57 53 45 40 38 35 31 29 28 28 28 29
33 33 30 27 26 27 27 27 28 29 30 31 30 30 31 32 34 35 35 35 37 38 39 40 42 44 47 50 52 54 55 54 54 53 54 57 57 56 60 63 56 52 48 48 47 44 41 37 34 33 31 29 28 29
32 28 25 25 27 28 28 29 31 31 31 30 28 29 31 34 35 36 36 35 36 38 40 43 45 48 50 51 53 52 50 50 49 48 49 50 51 50 50 55 67 56 55 50 44 42 42 40 36 32 31 31 30 30
27 25 24 25 25 27 28 30 30 29 29 26 26 29 33 34 35 35 35 36 37 39 42 45 48 50 50 49 48 46 45 44 40 38 38 40 41 42 46 58 69 56 56 55 48 42 41 40 37 32 32 29 27 26
25 24 25 25 28 30 28 27 27 26 25 25 28 31 31 33 35 36 36 37 39 41 44 47 50 49 48 44 42 41 41 40 39 39 36 36 37 42 46 60 60 58 58 54 51 46 42 38 36 34 32 30 30 28
24 24 25 28 28 27 24 24 23 24 24 25 26 28 29 33 34 36 36 37 39 43 46 48 47 45 41 40 40 40 35 31 30 30 31 31 33 37 39 59 55 58 60 51 47 43 44 40 34 34 32 29 29 27
24 26 27 27 26 26 24 23 22 21 22 26 28 29 31 31 32 35 38 39 41 44 46 46 44 39 37 37 34 31 28 23 23 24 27 29 31 33 38 54 51 47 54 50 47 38 39 39 36 33 29 25 28 32
26 27 26 25 24 24 23 21 20 22 25 28 30 31 32 30 31 32 37 39 41 44 43 41 36 35 34 27 22 24 23 19 19 21 25 27 29 37 44 51 47 45 48 50 43 43 40 36 38 31 28 24 24 25
27 27 25 23 22 21 21 23 24 24 27 28 28 29 29 30 31 33 36 38 40 41 39 34 31 30 24 26 24 20 19 17 16 16 20 28 35 42 42 48 46 40 44 47 45 39 35 36 31 29 29 27 22 21

GFSWCAN_500_spd_018.txt.gz
Wind_Speed
36 40 31 30 30 29 32 30 29 32 33 32 33 36 35 34 31 21 24 28 27 19 25 25 25 25 23 23 20 18 17 17 17 18 17 17 17 16 14 13 18 13 10 9 9 8 8 8 10 10 12 14 16 16
36 33 32 31 32 27 30 30 32 33 34 34 35 39 38 38 38 35 28 26 37 28 27 27 24 24 25 23 20 21 21 19 19 17 17 16 16 16 17 15 17 17 15 12 11 10 11 10 11 10 11 13 13 14
32 35 36 36 35 29 32 34 35 35 36 37 40 43 44 46 47 45 43 35 44 41 35 32 23 19 21 20 22 23 23 20 19 18 15 15 15 17 18 17 18 20 19 15 13 14 15 14 12 13 12 13 14 14
32 33 34 33 31 31 34 37 37 37 39 41 44 47 50 54 57 57 55 35 52 45 37 37 30 23 22 22 23 24 24 21 19 18 15 13 16 18 19 19 20 23 21 20 19 17 17 17 16 16 15 13 14 14
26 29 29 26 26 31 33 34 38 37 40 43 47 51 55 62 66 67 44 29 51 48 41 37 32 27 25 23 23 23 23 21 19 17 14 13 15 18 19 19 20 25 25 23 24 22 22 22 18 17 15 14 14 12
23 22 24 24 25 29 29 35 37 37 43 44 49 53 60 67 71 52 22 24 52 47 41 40 35 30 31 24 23 21 21 21 21 16 15 15 16 19 15 17 20 25 28 27 22 21 19 20 20 19 16 15 13 10
20 19 22 23 27 29 31 34 35 36 43 46 50 54 62 66 55 22 15 44 51 39 37 34 33 28 27 28 25 15 15 21 20 17 14 16 17 18 13 16 25 27 29 27 20 19 17 18 17 17 17 16 14 11
18 18 19 22 25 30 33 33 33 35 41 45 49 54 60 53 23 7 47 46 42 39 35 31 29 23 24 25 21 17 17 18 17 15 12 12 15 16 13 19 19 19 19 15 13 13 13 14 14 15 15 15 15 11
24 25 33 29 26 30 33 32 29 34 39 41 47 52 48 24 10 48 40 36 36 34 32 28 27 22 21 18 17 17 15 18 16 10 9 9 12 12 13 13 12 13 13 11 11 14 17 17 18 16 15 16 16 14
24 25 32 34 30 28 29 30 26 32 33 36 42 44 27 14 46 39 31 31 29 30 26 25 26 23 19 16 15 18 16 15 13 11 9 8 8 7 10 13 14 12 13 13 14 16 17 20 22 19 17 14 14 13
31 32 37 36 30 27 29 26 23 28 28 30 36 30 6 40 37 32 30 27 30 26 23 22 21 21 16 11 9 13 15 14 12 10 9 9 8 9 12 17 15 16 15 17 20 20 19 20 21 21 20 18 16 16
34 37 39 33 27 27 26 23 18 22 22 24 25 17 13 34 30 26 21 22 21 20 19 22 18 17 15 13 11 11 13 14 16 14 11 10 8 5 11 16 15 15 15 15 15 14 15 17 18 18 20 20 18 14
38 39 36 32 25 27 25 25 21 16 16 16 16 5 14 32 27 21 18 17 16 16 16 18 17 15 14 14 12 11 12 14 17 16 16 13 11 9 5 12 16 14 14 13 15 16 14 13 15 17 17 13 10 17
35 33 31 34 29 26 24 23 21 14 12 10 9 6 12 19 22 21 19 18 18 18 18 19 18 17 14 13 12 10 9 10 11 15 18 16 15 14 10 7 14 14 17 14 14 15 11 8 9 12 13 13 21 20
28 29 31 34 32 29 25 21 20 15 13 8 7 5 16 12 24 23 22 22 21 20 20 19 19 19 18 15 12 9 7 7 7 9 11 15 16 15 15 12 8 11 12 14 13 13 11 14 17 21 23 23 19 16
23 26 26 23 24 28 27 23 22 19 15 12 10 7 14 19 18 23 24 23 25 24 24 24 23 23 21 19 16 12 10 10 11 10 9 10 12 15 16 17 15 11 9 11 11 13 17 15 16 18 18 16 17 17
26 22 25 23 22 22 23 23 24 23 18 16 14 12 11 17 25 27 24 25 27 27 23 24 27 29 28 27 25 23 20 18 20 16 13 12 13 14 16 17 18 18 16 13 12 14 15 18 20 19 20 21 21 22
26 29 30 28 25 24 24 24 24 26 24 20 17 16 15 14 16 25 28 29 28 27 31 33 33 32 31 31 28 28 29 28 27 27 25 20 17 16 18 20 21 22 21 20 18 16 15 16 19 21 23 24 23 21
31 31 29 28 28 26 26 25 28 27 29 24 21 19 18 18 17 17 19 26 32 35 37 34 37 36 33 31 32 34 35 35 34 34 34 33 31 27 23 20 22 24 26 27 27 25 24 22 22 22 22 21 21 21
32 35 29 27 27 29 27 26 29 28 29 28 24 22 21 20 20 20 19 20 20 20 22 28 37 43 46 47 44 43 40 39 39 38 39 40 40 40 37 33 29 26 25 25 25 27 30 30 29 28 27 26 24 22
33 32 28 26 27 30 28 27 29 28 28 29 27 25 24 23 22 21 21 21 21 21 24 24 26 27 24 23 28 40 46 48 48 47 47 45 45 46 45 44 43 41 37 33 29 26 25 26 28 28 28 29 28 27
28 27 26 24 26 27 27 28 29 27 27 27 27 27 24 24 24 24 24 23 23 26 27 26 26 26 31 31 31 31 32 32 33 33 33 39 45 51 54 53 52 50 49 47 43 37 32 30 27 27 27 28 30 29
26 25 24 24 26 27 27 27 28 27 27 25 27 27 24 25 25 26 25 23 26 28 27 28 29 30 30 32 34 36 37 38 39 41 42 43 43 43 43 43 47 55 58 58 54 50 46 39 33 30 28 29 27 28
26 25 25 27 26 26 27 28 26 25 26 26 27 26 25 25 26 27 26 27 30 30 30 31 33 35 35 36 38 39 40 40 41 42 43 43 45 47 48 48 48 47 46 53 63 60 55 50 44 39 34 26 27 28
30 28 28 26 25 26 26 24 24 25 26 25 23 22 23 25 27 27 27 29 30 31 33 35 36 37 38 40 40 41 42 43 44 45 47 48 49 48 48 49 51 52 52 50 52 64 64 56 50 42 40 34 28 28
29 30 30 26 24 24 23 22 23 24 25 22 21 22 24 27 29 28 28 30 30 29 32 36 38 38 39 40 41 43 44 45 45 46 49 50 52 53 53 54 54 54 54 55 56 59 63 61 53 47 42 40 35 30
28 27 26 24 24 23 22 22 22 22 22 22 22 24 27 29 27 28 31 31 31 32 33 35 38 39 39 40 42 44 46 47 49 51 53 54 55 55 55 54 54 55 56 55 55 59 59 55 52 51 46 41 38 34
25 25 26 26 24 22 22 22 21 22 23 23 24 27 27 26 28 30 31 31 32 32 35 38 39 39 40 42 45 47 50 53 54 54 51 50 50 50 50 49 48 50 52 51 50 55 58 58 52 51 47 42 38 35
23 25 27 25 24 22 21 21 22 23 25 25 24 24 23 24 28 30 31 31 32 35 37 38 39 40 43 46 50 53 55 55 52 48 48 47 47 47 45 43 41 40 44 45 45 56 55 51 52 46 42 41 39 36
24 26 25 23 22 23 23 23 23 24 22 21 22 21 22 24 26 28 30 33 35 36 36 38 40 42 45 49 53 54 54 52 45 44 44 44 43 40 39 37 38 35 37 42 47 56 61 55 53 51 46 42 40 36
23 23 22 23 24 24 23 22 20 18 18 21 22 22 23 23 27 31 33 34 35 36 37 40 43 45 48 52 53 49 44 45 42 40 38 36 32 30 29 30 32 33 35 41 41 55 58 53 51 48 44 39 38 38
23 24 24 24 23 24 20 18 18 18 20 22 22 23 24 25 28 29 31 33 34 36 39 42 44 48 50 51 48 45 41 37 38 37 33 31 25 24 23 22 23 26 30 35 42 50 49 46 47 41 38 37 34 28
24 23 26 26 22 19 19 18 18 19 21 22 23 24 25 26 28 29 32 34 36 38 40 42 45 48 48 45 40 37 36 31 31 27 25 23 16 20 21 21 25 31 37 40 40 39 39 45 43 40 36 33 31 28

GFSWCAN_500_spd_021.txt.gz
Wind_Speed
35 33 31 31 34 34 29 29 26 24 24 29 28 29 29 29 29 28 25 25 21 21 32 30 28 34 33 27 21 20 18 17 16 16 16 18 17 15 14 13 11 9 10 10 6 8 8 6 7 9 10 12 14 15
35 33 32 30 33 32 31 31 30 28 29 32 34 32 33 33 34 35 34 36 33 29 30 38 33 31 32 30 24 24 20 20 19 19 18 17 17 16 15 16 13 12 13 10 10 10 8 6 5 6 9 11 12 14
34 32 28 30 25 31 35 32 33 30 32 32 37 36 37 37 40 43 43 46 47 46 39 36 39 38 33 31 28 26 23 23 22 20 18 17 18 17 17 17 16 14 13 15 14 14 11 10 10 10 10 10 12 13
32 31 34 26 24 28 32 25 28 31 30 34 39 40 41 44 49 50 53 57 61 58 43 44 48 40 33 28 25 27 24 23 22 19 18 17 17 17 18 16 15 17 17 19 19 17 14 13 12 13 13 13 12 12
30 31 31 25 23 26 22 24 27 30 34 37 41 41 43 51 54 59 64 68 51 35 33 47 44 39 32 24 23 23 23 23 23 18 16 16 16 17 17 16 18 20 20 21 21 19 18 18 19 18 15 14 14 12
27 25 23 21 18 18 20 25 29 32 35 38 39 41 47 54 59 66 65 40 20 20 30 36 33 40 32 25 23 21 22 22 20 20 17 14 17 18 14 11 24 22 21 23 20 19 19 19 16 16 16 15 15 13
22 23 20 17 14 12 21 28 30 32 35 37 37 41 48 54 63 62 34 4 28 34 36 26 27 35 29 23 21 21 19 19 21 19 19 17 18 19 16 18 21 20 18 16 16 18 19 17 16 17 16 16 15 12
16 15 12 14 14 17 21 25 31 32 34 33 35 41 47 54 53 24 12 45 41 39 30 25 32 32 27 23 25 21 18 17 21 19 19 19 18 18 17 18 18 18 17 16 14 16 18 17 17 16 15 14 12 12
18 14 17 12 17 20 26 27 30 31 31 30 33 39 42 36 14 38 48 35 30 26 24 26 29 28 22 20 21 25 18 14 16 19 18 16 15 16 16 17 17 18 16 17 18 18 18 17 18 17 15 13 14 15
24 21 20 16 20 26 29 30 30 28 28 27 29 32 22 18 40 27 31 20 25 25 21 16 23 21 17 17 16 14 15 14 18 16 15 14 11 12 15 15 14 15 14 16 15 15 16 16 18 17 17 16 15 17
31 28 25 23 25 28 32 29 29 25 23 21 22 20 7 22 13 20 19 17 18 18 16 16 20 16 15 13 9 9 13 15 13 14 14 12 11 9 13 14 13 13 14 14 14 15 16 17 18 19 20 20 19 16
31 30 30 30 29 29 30 27 26 21 18 17 14 9 10 21 17 13 14 15 15 14 13 13 16 15 14 10 6 4 7 9 11 13 14 13 13 9 5 13 16 16 15 14 13 13 13 15 19 21 19 17 19 20
31 27 31 31 31 30 29 28 26 21 18 15 8 3 18 19 15 15 13 11 11 12 10 13 12 13 13 10 9 8 8 9 10 12 14 17 16 13 9 5 14 18 17 16 14 13 14 16 16 16 18 17 16 18
28 30 31 33 31 29 24 26 27 22 18 15 8 10 21 26 21 20 18 14 12 13 12 13 13 13 13 11 10 9 8 7 7 10 11 12 15 14 12 9 5 8 15 15 13 15 16 20 15 14 16 14 14 14
28 27 25 25 26 28 25 28 29 24 19 19 12 13 19 19 30 25 20 17 16 16 15 15 15 15 15 13 11 10 8 6 4 4 5 8 11 12 12 12 11 6 6 10 13 16 9 12 12 13 14 19 22 19
25 24 24 23 25 25 24 27 28 23 22 23 17 14 19 23 19 27 27 24 21 20 20 19 18 17 17 17 15 13 10 9 7 5 5 7 10 12 13 12 13 13 9 5 9 13 13 10 14 18 19 22 24 23
24 20 27 24 19 19 22 23 22 22 23 22 22 20 18 21 25 24 26 28 26 23 23 25 25 22 22 23 20 18 17 19 20 18 15 12 11 13 14 15 15 14 15 14 11 11 13 15 19 18 17 16 17 18
23 24 25 29 24 22 23 21 19 20 23 21 26 23 19 19 21 25 28 28 27 26 26 26 28 28 25 24 22 25 25 26 26 25 23 23 22 20 18 17 17 18 19 19 19 17 16 14 15 18 20 22 24 24
29 27 25 29 30 26 24 23 20 19 22 22 22 26 23 21 21 20 21 24 27 30 31 29 32 26 26 27 29 30 30 29 30 31 31 31 31 31 29 27 25 23 21 21 23 25 24 23 22 20 19 18 19 20
32 30 26 28 28 26 26 24 22 21 21 23 23 24 29 25 23 21 20 20 19 19 19 21 23 27 31 34 35 37 38 38 37 37 37 37 37 37 37 37 36 33 32 29 27 25 24 25 27 27 27 26 26 25
32 30 27 28 25 26 27 26 22 22 23 24 25 28 28 29 25 23 21 20 19 19 19 20 22 22 20 23 25 26 24 27 34 41 45 45 46 45 44 44 43 42 40 39 38 36 33 30 27 25 24 24 25 28
33 31 28 27 22 26 27 26 24 24 26 26 27 28 25 28 28 25 23 19 17 21 20 19 19 21 22 22 23 23 25 30 32 30 28 27 29 36 42 46 49 50 50 48 46 44 43 41 38 36 33 28 24 24
32 30 28 25 26 27 24 26 25 24 26 27 27 26 26 24 27 27 23 19 20 25 22 20 21 22 24 25 25 24 25 27 29 32 34 37 38 39 40 41 42 42 42 44 45 48 51 53 50 46 43 40 34 28
30 31 28 27 26 25 24 24 24 24 24 25 26 26 26 24 24 24 21 20 22 22 22 23 24 25 26 27 27 28 29 31 33 36 37 37 38 39 40 41 42 43 46 47 48 47 45 44 49 56 56 51 45 41
35 35 31 27 25 25 24 22 22 22 22 24 25 25 23 23 23 22 20 21 23 22 23 24 27 28 28 30 31 31 33 35 36 38 40 39 39 40 42 43 44 46 46 45 46 47 50 51 49 46 47 54 54 46
39 35 32 25 23 25 23 21 20 20 22 24 25 24 22 23 23 20 19 22 22 23 25 26 28 29 29 30 32 35 37 39 40 41 42 42 43 43 44 44 45 49 50 49 48 49 51 50 51 51 50 48 52 49
37 31 25 23 24 25 23 20 19 20 23 24 22 23 23 23 20 19 20 20 21 24 25 25 27 29 30 33 36 40 41 41 40 41 43 46 48 48 47 48 49 51 52 51 51 52 53 53 53 54 56 54 52 51
31 25 23 24 25 25 23 21 20 20 21 21 22 23 22 19 19 21 21 21 23 24 24 26 27 29 33 36 38 39 39 40 42 44 46 49 52 53 52 51 50 50 49 51 51 51 51 53 54 55 55 56 53 51
26 24 24 24 25 24 22 20 20 21 22 22 20 19 17 19 22 22 21 22 23 22 24 27 30 33 36 38 39 40 42 44 46 48 50 53 53 55 53 49 48 48 46 46 48 47 46 47 49 51 52 53 53 52
27 25 23 22 23 23 22 20 22 23 21 19 18 17 18 20 21 20 20 20 22 25 28 30 33 35 36 38 40 44 47 49 51 53 53 50 48 48 47 46 45 45 44 41 41 41 41 40 42 46 49 49 54 54
25 23 22 21 21 22 22 24 23 21 19 18 17 18 19 18 18 19 20 22 24 27 30 32 34 36 38 41 43 45 48 53 55 55 51 46 44 41 44 40 39 35 30 29 31 34 34 32 35 43 45 53 54 51
23 21 20 20 22 24 26 24 20 18 18 17 17 16 16 16 18 21 23 25 27 29 32 34 36 37 40 42 44 47 49 51 52 48 42 37 40 39 41 33 25 20 20 21 26 29 28 29 33 38 48 54 45 36
23 22 23 24 25 24 21 19 17 16 16 16 16 16 17 18 20 22 24 25 28 30 31 33 35 38 40 43 45 48 50 49 44 38 35 37 38 31 23 19 14 15 16 19 22 24 26 30 36 44 49 56 50 43

GFSWCAN_500_spd_024.txt.gz
Wind_Speed
35 35 36 32 32 28 28 30 31 26 24 21 22 24 27 28 28 28 27 25 25 23 26 24 25 29 30 33 28 23 19 19 17 17 19 21 20 20 19 17 17 14 13 13 14 13 12 10 8 9 7 7 7 8
37 37 35 31 32 31 33 31 30 30 28 24 27 30 31 33 35 35 34 33 31 32 31 34 32 31 34 34 35 32 25 24 22 21 21 23 22 21 20 18 16 14 15 15 16 15 11 11 10 9 7 5 6 7
34 34 33 30 29 29 25 21 24 29 27 25 29 33 35 35 38 40 40 41 41 40 40 43 42 39 36 39 37 33 29 26 25 23 24 22 21 22 22 20 17 17 17 15 19 18 14 14 13 11 9 8 9 10
30 29 27 25 25 26 28 24 23 24 22 28 31 33 33 37 41 44 46 51 52 53 52 54 51 47 46 48 42 35 31 27 26 27 24 22 21 20 20 19 18 21 20 19 20 21 18 16 14 13 10 11 11 12
28 27 27 27 25 23 23 21 19 19 23 28 32 34 38 39 43 49 54 60 66 64 55 47 47 52 54 49 43 35 29 27 28 27 23 21 20 19 20 18 24 23 21 20 19 26 21 18 17 17 17 16 14 13
23 24 20 20 17 16 14 15 16 19 23 28 31 34 37 40 47 54 60 58 43 27 19 18 20 38 38 41 37 28 26 27 26 25 22 19 21 21 19 19 26 24 22 21 20 23 18 20 20 19 18 16 14 15
18 16 14 13 13 14 11 10 14 18 23 27 29 32 35 41 47 48 36 14 15 32 38 27 27 32 32 36 29 25 22 24 24 22 21 21 21 20 20 22 24 24 22 20 21 23 22 26 23 20 19 17 15 15
20 16 14 12 8 8 13 13 16 20 23 25 29 30 32 37 32 17 35 40 30 24 24 30 28 26 32 28 28 25 21 20 20 21 22 22 21 20 20 21 23 25 21 18 20 21 24 24 22 20 19 15 15 14
25 23 20 17 14 11 10 13 15 23 22 23 25 25 28 16 21 33 21 18 22 31 31 23 27 27 28 25 23 21 19 16 16 19 22 20 19 20 21 21 21 22 23 21 21 21 26 27 25 22 19 16 16 13
32 27 28 27 23 17 14 13 17 23 20 18 19 18 9 10 13 15 12 15 19 24 25 23 20 25 22 18 18 19 19 20 16 18 21 20 19 19 21 21 21 22 22 21 22 23 25 26 22 20 19 18 17 16
39 33 30 33 30 28 23 22 20 20 18 14 12 7 7 11 12 15 12 10 13 15 14 17 19 18 15 12 14 14 19 21 18 15 18 17 17 17 17 19 19 20 20 18 19 20 21 20 20 18 18 19 19 18
37 32 30 31 29 28 26 26 24 21 18 13 12 6 19 16 11 11 9 7 6 7 11 14 15 15 15 15 10 7 8 12 14 15 17 16 16 15 15 11 16 18 19 17 18 17 18 19 19 21 23 24 21 20
38 31 30 30 29 27 29 28 26 23 17 15 17 11 18 25 17 15 11 10 9 8 6 9 12 11 13 11 6 5 4 6 10 13 15 15 16 16 15 12 8 13 18 17 15 15 17 16 17 17 17 19 19 19
20 22 26 28 29 29 28 29 26 20 17 16 18 18 21 26 25 18 17 13 13 11 9 9 10 11 12 11 9 8 7 8 10 10 11 13 13 14 14 13 10 5 10 15 15 17 18 15 20 21 19 19 19 17
19 17 21 24 25 27 27 26 25 23 21 19 19 23 19 26 28 26 23 19 16 15 14 13 12 13 13 13 11 10 8 8 7 6 6 6 8 9 10 11 11 9 4 15 11 15 12 9 13 14 12 13 17 17
20 19 19 19 23 27 25 24 24 25 22 23 22 19 21 27 31 34 28 25 22 19 18 17 16 15 16 17 15 14 12 11 9 6 4 3 3 5 8 10 12 13 9 6 10 14 14 12 13 12 14 17 19 22
19 19 19 19 21 24 24 20 21 22 22 23 24 22 27 26 31 30 35 31 28 25 24 22 20 19 19 17 15 15 13 16 16 15 15 14 12 9 8 9 11 13 15 14 11 10 9 10 14 15 20 19 16 15
26 22 22 20 21 22 23 23 20 18 18 20 25 24 25 27 26 33 34 31 31 30 28 26 24 23 22 21 19 21 23 24 23 24 23 22 21 19 17 16 16 16 16 16 16 16 15 14 13 13 15 18 20 20
26 28 27 23 23 23 23 24 25 21 18 18 22 25 22 27 27 24 29 35 34 32 31 29 30 25 25 26 28 28 28 28 28 28 29 30 29 28 27 26 24 24 24 24 23 21 20 20 20 20 20 19 18 18
27 29 32 30 27 25 26 25 26 24 20 20 21 25 26 25 29 28 25 25 28 30 30 29 26 29 32 32 33 34 33 34 37 38 39 38 37 37 37 36 35 33 32 31 30 29 28 27 25 23 23 24 24 24
30 30 31 29 29 27 27 24 23 24 22 20 21 24 26 27 26 27 31 29 26 21 21 21 23 21 19 18 19 18 16 20 22 26 28 31 32 36 40 44 45 43 41 39 38 37 35 34 33 32 30 28 26 25
29 29 34 33 30 29 27 24 24 22 23 22 21 22 26 27 28 26 25 30 26 26 28 27 24 22 22 22 23 23 23 23 23 23 24 26 28 29 30 29 28 31 37 41 44 45 45 44 43 40 38 37 36 33
32 32 34 34 33 32 24 22 21 22 24 24 25 23 25 27 27 25 26 24 27 29 29 26 23 22 22 23 23 23 23 24 24 25 25 25 26 27 30 33 35 37 39 40 39 38 40 41 42 44 47 46 43 41
35 37 37 37 37 32 21 23 21 22 23 25 24 24 25 25 26 27 24 22 27 28 28 24 23 24 24 23 24 24 25 26 26 26 27 28 29 31 32 34 35 37 38 40 42 43 44 46 46 44 43 42 46 50
40 41 44 44 38 28 22 21 20 23 22 23 25 24 24 26 26 25 23 21 23 23 23 23 23 23 24 25 26 27 27 27 29 30 32 31 32 34 37 38 39 41 41 41 42 43 44 44 45 45 45 47 47 46
48 48 46 40 33 25 24 20 21 22 21 23 25 25 24 24 24 21 20 21 22 22 23 24 25 25 26 27 27 27 28 30 31 32 34 36 37 38 39 40 42 44 45 44 46 47 49 48 47 46 46 47 47 49
52 51 43 35 28 24 22 22 21 20 20 23 24 24 23 23 21 20 21 21 22 23 24 25 26 26 26 27 27 28 30 32 34 35 37 39 42 43 44 44 45 47 48 48 48 48 49 50 51 50 50 50 50 50
58 48 39 32 27 25 24 22 21 21 22 22 21 21 22 20 19 21 21 21 22 24 25 24 24 25 26 26 29 31 32 33 35 37 40 43 45 48 49 48 49 51 51 51 52 51 49 49 49 51 52 54 55 55
42 37 35 32 27 23 23 21 21 23 22 21 20 21 20 20 21 21 21 22 22 22 20 21 23 24 26 29 31 32 33 35 38 41 43 44 46 50 51 51 52 54 56 56 54 54 53 53 52 51 51 52 53 56
37 35 33 29 22 21 22 21 22 23 24 23 22 21 19 20 21 21 20 19 19 19 21 22 24 27 29 30 32 34 37 41 43 44 44 46 48 52 55 57 57 56 54 51 49 49 49 50 49 48 47 47 49 49
38 34 29 25 23 20 19 22 25 27 25 22 20 19 19 20 20 19 18 18 18 20 22 24 26 27 29 32 35 38 42 44 45 47 48 51 54 57 57 55 50 47 44 44 44 45 42 42 42 42 43 44 44 44
33 30 26 23 19 18 19 22 25 25 23 20 19 19 19 18 18 19 20 19 20 22 23 24 27 29 33 35 38 39 41 44 47 49 52 55 55 51 46 45 44 44 39 34 33 31 28 28 30 33 37 38 37 37
26 24 22 19 19 20 21 23 24 22 20 19 19 17 17 18 18 19 21 19 20 21 23 26 29 32 34 36 38 40 42 44 46 50 52 48 42 40 44 41 31 25 21 18 16 17 20 22 25 27 29 30 31 34

GFSWCAN_500_spd_027.txt.gz
Wind_Speed
41 39 37 34 34 31 31 30 30 34 29 28 28 27 25 23 24 27 28 27 25 25 29 31 30 28 29 33 31 29 26 20 21 21 21 24 26 24 24 25 24 23 20 18 17 16 17 14 14 16 15 13 11 8
39 36 36 36 34 31 29 28 31 31 33 30 30 27 25 25 28 30 31 33 34 32 32 36 37 36 34 36 36 35 32 28 24 23 21 23 23 25 23 24 25 22 21 19 19 20 18 15 16 14 15 13 11 9
37 38 35 31 29 29 28 26 28 24 21 23 28 28 26 28 30 34 34 39 40 41 38 40 44 46 43 40 40 39 36 36 34 26 24 23 24 24 23 24 25 24 23 19 21 22 21 17 17 15 14 14 13 13
30 32 32 29 30 29 26 23 24 24 22 23 26 25 27 30 32 35 39 43 45 49 51 52 57 57 53 51 44 41 41 39 38 31 26 26 25 26 24 26 26 26 24 23 20 24 23 22 19 17 17 17 16 17
32 35 31 29 26 25 25 25 22 21 18 17 18 21 25 28 31 34 40 48 54 57 62 63 68 64 62 57 51 48 43 41 39 33 29 28 27 27 26 24 26 29 26 23 21 24 23 22 19 18 20 20 20 20
33 34 25 22 22 20 18 16 14 11 9 12 15 19 23 25 30 35 40 40 34 25 24 22 24 33 47 52 52 46 40 38 36 32 30 28 29 28 26 21 26 27 26 25 23 25 25 24 26 26 23 23 23 20
31 30 21 19 18 16 11 6 3 6 10 11 15 19 19 24 27 25 22 19 24 26 23 15 5 14 28 40 38 34 38 35 32 30 27 25 26 26 23 22 25 23 24 25 24 24 27 27 29 30 27 25 23 20
32 29 23 20 18 16 9 8 5 7 9 15 18 15 17 18 15 6 10 14 18 19 22 29 33 39 49 40 36 33 29 29 27 25 24 25 26 24 21 21 22 24 25 24 23 23 28 29 30 31 29 27 25 21
31 28 22 19 19 18 16 14 13 11 9 12 14 12 11 2 5 6 11 7 10 11 11 10 26 29 32 29 31 28 27 23 21 20 22 23 23 20 22 22 23 23 23 25 25 22 26 28 30 30 30 29 26 21
30 28 25 29 26 20 20 21 20 17 13 14 11 10 1 11 10 5 7 4 5 10 17 16 18 20 24 24 25 24 21 19 19 17 18 20 21 21 22 21 21 21 22 23 23 23 24 27 28 27 29 29 26 23
31 33 28 27 27 26 24 21 19 22 21 16 12 8 8 9 10 6 3 7 6 6 9 11 14 15 17 18 18 17 17 20 19 15 15 16 17 21 21 20 19 20 21 22 24 23 24 26 25 24 24 24 24 23
28 27 26 26 25 24 26 24 24 25 22 16 11 12 13 13 14 11 7 3 0 2 8 10 12 13 15 12 17 16 14 17 22 19 18 13 15 19 19 18 17 18 20 21 21 21 20 21 19 18 20 22 22 22
22 28 28 29 28 26 26 26 25 28 23 16 13 13 15 19 21 16 14 11 8 6 5 11 13 14 16 13 11 10 10 12 15 18 17 15 19 19 19 17 14 14 16 17 18 21 20 19 19 20 22 23 23 24
12 12 16 19 27 30 28 29 29 28 23 20 17 16 17 24 29 23 19 17 15 12 10 10 12 13 14 15 12 7 8 7 6 7 10 15 17 18 18 17 14 12 11 11 15 16 17 17 17 21 21 23 25 23
14 13 14 13 15 17 21 25 23 23 22 21 21 21 19 22 26 30 25 22 19 17 15 13 13 14 16 15 13 11 10 7 5 5 5 7 9 11 13 12 11 11 8 8 9 13 15 16 22 24 17 16 16 19
15 15 16 15 16 18 19 19 22 24 23 23 25 25 24 23 27 34 36 28 25 21 20 18 18 17 17 16 14 13 10 9 9 8 6 5 4 4 4 5 6 8 9 7 5 8 13 14 15 14 13 16 15 17
29 27 22 21 19 18 18 18 18 20 20 22 23 26 27 28 28 32 39 37 31 28 24 22 21 21 20 19 16 14 13 18 16 14 13 12 12 11 9 7 6 6 7 9 9 8 9 9 11 16 14 13 13 17
37 31 26 24 23 20 19 20 20 18 22 19 21 22 26 30 27 29 33 38 37 35 32 28 25 24 22 20 19 20 20 20 20 20 21 21 21 20 19 17 16 15 14 13 13 14 14 13 12 12 14 18 18 19
38 35 29 26 24 25 24 21 23 21 21 23 20 19 22 27 29 27 29 33 36 35 36 36 36 27 23 23 25 25 25 25 26 27 28 28 29 28 28 26 26 26 24 23 23 22 20 19 19 18 17 15 15 17
40 39 32 26 25 26 25 23 24 23 20 21 24 22 20 24 27 29 30 30 30 36 39 34 27 28 33 34 32 31 31 31 32 34 34 35 35 35 34 34 35 35 35 34 33 31 31 29 27 25 24 23 21 19
35 38 32 27 28 27 27 25 26 25 22 21 23 24 19 21 26 27 29 31 31 22 19 23 31 39 38 36 34 34 35 35 35 34 34 35 32 32 32 34 33 33 35 37 40 41 40 38 37 35 33 31 30 29
39 40 37 33 31 31 28 26 28 25 23 22 22 25 21 20 24 26 27 29 29 29 26 26 26 23 23 24 24 25 24 24 26 26 25 25 26 26 27 28 29 29 29 28 27 27 29 35 40 41 42 41 39 37
41 42 38 37 35 35 30 27 25 25 27 23 22 25 24 21 22 25 25 25 25 27 32 34 34 27 26 27 27 26 26 27 27 27 27 27 27 27 29 30 30 29 28 28 28 29 31 33 34 35 36 37 41 44
38 37 36 40 39 36 31 29 26 25 27 26 24 22 24 23 23 23 22 21 24 28 31 31 30 31 29 30 31 30 28 28 28 28 28 28 29 30 31 32 33 33 32 32 33 33 34 35 35 37 38 39 42 43
41 40 41 41 39 36 35 35 31 27 26 26 25 21 20 24 24 24 23 24 25 26 29 28 26 29 29 30 31 30 29 29 30 31 31 31 31 32 34 35 37 37 36 35 36 36 38 39 39 40 41 42 43 44
43 46 44 43 41 36 33 30 27 24 26 24 22 20 20 22 24 24 23 24 24 28 29 27 27 29 29 28 28 29 29 29 30 31 34 34 35 36 37 38 38 39 38 38 40 41 42 44 44 43 43 44 44 45
51 48 46 44 41 36 33 34 31 27 27 23 19 20 22 22 22 21 21 22 24 26 28 28 28 28 27 27 28 29 30 31 32 33 35 36 38 39 37 37 39 42 44 45 46 46 46 47 47 47 47 47 47 47
57 54 50 46 44 39 36 35 32 29 25 20 20 20 21 20 20 21 22 23 24 25 26 26 25 25 25 26 28 28 29 31 32 33 36 38 40 40 41 42 44 46 47 47 48 48 48 48 49 49 49 49 49 48
55 50 54 52 48 45 42 34 29 27 24 22 22 20 20 20 21 21 22 23 23 23 24 24 24 25 26 25 26 28 30 32 34 37 39 41 43 45 47 48 49 50 49 50 51 52 53 53 54 54 54 52 51 49
42 44 46 48 52 47 36 32 30 28 25 23 24 24 22 21 21 21 21 22 22 22 22 23 25 25 25 26 28 30 32 35 38 39 41 43 46 48 50 52 53 53 54 56 58 60 61 60 58 57 55 53 52 52
34 38 41 41 41 38 35 34 30 28 25 24 25 24 24 22 22 21 21 21 21 20 22 23 23 23 25 27 30 33 35 37 40 42 45 47 48 50 50 51 54 57 60 61 59 58 57 55 53 51 50 49 49 48
26 28 30 34 32 30 30 30 29 27 26 26 25 24 22 21 19 20 20 19 19 20 22 22 23 25 27 30 32 34 37 40 43 45 46 47 48 49 53 56 58 57 52 49 51 48 44 41 41 43 44 46 46 44
26 32 29 26 27 28 27 27 26 25 23 23 23 23 20 19 19 19 20 17 18 19 20 22 24 26 28 30 33 36 38 42 44 45 46 48 52 55 53 49 42 41 42 43 34 28 25 23 23 23 24 25 28 30

GFSWCAN_500_spd_030.txt.gz
Wind_Speed
55 52 42 43 38 35 33 34 30 30 29 28 24 27 27 30 26 28 27 25 24 23 28 28 30 32 31 31 31 30 30 26 23 24 26 24 26 27 25 22 25 24 22 23 21 19 19 15 16 20 21 19 17 14
47 43 38 29 33 32 33 28 28 27 25 23 24 27 28 31 30 30 31 29 29 31 27 31 34 35 37 40 39 37 34 31 31 27 24 23 23 25 26 27 25 26 26 24 23 23 20 19 18 21 21 21 19 17
36 28 26 29 31 31 28 30 28 26 23 23 24 24 21 26 27 29 29 29 31 34 36 39 42 45 44 47 45 44 41 36 35 33 29 26 26 23 24 24 26 26 27 25 24 24 22 21 22 20 20 18 18 18
26 22 23 30 32 31 31 32 28 26 24 23 25 23 20 23 23 25 25 27 33 38 41 46 48 55 58 57 53 47 47 42 36 37 35 31 26 24 22 22 22 25 26 26 24 25 22 22 23 20 19 20 18 19
30 28 28 32 33 32 30 30 27 25 23 22 18 14 12 13 16 18 24 29 34 35 36 38 49 55 58 64 68 56 51 45 39 38 37 36 33 28 24 22 19 24 26 26 23 25 25 24 25 26 23 24 22 21
23 26 26 29 28 28 23 21 20 19 13 8 6 7 10 13 13 17 22 24 22 25 33 43 49 40 35 37 57 68 52 40 41 37 38 34 34 33 27 21 22 23 24 27 25 25 26 27 25 27 26 26 24 24
24 19 28 27 26 23 18 17 11 6 4 3 4 6 7 8 11 13 18 15 17 25 32 41 28 18 10 19 42 55 50 42 28 28 33 33 32 33 31 24 23 23 23 25 25 25 26 28 29 28 29 31 29 26
29 28 29 24 18 19 14 11 11 11 8 8 6 8 7 7 8 7 9 10 19 21 23 33 32 31 26 19 34 38 29 38 26 23 23 27 31 30 27 20 21 21 22 23 24 24 25 28 31 31 30 31 32 31
26 22 25 23 21 21 18 15 14 14 11 10 8 7 6 6 3 2 8 8 16 15 17 16 19 18 24 31 29 17 33 28 32 27 25 26 27 25 19 21 19 21 22 21 23 25 23 26 31 33 31 31 31 32
27 23 29 25 23 23 24 19 15 15 12 8 8 6 6 9 6 1 3 6 5 6 9 11 14 18 18 16 25 29 29 26 25 24 23 21 17 16 18 21 20 22 24 23 22 25 22 25 27 30 31 30 30 29
20 21 23 23 21 22 22 19 18 17 15 13 11 8 7 13 13 11 5 3 4 2 2 3 6 9 13 16 17 20 18 18 19 22 17 13 10 17 21 22 20 21 21 21 21 23 23 24 25 26 28 27 27 27
12 17 20 19 22 23 23 21 20 21 20 16 14 11 10 19 16 17 13 5 2 3 4 2 5 8 10 12 13 14 15 14 15 17 18 9 9 14 16 18 19 18 20 20 20 21 21 22 23 22 21 22 22 23
9 11 10 14 20 23 24 25 25 22 20 18 17 14 13 22 20 21 17 11 8 6 5 8 9 10 7 10 11 14 12 11 14 16 16 16 18 16 15 17 18 18 20 19 19 15 16 17 18 19 18 17 19 21
11 11 12 12 12 13 14 19 25 26 25 21 20 18 18 20 26 25 24 16 15 14 11 11 9 14 13 14 10 12 11 10 6 5 10 13 13 15 17 18 19 19 19 14 12 10 9 11 15 18 20 19 20 23
19 17 14 13 15 17 17 16 16 15 16 19 18 18 20 22 24 26 31 28 23 20 19 16 15 16 16 15 15 14 8 7 6 8 7 7 10 13 15 17 16 14 13 10 6 12 11 12 17 19 21 23 21 23
32 28 22 20 21 20 20 18 17 16 17 15 16 18 21 24 24 24 25 34 29 26 23 22 20 19 19 19 17 17 12 10 11 10 8 7 6 5 5 6 7 8 8 5 7 7 12 14 14 15 17 19 20 20
33 32 32 30 28 25 22 21 18 17 18 17 18 19 21 22 24 25 26 28 36 32 29 27 26 23 22 20 18 17 14 18 17 16 13 12 10 8 7 7 7 7 6 6 5 5 5 10 9 11 16 13 16 18
32 34 33 33 31 27 25 24 21 20 20 21 21 22 21 21 23 25 25 27 33 41 34 32 29 26 24 20 19 20 21 21 21 19 19 19 19 19 18 17 16 16 15 15 14 14 13 14 15 16 12 11 16 17
30 34 37 37 36 31 29 25 22 18 21 23 23 21 24 22 21 23 25 28 30 36 44 41 38 29 25 25 27 26 25 25 23 22 23 23 24 24 24 25 26 25 24 23 22 22 22 22 21 21 20 20 21 17
41 33 35 37 38 40 34 29 23 20 20 24 25 24 22 24 25 22 23 26 28 32 39 39 33 30 34 34 34 32 30 28 27 28 28 30 31 31 31 32 32 32 32 32 33 33 33 33 32 31 29 28 26 24
39 36 35 39 36 38 36 31 25 21 21 24 26 26 25 24 25 24 23 25 27 27 27 25 30 37 39 38 36 35 33 33 33 33 34 34 34 35 34 34 35 34 33 34 33 31 31 31 32 35 37 38 36 33
41 43 43 40 40 35 36 33 28 23 20 24 28 28 27 26 25 26 24 23 22 22 27 29 30 34 34 36 36 34 35 36 36 36 35 34 30 27 25 24 26 27 27 28 28 31 31 31 31 29 27 28 32 37
37 40 39 39 41 39 34 32 32 24 24 24 26 28 28 27 25 25 24 21 21 24 27 31 33 30 27 24 24 25 26 26 27 29 30 30 30 29 29 29 28 28 28 29 30 31 32 33 32 31 32 32 33 33
38 38 36 38 37 35 34 32 32 27 25 27 32 34 30 27 27 24 23 20 21 23 26 26 25 26 29 31 30 30 28 27 29 29 29 28 28 28 30 31 32 32 31 33 34 36 37 35 34 35 35 35 34 34
43 40 37 35 35 34 30 31 33 30 29 30 34 34 30 28 26 22 21 21 19 22 24 25 24 26 27 28 30 32 32 33 31 30 31 32 33 33 34 34 35 35 35 37 39 40 40 40 38 37 36 36 36 37
44 42 38 35 32 33 35 32 30 28 27 28 29 30 28 28 25 24 18 21 19 21 23 25 26 25 25 27 30 33 32 32 34 34 34 34 35 35 35 36 37 39 39 40 41 42 41 40 39 38 39 40 41 41
44 41 39 39 42 39 38 39 36 33 31 32 31 29 27 26 24 23 20 19 20 22 24 26 28 28 28 29 30 31 32 31 32 32 33 34 35 35 36 38 40 42 42 43 42 42 42 43 44 45 45 45 45 45
43 43 43 43 45 45 46 44 40 39 37 33 30 28 29 26 24 22 20 20 21 23 25 26 26 26 27 28 29 30 31 31 31 31 33 35 37 38 39 40 42 43 44 46 46 47 49 50 51 52 52 52 51 49
44 45 48 53 55 55 52 45 44 41 37 34 31 29 28 26 24 22 20 20 22 23 25 26 26 26 27 27 27 28 28 28 30 32 33 35 37 39 41 43 44 46 47 50 54 55 56 57 57 56 56 55 55 54
57 59 61 60 60 58 54 52 44 43 40 36 33 29 28 26 25 21 19 20 21 23 23 23 25 26 26 26 26 26 27 29 30 32 34 38 41 43 45 47 49 53 56 56 56 57 58 57 56 56 57 57 56 56
41 40 41 42 41 39 38 40 41 43 40 34 35 31 29 26 25 23 21 21 21 21 22 23 23 24 24 24 24 26 28 30 32 36 38 40 43 46 49 51 56 58 58 58 58 59 60 60 59 58 58 58 58 57
22 26 32 32 30 30 32 34 36 36 38 32 31 30 27 24 23 22 20 21 21 21 21 22 22 22 22 23 25 27 30 33 36 37 40 43 46 51 55 56 57 57 58 60 60 56 52 51 50 51 54 51 46 43
21 15 11 9 16 24 28 28 30 30 30 29 28 26 23 23 20 19 21 21 18 18 19 20 19 20 22 24 26 29 31 34 36 39 44 50 52 52 53 55 58 57 52 46 42 43 41 45 40 32 28 28 28 28

GFSWCAN_500_spd_033.txt.gz
Wind_Speed
35 39 45 43 30 27 27 27 28 29 26 26 23 23 23 23 21 22 33 30 28 26 26 26 27 29 28 27 28 27 28 26 24 24 25 26 25 24 22 21 22 23 23 21 21 18 17 16 15 17 19 20 21 21
38 38 34 31 23 24 26 28 28 27 27 25 23 21 20 21 24 27 30 33 30 27 26 30 30 31 31 32 33 33 35 33 32 30 26 24 26 29 26 23 24 23 25 24 22 21 19 19 18 20 21 23 23 23
42 36 34 26 26 24 28 32 29 28 27 25 21 20 20 21 23 27 29 31 29 27 27 31 32 33 36 40 42 41 40 42 41 36 33 31 27 24 26 25 24 23 25 23 25 24 21 19 20 21 20 22 24 25
49 32 30 32 29 29 30 32 29 29 27 23 20 21 19 20 19 17 19 22 25 25 25 31 31 33 37 40 45 50 51 49 47 44 39 34 31 27 25 24 22 22 23 22 24 24 23 22 23 24 24 23 25 24
49 34 26 28 30 30 28 25 26 26 25 21 18 17 14 13 13 13 15 15 15 20 20 25 34 40 47 54 58 56 53 57 52 49 44 37 34 31 28 22 17 19 19 21 20 22 24 26 25 22 24 25 25 25
52 35 29 26 27 26 22 21 19 18 18 16 11 9 8 9 9 10 9 11 12 15 19 25 24 37 43 44 47 46 56 59 56 51 45 37 33 32 31 26 21 18 16 18 18 21 23 25 27 23 22 26 28 28
55 34 29 28 27 31 21 16 17 14 15 12 8 8 8 10 8 6 6 3 7 11 14 21 26 42 38 24 22 28 41 53 43 46 41 33 32 32 29 23 23 23 20 16 18 19 21 23 25 26 25 24 26 29
51 37 29 33 34 30 25 18 17 14 13 10 9 10 11 7 6 5 3 5 8 8 15 19 26 32 45 24 7 14 35 49 40 28 30 29 28 27 24 19 22 24 22 20 19 21 21 21 24 28 28 28 27 28
44 32 24 26 21 21 22 19 18 13 12 10 9 10 11 5 7 3 2 5 4 6 14 20 21 24 29 39 32 32 37 37 27 20 21 18 18 18 16 19 22 21 20 20 19 19 19 20 24 27 29 30 29 28
40 32 24 21 22 23 24 21 17 19 15 13 10 10 10 8 8 6 1 4 4 4 8 14 15 13 17 16 17 19 16 10 17 17 14 12 12 13 15 18 21 22 23 22 22 22 21 22 23 25 26 29 31 30
37 32 31 26 26 23 16 15 14 14 15 14 13 13 12 12 15 12 5 4 4 4 4 5 8 8 7 5 7 16 11 11 16 10 12 13 8 14 17 19 20 21 22 23 23 21 21 22 23 25 25 26 27 28
29 25 25 25 20 23 21 17 17 16 16 16 15 12 12 15 17 18 13 11 9 6 4 2 2 1 2 5 8 9 8 10 10 12 12 8 12 15 16 17 20 20 20 21 20 19 18 21 24 24 24 24 25 26
28 24 22 20 19 16 15 16 19 21 21 19 16 15 14 14 19 24 18 18 16 11 8 6 5 7 5 6 6 8 10 8 7 10 11 12 17 16 14 14 15 15 15 16 18 17 17 18 20 20 21 20 21 23
26 23 21 21 22 22 19 16 13 13 16 17 17 15 15 16 16 24 26 23 20 17 14 10 9 10 11 9 7 8 14 12 8 9 13 14 13 15 17 18 15 15 17 18 17 16 11 9 14 18 17 17 19 20
23 23 22 27 27 27 24 21 15 15 14 13 12 13 13 15 17 18 20 27 26 20 18 17 15 13 15 14 14 12 9 10 9 11 9 8 9 10 12 14 15 16 15 12 12 11 13 11 12 13 18 19 19 21
26 29 29 27 27 27 29 30 24 17 18 16 14 14 15 16 18 17 20 21 22 30 27 23 22 20 20 21 20 17 16 14 12 12 10 10 9 7 7 9 9 8 9 9 9 13 12 11 11 14 15 18 21 22
27 28 27 28 30 30 30 30 29 23 19 21 20 17 17 18 20 21 20 21 23 22 28 32 28 27 25 24 20 19 18 18 19 17 14 12 10 8 6 4 2 2 3 5 4 3 2 3 5 3 4 12 16 15
31 35 32 27 27 32 32 33 31 26 19 21 22 20 20 19 19 20 19 21 22 24 25 35 35 32 30 26 24 23 23 23 22 21 19 18 17 17 16 15 14 13 12 12 12 12 13 13 13 12 12 13 14 12
34 36 35 34 35 34 34 34 32 30 22 21 23 22 20 21 21 20 20 18 21 25 26 28 36 36 30 28 28 27 25 23 24 24 22 20 20 21 22 21 21 21 21 21 22 22 22 21 21 21 21 21 20 19
38 36 39 37 34 34 35 35 38 32 28 23 22 24 24 21 22 23 23 23 22 22 27 29 26 30 39 35 35 33 31 28 27 26 26 26 26 26 27 27 28 28 29 30 30 31 30 31 32 32 32 31 31 30
46 43 42 39 36 36 33 35 33 32 29 26 21 23 23 21 22 24 24 24 22 21 23 26 25 30 35 46 46 41 37 33 31 30 30 30 31 31 31 32 33 33 32 32 32 31 31 31 30 26 23 23 23 24
47 47 48 47 36 35 33 36 36 36 31 27 25 26 27 20 21 24 24 23 24 24 23 25 26 30 31 39 42 41 37 37 39 39 38 37 36 35 33 34 33 28 24 22 23 24 24 25 25 27 28 29 29 29
48 48 46 41 36 33 32 33 32 33 31 30 28 30 32 27 25 26 25 23 24 24 22 22 28 29 29 29 32 32 32 36 38 38 37 37 36 34 30 26 24 25 26 27 27 27 28 27 27 28 28 30 31 32
44 42 39 35 33 31 26 28 29 28 24 27 29 31 30 29 28 26 24 23 22 21 21 21 25 28 26 28 29 28 27 26 25 27 29 27 27 27 27 28 28 28 29 29 28 29 31 32 32 32 33 34 34 36
46 41 39 34 29 30 28 30 28 26 24 24 29 31 31 31 30 27 22 19 19 18 20 20 21 24 25 26 29 30 31 32 32 31 30 30 29 29 29 30 30 31 31 32 34 35 35 36 36 37 39 40 40 41
37 41 39 31 28 29 28 31 32 26 25 28 28 30 31 33 29 27 23 18 20 18 19 19 19 20 22 24 25 27 28 29 30 32 33 32 32 33 34 35 35 36 34 35 37 38 38 39 40 41 42 43 42 41
40 37 33 32 29 30 31 33 34 33 33 31 29 30 29 30 28 29 27 21 20 19 20 20 19 19 20 22 23 23 25 27 28 30 31 32 33 34 35 35 35 36 37 38 39 40 41 43 43 43 43 44 44 43
30 30 31 33 36 37 38 39 39 39 38 36 33 34 35 32 29 29 29 22 21 20 21 21 21 20 21 22 22 24 25 25 25 27 30 32 33 34 34 35 36 37 38 39 41 42 45 47 47 47 47 48 50 52
31 31 32 32 35 38 40 41 42 43 43 43 40 37 38 38 32 32 30 24 22 21 20 20 20 22 23 23 23 24 24 25 26 28 30 32 33 33 33 36 38 39 39 42 45 47 49 50 51 52 54 57 59 58
30 33 38 40 42 42 44 50 51 52 54 52 52 47 42 39 34 31 29 25 23 21 20 19 19 21 22 22 23 24 25 25 27 29 30 30 30 33 35 37 39 42 44 46 49 52 54 55 59 63 64 62 58 55
41 42 43 47 51 54 58 61 63 65 67 63 50 43 42 41 36 31 29 25 24 22 20 19 19 21 22 23 23 23 24 25 26 26 27 29 32 34 37 41 43 46 48 53 57 61 63 63 62 60 59 58 57 56
36 36 34 36 40 43 47 44 40 40 37 33 32 36 38 39 34 29 25 25 24 22 20 20 20 20 20 20 21 22 23 22 24 27 29 32 35 38 40 43 48 54 59 60 59 59 60 60 60 58 55 51 50 50
28 27 27 31 29 26 23 24 25 23 22 23 27 32 33 30 24 22 22 25 21 18 18 18 18 18 18 19 19 20 21 24 26 29 32 34 37 41 47 52 55 54 55 55 51 51 54 51 45 40 38 40 41 37

GFSWCAN_500_spd_036.txt.gz
Wind_Speed
45 50 52 42 38 39 47 45 27 26 33 28 24 22 20 22 21 25 23 24 28 31 32 30 27 26 27 26 26 25 26 26 24 26 25 27 27 25 21 19 20 26 26 25 24 22 20 17 16 15 15 16 18 18
46 53 53 35 36 36 43 39 32 29 32 31 26 21 19 17 21 23 25 25 25 30 32 30 30 25 24 27 29 31 31 30 32 32 30 28 27 31 29 25 23 22 23 24 24 25 24 21 18 16 17 18 20 21
49 53 54 42 32 35 39 36 33 27 26 28 28 21 19 16 18 23 24 24 25 26 30 32 30 29 29 31 33 34 35 37 38 36 35 34 33 29 28 29 28 25 23 22 23 26 26 24 22 20 20 20 23 24
51 51 50 47 34 30 31 29 27 24 25 25 26 23 18 17 16 18 18 18 18 18 21 24 25 25 26 29 33 37 42 47 46 46 44 41 38 34 32 27 28 25 24 21 22 24 25 26 24 24 22 22 23 24
50 48 54 49 32 27 24 22 22 21 24 23 23 21 17 14 13 11 12 12 13 13 13 15 17 20 24 29 37 44 50 55 55 52 52 50 44 39 34 33 25 22 20 18 20 24 23 26 26 24 22 22 23 25
52 49 53 50 30 24 22 22 22 22 21 21 20 16 11 8 8 7 8 3 2 2 5 8 14 19 24 31 39 47 55 64 65 62 51 50 47 44 37 34 27 23 18 17 17 20 22 23 25 24 23 23 24 27
52 51 52 55 27 23 24 21 24 24 20 22 19 14 12 11 10 6 5 7 4 3 3 8 14 18 24 38 50 44 38 36 47 55 53 38 33 39 38 30 29 28 22 16 14 17 19 21 22 23 22 24 24 24
51 47 51 55 30 22 15 16 20 23 21 21 18 15 12 14 10 9 6 5 4 5 4 10 15 17 24 38 37 19 12 19 28 43 52 34 22 30 32 27 28 26 24 22 21 19 18 21 22 23 24 24 23 23
49 45 54 50 29 23 19 21 24 25 22 23 19 17 12 14 10 9 5 5 3 2 4 8 14 13 22 30 38 38 32 22 22 36 36 42 27 24 17 21 24 22 21 21 22 22 22 22 24 24 25 25 26 25
48 44 47 48 40 32 23 20 19 20 21 23 24 19 14 12 12 11 7 5 3 3 5 6 10 11 17 20 23 22 26 20 19 25 25 24 21 18 18 20 21 22 21 21 20 20 22 23 23 25 25 26 25 26
42 43 41 44 42 31 29 26 21 21 19 20 22 23 17 11 12 14 9 6 4 4 6 4 6 7 7 9 9 15 15 6 7 7 12 13 11 13 15 18 19 19 19 20 20 21 22 24 25 28 28 27 26 24
40 44 35 36 39 30 25 23 23 20 20 21 21 23 21 16 10 20 16 12 11 8 6 6 3 3 3 2 3 2 2 3 8 7 3 9 11 12 13 13 13 15 18 21 21 21 21 22 24 25 26 25 26 25
40 37 35 27 33 32 28 26 23 21 20 18 19 20 20 19 12 11 22 20 18 15 11 8 7 6 4 3 6 7 5 2 3 2 5 10 12 12 11 11 12 14 17 19 19 19 18 19 22 23 24 24 25 25
32 26 25 26 26 28 26 31 26 19 18 17 17 15 14 15 14 10 10 22 24 21 19 13 11 12 10 10 9 9 7 8 9 7 11 13 12 13 15 18 18 16 15 16 15 16 16 15 16 17 17 20 23 24
28 21 20 24 22 22 27 27 30 28 23 19 17 17 16 15 12 13 14 15 18 27 23 19 16 15 15 13 14 12 9 8 7 9 10 9 9 11 13 13 14 16 15 15 17 15 15 14 17 14 14 16 19 19
29 23 22 24 25 23 23 26 27 28 27 26 22 21 19 18 17 17 16 16 18 20 26 30 25 20 18 19 18 17 14 12 12 11 11 11 10 9 9 10 12 13 14 13 10 14 16 18 14 13 15 16 17 19
32 36 27 27 29 25 24 27 32 24 31 26 26 24 23 19 18 15 18 18 18 19 21 23 28 31 26 24 24 22 19 19 20 19 17 14 13 11 9 7 7 8 9 9 9 9 9 10 7 4 4 4 6 8
29 31 29 29 33 33 28 23 27 30 30 32 28 27 26 22 18 18 17 17 18 17 19 21 25 28 34 30 27 25 24 23 23 22 21 18 17 16 14 13 11 10 9 10 10 10 11 10 11 13 13 12 11 11
35 34 35 36 40 42 36 26 28 33 30 32 33 28 28 28 24 20 19 18 18 19 17 18 23 24 29 34 33 33 31 28 27 24 23 23 22 21 20 20 20 20 19 19 18 19 19 20 21 22 22 22 21 21
44 38 37 38 41 44 37 36 31 33 30 27 30 29 28 29 28 23 20 21 19 20 22 21 20 24 30 32 39 38 38 35 31 29 26 24 23 22 22 22 23 23 23 24 25 26 28 30 32 33 32 32 31 31
48 47 48 43 45 38 38 40 35 34 30 29 32 29 27 27 29 22 16 19 21 23 21 22 22 22 28 31 31 41 44 39 35 31 30 29 29 28 27 27 27 27 28 30 32 32 32 33 29 27 27 27 26 22
53 52 52 47 42 40 40 37 34 33 30 29 28 29 29 25 29 29 21 22 26 25 22 22 25 26 24 28 32 34 38 43 41 38 38 35 34 33 34 33 34 35 35 33 34 30 24 22 21 20 19 19 20 20
55 52 50 46 45 47 43 38 37 34 30 22 24 30 31 25 26 28 24 23 26 26 24 23 24 26 24 27 30 30 29 33 41 47 44 41 40 41 41 40 37 34 33 30 25 24 25 23 22 22 22 22 23 23
58 55 53 49 48 49 48 43 31 29 29 26 25 29 29 27 24 26 26 25 25 26 24 22 21 22 23 25 28 26 27 27 32 38 42 43 42 40 38 37 37 35 29 27 27 27 27 27 26 27 27 28 28 30
52 50 51 49 49 44 33 31 30 30 31 29 26 28 29 28 25 23 25 26 26 27 24 20 18 18 19 20 22 23 24 29 29 30 31 31 28 27 27 27 27 27 27 29 29 29 29 29 30 32 33 33 33 33
44 40 39 37 35 32 32 33 30 33 32 29 27 29 29 27 25 26 28 27 26 26 24 20 17 17 17 19 19 20 22 25 29 32 32 32 31 31 32 32 32 32 31 33 34 34 34 35 35 35 37 37 37 38
35 34 32 32 31 29 28 33 33 34 34 32 30 31 33 31 24 27 30 28 26 24 24 22 19 17 17 18 18 19 21 23 25 27 28 30 31 32 32 33 33 34 35 34 34 35 36 37 38 39 39 40 40 40
27 21 23 25 28 29 31 34 35 34 34 35 37 38 37 31 27 28 29 31 28 25 23 22 21 19 19 19 20 20 21 22 23 24 25 26 26 27 28 29 31 32 33 34 36 38 39 39 40 41 42 42 44 46
26 32 29 27 29 32 34 35 36 38 40 42 42 40 39 37 33 32 31 32 33 30 27 24 22 20 20 21 21 21 20 21 21 22 23 25 27 27 28 30 31 32 34 36 37 38 39 41 42 44 45 47 49 52
21 23 27 30 32 31 31 37 35 37 39 40 41 41 40 38 38 36 33 34 37 35 31 25 22 21 20 21 22 20 20 20 22 23 24 26 28 29 30 30 32 33 34 35 37 39 41 43 45 49 52 54 58 61
27 29 33 35 36 36 39 42 45 47 48 47 48 51 50 53 48 47 44 36 42 39 34 28 23 21 20 19 20 20 20 21 21 22 24 26 27 28 29 29 31 32 35 38 40 43 47 51 55 58 62 62 60 59
31 35 40 44 46 48 50 52 53 54 54 56 53 60 62 49 38 39 40 40 38 35 32 24 21 21 19 20 20 20 20 20 21 23 24 25 25 26 28 31 33 35 38 43 47 52 55 56 56 55 53 53 55 58
30 33 38 42 42 40 43 48 52 54 55 52 45 35 25 17 15 22 28 31 31 28 21 17 19 19 18 17 18 18 18 20 21 21 22 24 26 28 31 36 40 45 48 51 47 50 48 44 44 47 50 50 46 40

GFSWCAN_500_spd_039.txt.gz
Wind_Speed
41 42 42 47 51 57 62 60 57 55 51 36 29 32 28 25 26 26 23 25 25 29 35 35 36 33 30 28 27 26 29 28 25 28 27 24 27 25 22 19 20 26 26 23 22 22 21 19 18 18 15 17 17 18
39 41 41 45 53 54 59 60 54 52 39 30 27 30 28 22 23 23 22 21 26 23 30 35 34 33 31 30 30 30 29 29 31 30 31 29 26 29 31 29 24 22 23 25 27 27 26 24 22 20 19 18 17 19
38 40 41 46 55 57 49 51 53 41 26 24 24 28 26 23 20 20 20 19 21 22 21 27 31 32 31 31 29 30 30 31 31 32 33 35 34 31 31 28 29 31 27 24 23 25 27 27 26 24 22 21 20 20
40 41 45 50 55 48 48 45 49 33 23 24 22 26 27 23 17 17 16 19 22 23 23 21 24 28 30 30 32 33 35 37 38 39 39 39 39 37 36 36 30 29 29 26 25 24 25 24 25 25 24 24 23 23
38 41 46 48 51 51 44 46 43 27 22 24 22 24 24 20 16 13 10 10 11 11 11 17 18 17 16 15 19 23 28 34 40 43 46 47 46 45 42 39 38 30 25 27 26 27 25 25 25 26 27 26 25 24
38 39 43 47 53 52 48 41 29 21 23 26 21 22 22 17 15 11 8 5 7 7 4 3 1 6 11 15 19 26 40 50 56 58 58 56 54 53 52 45 38 33 34 27 23 26 25 23 25 25 27 27 26 25
34 36 41 49 51 48 45 33 21 17 19 21 19 19 21 17 13 9 5 9 7 6 6 4 1 6 10 15 21 32 37 41 52 64 71 68 59 52 53 48 41 36 35 29 23 23 23 23 23 25 24 27 26 27
33 37 40 44 47 43 48 32 25 22 23 19 18 18 20 18 10 7 9 8 6 7 8 3 3 7 10 13 24 30 39 38 25 28 36 51 56 45 41 36 35 36 35 31 27 23 20 18 20 23 23 24 26 26
31 34 38 44 43 43 40 40 27 22 21 18 16 17 17 18 13 12 9 8 8 10 8 3 3 6 8 11 18 25 32 37 20 4 16 36 33 34 23 24 28 34 32 31 30 28 27 25 23 23 24 25 26 26
31 35 38 41 42 41 41 46 32 28 24 24 18 16 17 15 14 13 11 10 9 10 9 7 7 7 8 12 13 20 26 29 22 22 44 28 34 24 21 25 25 29 29 29 27 28 26 25 26 27 28 27 28 28
29 34 37 39 39 35 42 37 47 28 27 27 24 21 19 20 17 13 15 14 11 10 8 8 8 6 6 8 12 15 19 21 14 18 13 11 7 9 10 19 25 27 27 25 25 24 22 23 24 26 28 30 30 29
28 33 36 38 36 30 38 40 44 39 26 24 26 24 20 19 17 15 17 18 15 13 10 8 8 9 6 5 8 11 11 12 11 2 2 5 10 14 14 18 20 19 19 20 20 20 20 21 23 24 26 28 31 32
26 32 33 34 32 28 31 39 40 40 43 27 24 22 19 13 9 9 13 19 20 18 16 12 10 10 8 5 8 9 8 5 3 0 4 7 9 9 10 12 13 13 14 16 18 19 20 21 22 23 24 24 26 29
25 29 28 27 26 27 28 33 37 37 37 40 27 23 20 18 14 13 14 17 21 24 23 21 17 13 13 13 11 10 9 8 7 6 8 9 8 7 8 11 13 13 13 13 14 15 17 18 20 20 22 22 24 25
26 28 28 22 25 27 26 26 33 33 30 36 33 30 26 24 20 20 18 17 18 20 26 26 23 20 17 15 15 15 12 11 7 5 8 9 9 10 11 12 14 15 17 16 15 15 16 18 17 16 17 20 16 16
30 32 30 28 24 25 24 20 23 28 28 27 30 29 31 30 27 22 20 20 21 19 21 23 30 28 22 20 18 17 16 15 11 9 11 10 12 11 11 10 12 13 14 13 14 17 17 16 16 20 19 21 18 18
34 36 36 33 31 28 29 25 21 24 31 30 28 32 32 32 31 27 23 21 20 20 22 21 21 25 32 30 25 21 21 21 20 17 17 17 14 13 11 10 9 11 13 15 13 11 14 14 17 18 15 6 11 12
38 40 39 36 33 33 31 29 28 29 29 29 29 27 32 33 33 29 26 22 20 20 20 23 22 22 26 31 32 30 25 23 25 25 23 22 20 16 15 12 11 9 9 11 12 13 12 11 10 11 12 13 13 14
41 42 41 38 37 38 35 31 32 33 33 31 28 28 27 30 37 31 27 27 25 24 21 20 23 23 25 29 32 35 36 34 32 30 28 25 23 23 21 20 19 19 19 18 18 18 18 18 18 19 20 22 23 23
40 42 44 43 41 44 45 40 38 38 35 34 33 31 28 30 35 31 29 26 24 24 22 20 21 27 27 28 32 33 35 38 38 35 32 29 27 25 25 24 24 23 24 24 24 24 23 24 25 26 30 32 33 33
42 45 46 49 52 51 48 45 44 43 36 30 35 35 31 32 34 31 32 32 25 26 24 22 21 22 28 29 29 32 34 35 43 40 35 35 33 30 29 28 27 26 26 26 27 27 27 28 30 33 33 34 30 29
50 52 55 56 57 55 53 50 49 45 43 40 38 33 30 31 31 31 30 30 30 30 28 26 25 25 25 29 31 29 30 35 37 39 43 39 38 38 35 34 32 32 32 31 31 31 32 35 34 37 30 24 23 22
56 58 59 58 56 56 55 53 51 51 46 38 36 31 31 30 28 29 28 27 28 29 30 27 25 26 26 26 28 30 30 31 35 37 37 40 45 42 40 40 38 37 36 36 37 38 40 36 34 30 28 27 24 23
60 59 59 60 59 59 57 56 55 47 43 42 43 41 37 33 27 29 27 26 27 26 28 28 25 24 25 25 25 28 29 29 31 33 36 38 42 44 47 45 43 42 41 41 43 41 39 37 32 31 30 29 27 26
61 60 63 64 64 63 58 51 44 42 42 39 36 34 33 32 29 27 26 26 26 26 26 28 27 24 22 23 23 23 25 26 26 28 31 35 34 35 38 43 45 45 44 43 40 35 31 30 30 30 29 30 30 30
64 62 62 58 50 46 43 39 35 34 33 32 34 33 32 33 30 26 26 27 25 26 27 28 29 25 23 21 20 20 21 23 24 25 26 29 30 29 29 30 32 34 32 29 30 30 31 32 32 33 34 35 36 36
52 48 46 44 39 32 28 27 28 30 30 32 37 34 34 35 33 28 32 31 28 28 28 28 29 26 24 23 19 19 21 23 23 23 25 27 28 30 31 32 34 35 35 33 34 35 36 36 37 38 38 38 38 38
40 35 26 23 24 26 27 28 30 32 33 34 36 36 36 36 33 35 35 34 34 32 30 29 32 28 23 24 22 21 20 22 24 25 26 27 27 28 29 29 29 31 32 33 33 34 35 36 37 38 38 39 40 41
21 14 13 19 26 29 26 27 27 27 30 34 36 36 37 38 37 38 39 40 40 38 34 31 31 34 25 25 24 23 23 23 24 24 25 26 27 27 28 28 29 30 31 33 34 35 35 36 37 38 40 41 42 43
15 20 25 26 26 29 28 34 34 34 35 37 38 39 39 38 40 44 42 41 42 40 38 35 33 37 33 26 24 24 24 23 23 24 25 25 26 26 27 27 27 29 31 32 34 35 36 38 40 41 41 43 44 46
24 26 25 26 26 27 32 37 39 42 44 45 45 46 44 44 40 38 38 37 39 40 42 38 37 42 38 28 24 24 24 25 24 24 24 24 25 26 27 28 29 30 32 34 36 37 38 39 41 43 45 48 51 54
26 25 27 29 29 33 36 35 39 43 46 48 49 50 50 50 51 44 46 53 58 54 48 50 44 40 31 23 24 25 24 23 23 23 23 24 25 25 26 28 30 31 33 34 36 38 41 45 49 52 55 57 57 57
27 29 33 32 33 35 39 46 47 46 42 39 40 42 46 49 50 36 31 38 46 46 38 30 28 30 27 26 23 22 22 22 22 22 22 22 23 24 26 28 29 31 35 40 44 48 51 52 52 52 51 50 45 44

GFSWCAN_500_spd_042.txt.gz
Wind_Speed
32 36 39 45 49 49 51 55 57 62 57 61 62 47 31 30 27 27 26 21 21 22 28 23 30 37 34 33 32 30 30 29 26 27 25 22 21 23 22 19 16 18 20 19 18 18 17 16 15 15 12 14 15 15
31 34 38 43 46 47 50 53 57 61 59 64 58 40 28 30 28 29 27 25 18 18 25 20 23 34 37 39 35 33 31 29 28 28 29 27 25 25 24 27 25 21 20 19 23 22 22 20 18 17 16 15 16 16
29 31 37 43 44 43 44 51 55 61 54 58 51 31 26 28 27 27 23 23 18 15 18 20 19 26 35 35 34 33 31 29 28 29 30 31 30 30 28 27 29 29 29 25 21 20 21 23 24 24 23 21 19 18
28 30 36 39 38 40 45 47 54 57 49 54 44 29 25 26 25 23 19 16 14 10 12 17 16 20 26 31 30 30 30 30 31 32 35 36 37 36 34 31 33 30 30 24 27 27 25 21 22 24 25 25 24 22
25 29 32 34 36 41 43 49 48 48 49 45 37 28 23 24 25 22 16 12 9 7 8 12 15 15 17 21 24 24 22 18 19 27 32 38 41 42 42 39 37 34 30 30 27 27 27 25 23 23 24 24 26 25
23 26 29 29 32 38 44 47 44 46 51 39 32 27 22 20 23 18 13 10 6 6 9 10 10 6 2 1 5 8 12 17 23 27 35 47 50 51 49 46 41 37 34 34 35 26 27 24 25 24 24 26 25 26
21 23 25 29 34 38 41 45 48 42 47 43 33 25 21 17 17 13 8 5 3 3 6 5 4 3 3 3 6 12 17 23 32 40 46 45 50 62 62 50 45 42 41 38 37 31 29 22 23 26 25 26 26 26
19 21 23 27 31 36 42 45 46 50 50 41 30 25 18 17 15 9 8 8 6 5 4 4 4 5 6 5 9 13 18 26 37 42 44 44 44 56 69 56 55 41 38 38 35 32 29 24 22 24 24 25 26 27
17 18 21 24 29 35 40 42 45 47 51 46 29 25 19 17 16 13 9 7 9 9 10 9 8 6 5 7 10 11 17 23 28 35 34 21 17 24 36 33 33 35 33 37 34 33 30 27 22 21 20 20 23 26
17 16 18 23 28 33 36 39 44 44 46 47 36 24 21 18 17 15 8 10 10 10 12 13 11 9 7 8 7 8 12 15 22 25 37 30 27 27 31 28 24 25 26 30 29 32 31 29 27 27 29 29 28 27
16 15 18 22 27 32 34 37 38 41 42 46 46 29 24 20 14 12 11 10 13 13 12 12 12 12 9 8 9 9 10 9 14 20 20 21 15 16 15 19 21 23 25 29 30 30 30 29 27 28 30 30 30 30
16 14 17 21 27 29 33 36 36 39 40 44 44 42 26 23 17 11 9 9 12 13 13 13 12 11 12 9 8 9 9 9 14 11 12 8 5 2 11 19 16 20 22 25 24 25 24 23 24 27 28 28 28 28
15 14 16 20 22 25 31 33 34 36 38 41 46 42 45 32 24 23 20 16 16 17 18 16 14 12 11 12 11 12 9 9 8 9 11 7 3 1 3 8 13 13 15 15 16 17 18 21 23 23 24 25 26 25
16 16 17 17 19 21 27 29 28 32 35 38 41 43 41 45 43 28 22 24 25 21 21 23 24 20 17 14 14 15 13 11 10 11 13 10 5 2 2 3 6 9 11 12 13 14 15 17 17 18 19 21 23 25
18 19 18 20 20 22 25 26 23 26 26 32 35 33 37 38 39 37 29 23 23 24 23 22 21 25 23 20 16 14 14 15 12 10 9 10 9 10 9 9 10 12 14 15 14 13 13 14 15 17 16 16 13 12
21 19 22 23 23 24 26 26 23 23 25 27 30 27 30 34 35 34 33 31 24 24 23 22 22 19 19 25 20 15 12 13 13 17 13 7 10 12 11 10 10 11 13 13 12 12 13 15 14 13 15 16 19 20
22 23 25 26 25 27 28 26 25 22 24 28 30 31 31 33 33 35 34 34 31 23 23 20 19 21 19 17 18 22 22 23 24 25 21 18 17 12 9 9 8 8 11 12 10 13 15 13 14 12 15 21 22 19
26 27 28 29 31 33 31 29 29 27 27 32 33 32 33 33 34 34 36 33 32 26 25 25 20 21 24 22 22 27 33 31 28 27 27 25 21 19 16 13 10 8 11 14 19 20 16 15 17 16 14 12 11 11
32 31 31 33 36 34 33 31 33 33 35 37 38 39 38 36 35 35 38 37 31 27 24 24 25 25 24 25 25 25 28 33 34 32 31 28 26 22 21 19 17 16 17 17 17 18 18 18 17 17 17 17 19 19
34 34 35 38 38 37 36 34 32 34 39 43 45 43 42 38 33 35 38 38 35 30 28 26 27 24 23 24 25 29 28 29 31 38 38 35 32 27 24 24 24 23 24 25 25 25 25 24 24 23 23 24 24 25
36 37 40 40 40 40 42 40 39 43 47 49 48 45 42 39 38 42 41 38 36 29 30 31 28 31 27 25 26 27 30 32 28 31 34 40 40 36 32 29 28 27 28 29 29 29 28 27 26 27 27 27 29 30
40 43 43 44 44 45 44 45 49 53 54 52 49 48 47 48 47 46 46 41 36 33 32 32 30 30 30 27 27 28 28 31 33 30 30 35 37 42 41 38 36 34 33 33 33 33 32 31 30 30 30 31 34 35
47 47 46 46 48 49 49 53 56 56 54 52 51 52 52 54 52 47 42 35 36 35 31 30 29 28 27 28 28 29 28 28 31 33 31 32 35 37 39 44 42 40 39 38 38 38 37 35 35 34 35 36 36 35
47 49 50 54 55 57 57 57 56 54 54 55 56 58 60 57 51 47 44 41 39 34 28 28 27 27 26 27 28 28 28 28 28 32 33 30 32 34 36 38 40 45 46 44 42 42 40 39 39 38 39 38 36 35
51 53 57 59 60 60 59 58 57 57 57 56 56 55 53 51 48 47 42 30 33 30 27 27 27 27 26 27 26 26 27 28 27 27 28 28 30 32 34 35 36 37 39 42 47 48 46 44 42 42 42 39 34 31
55 58 61 62 62 60 58 56 53 50 49 49 48 47 42 40 37 32 25 28 31 29 27 28 27 25 24 25 25 23 25 26 25 24 23 25 29 31 31 30 31 32 33 34 36 38 39 40 40 38 34 33 33 33
61 65 63 59 53 49 47 44 43 43 41 37 36 34 33 32 29 24 26 30 32 31 27 27 28 27 26 26 26 26 24 24 23 22 21 22 25 28 29 29 31 33 32 30 31 31 32 32 33 35 35 35 36 37
56 53 47 41 38 36 34 30 28 27 30 34 36 34 31 28 26 29 31 31 33 35 33 31 32 30 31 30 28 28 27 24 23 23 21 21 22 24 26 28 29 31 32 33 33 33 34 35 36 36 37 37 38 39
38 30 29 22 21 22 22 26 29 29 30 33 33 29 27 29 30 31 29 32 34 34 34 36 36 40 37 34 33 32 31 27 25 24 24 23 24 25 26 26 28 29 30 30 31 32 32 33 34 35 36 38 39 40
13 14 16 17 23 25 26 34 31 31 36 38 36 34 32 28 30 33 33 34 36 38 39 42 43 46 46 42 37 34 32 30 26 25 24 23 24 26 28 27 28 28 29 30 31 31 32 33 35 37 39 40 42 43
20 23 27 29 27 25 28 32 34 36 33 34 38 42 41 43 43 43 44 43 45 45 47 47 47 45 42 38 38 38 36 31 24 26 25 23 24 27 28 28 29 29 29 29 31 33 35 36 37 39 40 42 43 44
24 26 26 26 25 29 33 38 40 39 36 35 34 34 38 46 49 48 44 49 50 51 49 50 47 42 43 41 42 39 30 23 24 27 26 23 24 25 27 28 28 29 30 31 32 34 35 37 39 41 44 46 48 51
23 22 23 25 28 33 39 45 43 39 37 38 41 49 52 46 44 39 38 34 38 41 44 45 47 44 38 39 36 28 25 26 26 25 24 24 24 24 25 26 28 29 30 32 34 36 39 43 46 50 53 56 57 57

GFSWCAN_500_spd_045.txt.gz
Wind_Speed
46 33 24 25 27 32 37 41 42 46 52 53 53 59 69 60 41 29 25 23 17 14 14 17 22 27 30 32 36 31 30 28 26 25 23 21 19 20 18 18 15 16 15 15 16 12 12 13 13 12 11 12 12 14
37 23 22 22 25 30 33 39 43 47 53 53 52 57 68 52 34 27 25 23 17 17 15 15 19 21 23 29 36 32 28 28 29 27 27 24 23 23 22 22 21 22 21 16 15 16 17 16 15 15 14 14 13 13
33 27 20 21 21 25 30 36 39 43 51 56 57 55 64 47 30 25 23 21 19 17 12 11 14 14 15 22 30 36 33 33 32 31 29 30 29 28 26 23 28 27 26 25 23 17 17 18 19 20 19 18 17 15
28 23 18 16 19 22 28 33 36 40 47 54 58 56 60 47 27 25 22 20 19 15 10 8 11 11 11 17 23 29 31 32 31 30 30 30 31 32 31 29 30 29 31 26 24 25 27 23 18 17 19 20 21 22
23 17 14 13 17 21 24 29 35 43 48 53 60 54 52 36 20 23 21 19 17 14 8 4 8 10 9 10 15 19 22 23 23 24 25 22 29 33 36 39 36 35 31 30 27 31 25 24 24 24 21 20 20 21
16 14 11 12 15 19 22 28 35 40 43 50 52 49 45 25 15 21 17 15 15 10 4 4 5 8 9 10 10 7 2 4 7 13 17 25 33 39 39 40 42 41 41 37 36 35 30 28 22 23 26 24 23 23
14 12 10 10 14 17 21 27 33 37 40 39 42 43 40 23 13 17 15 8 9 6 2 3 5 5 6 6 4 3 5 8 11 17 23 26 32 38 49 51 51 50 47 45 41 39 34 33 27 24 22 25 25 25
15 11 8 8 12 15 20 27 32 34 38 43 41 42 46 29 16 13 13 8 6 5 5 3 3 3 5 6 6 6 7 11 14 12 20 26 41 55 45 43 59 59 54 48 41 41 39 35 31 27 23 22 24 26
14 12 6 7 10 13 18 23 29 36 39 39 45 48 52 42 23 14 16 8 8 8 8 10 10 9 7 8 8 7 8 10 15 14 20 29 36 43 31 20 35 39 27 34 35 38 39 34 33 28 24 23 22 22
16 13 7 7 10 11 13 17 23 31 35 36 42 47 51 56 35 20 14 14 9 10 10 12 13 14 12 10 11 9 8 10 13 14 18 23 24 25 35 25 25 22 19 27 31 32 34 30 32 29 27 24 22 22
18 14 9 10 11 10 10 13 19 26 31 34 38 40 43 42 36 27 17 13 12 14 14 13 14 14 14 14 13 13 10 11 13 12 16 20 20 16 4 6 3 7 18 18 24 26 27 30 32 31 29 28 28 27
19 15 12 12 13 12 11 11 15 19 23 29 34 36 39 41 43 39 46 31 19 17 18 17 16 16 15 13 13 12 8 8 8 10 13 16 12 12 7 7 8 10 13 15 19 22 25 27 28 27 28 28 28 27
21 17 14 14 13 14 12 14 16 18 22 27 30 32 36 38 39 38 37 36 49 32 25 23 22 20 16 14 12 13 13 9 8 10 13 15 12 9 4 8 9 12 10 15 14 17 18 19 21 23 24 25 25 26
22 19 17 16 15 15 14 15 15 17 19 22 27 28 31 33 35 33 34 34 39 39 37 25 24 21 23 21 16 15 15 12 11 10 10 12 9 9 7 3 4 8 11 14 15 15 15 16 17 19 21 22 22 21
26 21 20 18 18 17 14 15 15 17 18 19 23 24 24 29 30 32 32 31 34 40 36 32 22 21 21 16 18 15 12 11 13 13 14 13 9 11 12 9 8 8 9 12 12 12 13 15 15 17 17 16 16 18
28 24 21 20 20 19 17 18 18 19 19 20 21 23 22 25 29 32 33 32 32 35 36 34 28 21 19 16 10 12 17 19 21 20 20 18 16 7 7 11 10 10 12 13 14 14 14 14 13 12 14 14 14 14
29 28 25 23 22 20 20 21 23 24 23 23 23 24 24 25 30 33 34 33 33 33 33 34 29 23 24 19 19 20 24 27 26 24 26 23 20 19 14 9 10 13 12 12 12 12 15 12 13 13 15 14 13 14
29 31 28 27 25 23 24 25 27 27 27 29 29 30 31 32 34 35 36 34 34 34 34 35 32 30 29 29 24 25 30 28 32 34 35 32 28 24 22 19 16 14 15 18 20 18 26 23 18 16 17 15 17 14
30 32 29 28 30 29 29 29 30 31 30 31 30 31 33 36 38 39 39 37 35 37 35 36 41 32 32 32 31 28 27 31 31 35 37 36 35 29 25 23 20 21 19 21 23 22 22 25 25 23 20 20 20 18
30 34 33 30 31 33 34 34 34 35 34 35 35 36 39 41 43 45 45 42 41 42 40 42 41 38 35 31 34 31 27 28 28 31 30 36 37 34 33 30 25 24 24 24 24 24 24 24 25 25 25 24 23 23
35 37 38 35 34 35 37 38 39 40 39 38 41 43 44 46 48 49 47 45 45 43 44 44 40 36 34 35 35 34 33 29 28 27 27 31 32 36 38 34 32 30 28 28 29 30 31 32 33 32 31 30 29 28
38 37 37 37 37 39 39 41 44 45 44 45 46 49 50 51 52 52 50 48 46 48 48 45 40 36 37 38 36 31 30 31 29 28 27 27 31 33 31 37 41 40 37 35 34 33 33 33 34 33 33 32 32 31
42 37 40 42 43 45 45 46 47 47 48 49 52 54 56 57 57 55 57 54 53 48 46 43 36 32 34 33 31 29 28 28 29 28 27 27 29 32 34 32 32 36 40 44 41 40 39 37 36 36 36 37 36 35
39 41 43 46 47 47 47 45 46 50 52 54 57 59 61 65 65 67 67 58 47 42 41 40 36 32 34 29 27 28 27 25 25 28 28 27 28 30 33 35 33 32 35 37 39 43 44 42 42 43 41 41 40 40
43 43 48 49 48 45 46 48 51 55 59 62 65 66 66 63 64 64 58 44 41 37 37 42 39 34 31 26 26 26 25 24 22 24 27 27 26 27 29 32 32 32 34 35 37 38 39 42 45 47 48 46 44 43
45 46 48 47 46 48 51 55 58 63 65 66 63 60 60 59 59 57 39 33 28 25 23 24 27 29 27 24 24 25 23 22 22 21 23 24 23 23 25 27 28 30 31 33 34 35 36 37 38 40 41 42 42 42
46 47 48 48 51 54 57 59 60 61 61 57 55 51 49 50 47 34 29 26 24 22 22 25 29 31 29 26 24 26 26 24 22 22 20 21 23 22 23 24 25 27 30 32 34 35 35 35 36 35 34 35 36 36
44 46 48 50 53 56 58 58 55 49 42 41 40 37 40 40 35 28 27 27 25 23 23 25 26 29 31 32 29 27 27 28 26 24 22 21 24 23 22 22 24 25 26 27 30 32 34 35 35 35 36 36 37 37
49 51 52 53 52 48 43 36 32 31 33 35 37 35 33 31 29 27 27 27 25 26 28 29 31 35 34 35 36 34 33 32 33 30 26 24 23 26 24 22 24 24 25 26 27 28 30 31 32 34 34 35 36 36
49 42 38 33 31 26 23 30 33 32 34 38 38 37 34 34 33 33 35 35 36 35 35 37 35 38 38 39 36 36 37 40 40 37 31 27 25 24 26 25 25 26 26 27 28 29 30 31 32 32 33 35 36 37
31 27 28 26 24 25 28 31 34 35 33 35 37 42 43 40 36 36 36 33 39 42 48 50 49 48 45 43 44 43 41 42 41 41 37 29 25 24 24 25 27 28 28 28 29 29 30 32 33 35 36 37 39 40
22 21 22 23 24 25 28 31 30 30 33 38 41 46 47 44 41 38 41 45 49 54 56 54 50 47 48 50 50 48 45 41 39 40 38 27 24 24 23 25 27 28 29 29 29 31 32 33 35 37 39 41 42 44
19 19 21 22 23 25 29 34 36 42 46 47 41 39 40 44 48 48 42 32 26 25 23 27 30 29 28 31 35 36 36 34 33 32 29 26 25 25 25 25 27 28 28 29 30 32 34 35 37 39 42 44 47 49

GFSWCAN_500_spd_048.txt.gz
Wind_Speed
55 54 54 51 44 44 40 38 33 35 37 42 45 47 48 56 55 58 62 34 23 15 12 15 15 15 19 31 25 33 30 28 25 23 19 16 16 17 16 17 17 16 16 17 17 14 14 16 15 16 15 15 13 13
55 54 54 46 41 39 34 27 25 30 36 39 42 45 48 55 53 56 58 34 21 18 16 15 13 15 19 22 27 24 29 29 27 26 22 21 20 20 19 18 21 21 23 20 18 17 19 18 17 17 17 17 17 17
59 53 49 46 33 30 23 20 21 26 31 33 39 45 49 51 53 52 50 26 21 19 16 12 10 10 13 17 20 20 25 30 25 24 23 21 21 22 22 21 25 25 26 25 24 21 20 19 21 21 19 18 17 17
57 55 50 31 26 20 11 15 19 24 26 31 39 43 47 52 48 50 39 21 19 18 15 10 5 6 10 11 14 17 22 27 28 28 30 27 25 26 27 27 28 28 31 28 26 23 27 26 22 19 20 22 22 20
59 54 34 26 20 13 8 13 18 21 25 28 34 38 43 49 43 43 28 17 16 16 15 11 5 6 6 7 10 13 17 19 21 23 27 25 21 25 21 24 25 26 32 34 31 30 34 29 27 29 26 22 22 23
55 35 26 22 16 8 7 12 16 17 26 34 36 38 41 40 36 38 22 18 14 16 10 6 6 4 3 6 9 9 11 12 12 8 2 9 15 18 24 26 26 31 37 41 37 37 38 35 31 28 26 28 27 24
40 27 26 20 13 7 6 10 11 17 28 33 35 35 34 33 31 31 23 14 12 11 8 5 4 3 4 5 7 5 2 2 3 7 9 14 16 18 25 34 38 48 51 49 47 43 42 39 36 32 30 25 24 28
33 28 23 17 13 9 7 8 7 17 26 32 35 35 34 30 30 28 13 13 13 11 9 9 8 7 5 4 5 7 6 8 9 12 16 18 20 25 29 38 47 46 51 56 55 52 45 43 40 38 32 30 26 23
31 25 21 19 15 12 9 8 5 15 23 28 32 35 37 38 41 41 26 12 13 13 12 11 9 9 9 10 11 11 11 13 13 14 15 16 20 23 30 36 39 28 24 33 48 58 45 39 39 40 36 32 30 25
29 26 24 20 17 14 11 8 4 9 16 21 26 29 33 36 43 39 48 36 18 15 16 18 16 15 14 15 14 13 13 14 16 17 15 16 15 17 22 27 22 16 10 18 23 31 36 39 37 33 38 35 31 27
30 26 24 21 18 16 12 9 5 7 9 14 19 22 26 27 31 35 40 36 37 28 19 21 20 20 18 17 17 16 15 15 16 15 15 12 11 12 18 22 14 11 4 5 11 15 23 28 29 33 31 35 32 29
30 27 26 23 20 17 15 10 6 5 6 11 14 15 18 22 26 30 30 33 33 30 30 25 22 23 22 20 18 17 16 14 13 12 10 11 10 9 12 17 11 10 5 9 7 11 14 19 21 25 28 34 31 29
29 30 28 26 21 19 16 11 8 6 7 11 13 14 16 19 21 24 26 26 28 31 27 30 29 23 19 21 21 18 15 14 13 11 11 12 14 10 9 11 12 9 11 11 14 10 11 12 18 19 25 31 27 24
31 31 30 27 24 20 17 14 11 11 11 12 14 16 18 19 20 19 20 23 24 26 29 29 27 31 24 17 16 19 20 16 14 17 17 15 15 13 11 9 8 10 9 10 10 12 13 10 10 15 17 19 20 22
30 31 30 29 26 23 20 18 16 16 15 16 17 18 20 21 20 20 20 21 22 23 25 28 27 23 26 22 16 11 10 18 24 24 23 21 19 16 12 11 12 11 11 14 15 13 11 13 14 16 17 18 18 19
32 30 32 31 28 25 23 22 22 21 19 20 21 22 22 24 26 25 25 24 24 25 24 24 26 24 23 19 21 20 24 23 21 25 28 28 25 22 19 14 12 12 13 13 16 17 13 15 16 15 15 16 16 17
31 29 29 33 29 27 27 26 26 26 24 24 26 27 28 28 31 30 30 29 27 29 29 26 24 25 26 25 23 22 26 35 37 30 28 31 29 28 26 22 18 15 16 17 18 19 19 17 17 18 14 13 14 16
30 30 30 29 32 31 30 30 29 28 28 30 31 33 32 33 34 33 34 34 33 34 35 31 29 27 29 30 28 30 31 32 38 38 37 36 31 30 32 27 24 22 20 20 21 21 22 22 24 21 19 16 15 16
30 30 27 26 28 31 31 31 32 34 36 36 37 38 37 39 37 36 38 39 39 40 40 36 35 30 34 35 33 36 38 39 35 35 36 38 39 33 36 36 30 26 25 25 23 26 28 27 28 29 30 23 19 21
27 25 23 23 23 25 29 33 35 38 42 44 42 42 43 42 42 41 42 42 43 44 44 41 37 36 39 40 40 39 37 38 36 35 35 33 35 32 36 38 35 32 29 28 29 28 30 31 30 27 28 27 26 26
26 25 26 27 25 26 29 33 38 43 44 44 45 46 46 45 45 46 47 48 49 48 46 41 43 46 47 46 45 39 37 37 37 35 33 35 34 31 30 34 41 42 34 34 32 32 32 33 34 33 31 29 29 30
28 28 29 31 32 33 35 38 40 45 46 45 45 46 48 48 47 49 52 54 55 51 50 51 53 52 50 48 40 34 34 34 33 33 31 30 33 33 29 29 32 34 43 40 38 36 35 35 34 35 35 35 35 35
32 30 28 31 35 38 41 41 42 44 46 46 47 50 50 50 51 54 57 61 58 54 58 57 53 55 47 39 31 32 32 28 27 28 28 28 30 32 30 29 29 32 34 39 44 44 43 41 39 38 37 36 37 37
34 31 31 36 39 42 43 44 43 45 48 50 51 52 54 55 57 61 64 61 56 56 53 50 46 46 41 32 30 34 29 26 28 28 26 25 25 28 30 28 29 31 33 35 35 38 42 45 46 47 45 43 42 42
36 38 39 42 44 45 43 42 45 50 52 52 53 55 59 62 65 67 58 50 46 42 39 35 32 29 27 31 34 32 28 28 28 25 26 25 24 22 26 27 26 28 30 33 35 35 36 39 42 42 43 47 49 48
41 44 45 44 43 41 43 47 51 52 54 57 59 61 62 64 63 52 40 36 32 28 24 23 21 19 20 21 27 30 31 30 27 23 23 23 22 20 20 22 23 25 26 29 31 34 35 36 39 42 43 43 42 42
44 44 41 37 40 46 48 50 52 54 58 61 61 61 61 55 42 31 28 26 25 24 25 21 21 20 21 22 25 28 31 31 28 24 21 19 19 22 21 20 22 23 24 26 28 30 32 33 34 36 39 41 41 39
37 35 37 42 46 49 52 54 56 60 61 59 58 51 45 34 27 27 29 32 29 25 23 24 24 24 24 25 27 31 33 34 30 24 21 21 23 23 24 22 20 22 23 24 26 27 28 30 32 34 35 37 39 38
36 39 43 46 50 54 56 57 59 57 51 46 42 39 32 27 25 29 31 34 35 35 33 32 31 32 31 32 32 32 32 33 35 30 25 24 23 24 27 26 23 21 21 23 24 26 28 29 30 31 33 34 35 36
42 45 47 50 53 55 49 51 48 43 40 38 36 34 31 30 33 39 41 43 45 47 47 44 41 43 43 42 39 37 37 36 34 33 34 32 32 32 32 33 29 26 23 23 26 27 28 30 30 31 31 32 33 34
44 48 51 51 48 43 41 40 38 40 40 31 33 38 40 46 45 50 53 53 57 59 52 50 48 48 49 48 48 44 41 40 40 37 36 36 38 37 36 35 33 29 26 27 27 28 28 30 32 32 33 34 34 35
41 40 39 37 35 33 32 33 32 27 27 32 37 45 51 56 62 61 56 47 39 36 39 45 47 49 51 50 46 46 44 45 48 45 42 41 41 42 37 33 32 30 27 28 30 30 31 31 32 33 34 35 35 36
30 28 27 25 23 23 26 28 28 30 33 38 44 43 41 51 47 28 20 22 20 15 14 14 15 17 19 21 23 28 32 38 45 44 46 46 42 38 28 29 29 28 27 28 30 32 33 33 33 34 35 36 38 39

GFSWCAN_500_spd_051.txt.gz
Wind_Speed
44 45 50 49 48 48 50 50 44 44 38 38 37 37 38 40 40 45 50 48 53 42 24 19 17 16 13 14 27 25 31 29 25 23 20 17 15 15 14 16 17 16 16 17 18 16 13 17 17 17 17 17 17 15
45 48 49 51 53 51 52 51 50 35 37 35 34 36 37 39 41 44 50 45 48 42 27 20 15 12 13 15 18 27 24 30 32 27 23 20 18 16 15 16 19 19 21 21 20 18 19 20 20 19 18 18 18 17
53 53 54 53 52 53 52 53 33 31 33 31 31 31 36 39 39 42 47 42 45 37 27 18 14 14 11 10 14 19 24 21 27 32 27 24 23 19 20 21 22 21 24 22 23 20 23 22 22 24 22 21 20 20
56 54 57 58 55 51 50 37 26 28 26 25 26 30 35 37 37 40 45 38 40 34 18 16 12 9 5 8 11 14 19 22 22 27 27 22 23 20 20 22 23 22 25 26 26 23 28 28 29 27 24 25 25 23
53 51 57 56 54 46 41 27 23 13 17 19 23 24 31 31 33 37 37 33 34 26 19 17 14 10 8 10 10 11 13 17 17 18 25 27 24 23 19 14 12 20 21 24 23 25 30 28 34 31 30 27 25 26
54 57 57 56 49 34 28 22 10 5 10 14 18 24 27 26 31 31 29 26 26 20 15 14 12 10 10 7 3 4 6 8 11 14 14 13 10 7 10 13 20 21 26 30 33 34 33 31 37 36 33 32 33 29
54 60 62 58 39 32 22 14 8 5 4 5 16 21 22 26 27 28 25 23 21 16 12 10 8 7 5 3 4 5 6 5 5 6 8 9 9 12 16 19 22 27 31 36 41 47 46 42 40 42 37 34 31 30
64 65 61 51 35 27 19 14 12 6 5 6 14 16 21 26 27 26 23 20 18 16 14 13 11 9 7 7 7 5 5 7 8 10 12 15 16 20 23 25 28 28 29 37 40 54 53 54 48 47 43 40 35 32
63 60 56 44 34 23 22 17 15 10 4 4 9 14 18 23 25 25 25 25 25 18 15 16 15 13 12 13 11 12 11 12 13 14 14 14 15 18 20 23 24 23 24 29 40 36 44 60 57 49 46 42 38 35
64 57 47 37 28 27 24 21 18 14 9 2 7 12 16 20 23 24 26 26 26 29 40 35 20 16 15 16 17 18 16 17 16 18 19 21 21 23 23 26 21 20 24 26 31 25 13 15 48 46 41 41 39 37
59 50 41 36 31 30 26 23 20 17 12 6 4 6 9 13 17 17 18 22 23 27 30 30 37 33 16 16 19 20 19 18 19 20 20 21 22 22 22 23 18 18 20 20 18 13 3 18 18 19 25 32 34 34
54 45 37 33 34 30 28 25 22 17 16 11 5 3 5 7 10 14 13 16 19 21 22 25 29 30 32 24 14 19 19 18 16 19 20 21 21 21 21 20 19 15 13 13 14 10 7 17 12 19 18 17 26 26
47 40 34 37 35 32 30 26 24 20 18 14 10 7 6 8 9 10 13 15 16 19 19 20 18 22 25 31 26 15 16 18 18 18 22 19 21 20 19 16 18 16 13 13 13 15 10 9 13 21 22 23 23 28
42 35 35 37 37 33 30 28 26 23 21 17 13 12 10 10 12 12 13 15 15 17 19 19 21 21 21 19 23 29 16 17 18 22 26 26 26 24 21 20 18 17 14 14 12 15 15 12 6 8 6 13 13 23
41 35 36 37 37 35 33 31 29 27 25 20 17 17 16 15 17 18 19 20 21 21 22 22 20 20 21 19 19 19 18 17 23 28 31 32 35 35 30 26 21 18 17 16 16 11 13 17 17 8 11 16 17 18
39 35 36 38 39 38 35 33 32 30 27 25 22 23 22 22 22 24 25 27 28 28 29 28 28 28 24 26 25 23 24 23 24 33 40 37 30 32 36 35 29 24 20 19 17 19 21 19 20 17 19 15 17 20
37 33 34 37 38 38 36 36 35 32 31 28 29 29 28 28 28 29 32 33 34 36 35 34 34 35 34 32 33 35 30 28 31 34 33 33 44 42 33 34 35 31 26 22 20 20 20 20 16 18 21 16 18 17
39 33 33 35 39 40 41 41 38 36 32 32 32 34 35 35 34 34 36 39 42 43 41 39 39 39 40 42 41 42 42 38 38 37 35 38 35 36 43 40 35 34 32 28 24 21 21 24 24 25 24 24 23 19
37 36 34 32 33 37 38 39 39 35 34 36 37 40 41 41 40 39 40 43 47 48 47 44 45 43 46 49 49 52 48 41 45 42 44 43 41 40 35 39 43 39 36 35 29 27 25 24 27 29 32 30 29 25
39 35 33 31 31 32 34 33 30 33 33 35 37 41 43 43 42 42 45 47 50 50 51 47 48 52 54 56 58 58 50 49 50 48 49 48 46 42 38 33 34 36 41 39 35 30 30 28 28 29 34 33 33 29
35 30 31 32 31 30 33 29 28 29 31 33 36 41 46 44 45 48 50 53 53 52 48 50 54 57 62 64 66 62 54 54 52 53 51 44 38 35 35 33 31 31 32 39 39 35 34 31 30 30 32 32 33 33
36 32 31 32 31 31 33 30 32 34 37 41 44 46 45 46 47 49 53 55 55 52 56 60 61 66 70 70 68 62 53 51 48 43 39 34 31 31 30 30 27 31 29 30 35 39 41 39 36 33 33 32 32 35
39 33 29 30 31 31 32 32 35 39 43 44 45 45 47 50 49 52 56 57 56 60 65 68 70 74 73 66 60 47 40 35 33 35 35 32 30 29 27 27 27 28 30 29 30 35 38 45 44 41 37 35 36 37
36 32 31 35 34 34 31 35 39 40 42 43 45 45 46 49 52 55 58 58 61 68 71 74 72 63 56 50 41 33 31 29 29 34 35 32 29 29 26 25 23 22 27 27 28 31 35 38 44 48 46 43 42 40
38 35 34 35 35 35 37 40 40 42 43 44 44 46 50 54 57 57 59 65 71 73 67 60 52 46 40 33 28 26 25 28 32 32 32 34 30 28 25 27 23 19 20 25 26 29 32 36 39 40 44 49 49 48
40 39 39 37 37 39 41 42 43 42 43 44 47 51 54 56 59 62 68 69 67 58 50 42 34 32 28 29 27 25 24 23 29 33 28 32 28 27 23 25 19 19 17 18 22 25 28 32 36 39 39 39 39 41
42 41 40 39 40 41 42 41 42 43 46 48 51 54 57 61 63 64 62 56 50 44 38 31 30 31 29 27 28 27 27 25 25 29 32 30 31 29 24 22 21 20 17 17 19 21 23 26 29 33 37 39 39 38
40 37 37 40 41 42 40 41 44 46 48 51 54 58 61 62 61 54 46 42 42 38 37 36 37 39 38 32 31 31 32 33 30 28 28 29 32 31 28 25 23 22 21 20 18 19 21 22 25 27 29 32 36 37
37 39 41 41 40 40 42 43 46 49 52 54 56 58 61 60 49 40 38 40 40 41 44 48 46 49 50 46 45 41 39 39 39 32 29 30 31 30 30 27 26 25 25 24 23 20 21 22 24 26 27 29 30 32
39 39 38 39 40 41 43 44 46 47 50 54 56 56 51 39 33 37 44 49 51 53 53 55 54 53 52 49 46 42 41 42 42 41 37 34 33 35 34 31 29 27 27 28 28 24 21 23 25 26 28 29 31 32
36 37 38 39 41 42 42 44 46 48 50 49 44 39 38 40 38 45 53 51 42 43 43 38 30 28 28 33 38 38 37 40 41 43 42 39 37 37 37 38 36 32 32 30 32 30 26 25 27 28 30 31 32 33
37 38 37 36 38 41 42 43 44 43 41 37 31 35 38 47 53 49 41 32 32 24 24 23 23 24 25 24 25 26 25 30 39 42 41 43 43 40 39 37 38 38 37 32 34 36 31 29 30 30 31 33 34 34
32 33 35 37 37 37 38 39 36 34 31 27 29 35 44 45 41 30 23 21 20 22 23 23 23 21 21 21 20 21 19 16 16 25 35 39 41 43 41 40 41 42 39 33 34 35 34 33 33 34 35 36 36 36

GFSWCAN_500_spd_054.txt.gz
Wind_Speed
52 38 44 41 38 43 41 39 44 38 41 39 42 38 35 30 29 28 30 37 42 45 43 36 31 19 14 14 13 15 26 28 25 25 24 21 19 18 17 17 18 17 15 16 17 17 15 14 16 16 17 18 18 19
50 50 42 38 45 42 47 41 39 38 40 39 37 37 30 24 26 26 28 35 40 42 38 36 30 21 18 15 9 12 22 28 29 26 24 23 21 20 20 18 19 20 20 19 19 17 18 20 21 21 20 19 19 20
55 45 42 36 41 43 43 44 42 40 41 38 35 30 24 22 24 24 26 32 38 39 36 33 28 21 14 13 7 9 14 25 24 32 31 29 26 24 22 21 21 22 23 21 22 20 23 24 24 25 25 23 21 21
49 47 41 42 47 46 46 46 43 44 39 35 30 25 20 19 21 22 24 30 35 37 32 29 25 21 12 8 11 9 9 18 24 21 26 32 32 27 25 25 24 25 26 27 22 23 25 26 28 29 28 26 26 26
55 49 47 49 43 46 48 45 45 43 37 28 24 19 16 18 19 19 20 26 30 30 28 27 25 19 14 11 12 11 8 11 17 20 21 25 30 32 25 23 23 30 26 24 17 19 22 17 25 32 31 30 31 28
50 45 45 48 43 47 45 43 43 37 24 23 21 13 14 17 17 18 19 23 26 24 23 21 23 19 14 12 13 12 8 5 9 13 15 17 20 26 25 21 25 17 16 18 20 22 24 25 27 34 37 35 33 33
50 46 43 43 47 47 44 44 38 25 21 15 12 12 13 15 15 16 19 21 23 19 19 20 19 16 12 11 10 9 6 3 3 6 10 14 15 14 14 13 16 17 20 24 27 28 30 36 39 39 43 46 40 37
48 48 48 47 49 48 44 42 30 25 16 13 14 11 13 13 14 17 20 16 18 18 20 21 19 16 15 13 12 11 10 8 8 8 9 9 12 15 18 20 21 22 24 28 29 34 37 38 43 47 47 49 50 46
50 48 49 53 56 56 46 35 30 23 17 17 9 10 7 7 10 13 13 15 14 19 20 22 22 22 20 17 16 15 14 13 14 14 14 14 15 18 18 19 22 24 25 26 30 35 34 36 42 53 58 51 52 51
59 51 51 51 56 54 43 34 30 24 22 18 11 11 5 2 6 9 10 12 14 17 18 19 22 27 30 26 15 18 17 15 15 16 19 21 22 22 22 24 25 26 28 28 26 29 33 37 38 45 44 41 44 39
62 59 50 52 53 47 38 38 28 28 26 19 19 14 8 3 2 4 3 6 9 11 13 16 19 22 27 32 31 16 16 16 13 15 17 21 24 27 26 27 28 30 29 26 24 27 24 24 29 19 11 29 22 28
64 56 53 52 50 41 42 34 31 28 25 23 22 17 12 8 5 3 3 5 7 9 10 12 15 17 21 24 24 33 25 14 13 15 16 19 21 26 28 29 28 27 27 24 22 22 18 20 19 8 7 10 14 19
55 54 54 54 45 42 39 35 33 29 29 26 24 21 16 15 10 7 7 9 12 14 15 15 16 17 19 18 20 22 25 23 18 17 23 26 28 30 30 29 29 26 24 23 24 20 16 14 19 14 14 14 12 17
60 56 55 48 44 44 40 38 34 34 31 27 25 24 21 20 16 13 12 11 13 16 19 19 20 21 22 22 21 22 21 22 23 19 19 20 28 36 39 40 40 37 29 26 25 23 20 14 16 13 13 14 10 8
59 57 51 49 46 44 42 39 38 37 33 29 28 28 26 24 21 20 20 20 21 21 23 24 24 25 27 28 26 28 28 28 26 26 30 34 34 39 42 43 45 43 40 33 27 24 22 21 18 20 12 16 13 19
58 55 51 48 45 45 42 40 41 38 33 32 30 31 32 30 27 26 26 25 26 27 28 30 31 31 31 33 35 36 37 37 39 37 37 41 46 43 46 44 39 43 39 37 31 28 25 21 22 22 22 21 15 16
53 50 47 44 45 45 43 43 42 37 37 35 34 34 34 34 32 32 31 30 32 33 35 36 36 36 38 40 41 43 46 47 48 48 48 50 52 46 45 49 45 40 37 41 35 30 28 24 20 23 24 29 27 22
48 46 43 40 42 43 44 44 42 40 38 38 37 36 36 35 36 37 36 37 39 40 41 41 39 40 42 46 47 50 52 53 55 57 58 60 60 52 47 48 50 48 40 36 40 35 30 27 22 23 24 20 25 25
45 44 41 40 39 42 42 42 42 40 42 41 39 37 36 38 41 44 44 43 44 45 46 46 46 47 48 50 51 53 56 60 62 64 67 67 62 53 48 50 51 49 46 39 36 40 34 29 25 23 25 29 30 28
50 44 37 36 34 34 35 36 37 39 39 38 38 38 39 44 48 50 48 45 49 46 47 47 48 51 52 54 57 59 64 69 72 76 71 62 60 53 50 48 47 46 41 36 32 35 36 33 30 27 25 26 26 31
43 41 38 32 30 29 27 28 31 32 33 32 33 39 43 46 49 50 49 50 48 48 48 49 48 51 55 58 64 69 72 79 80 72 63 49 46 47 46 45 42 35 28 28 28 33 33 34 35 32 28 27 30 29
34 33 29 30 32 31 31 30 30 30 32 32 35 40 43 46 48 50 51 50 48 47 49 50 52 56 60 64 70 76 77 75 69 63 50 39 28 31 29 28 27 26 26 25 28 30 30 31 35 37 34 31 28 29
31 29 25 26 29 32 32 31 30 32 35 38 40 43 44 46 46 47 46 44 45 50 51 54 59 64 68 72 73 71 66 63 57 47 40 32 25 25 27 26 27 25 25 24 26 28 29 28 32 36 37 36 34 33
31 30 26 26 28 32 32 31 32 35 40 42 43 44 44 45 46 44 41 44 51 53 56 62 67 70 73 72 67 60 54 50 43 39 34 30 26 24 23 24 28 27 24 20 24 25 26 27 27 31 35 35 38 40
29 27 28 27 27 32 34 34 37 41 43 44 44 45 45 46 43 42 44 50 55 59 63 67 70 72 68 61 54 49 44 40 37 35 30 29 26 24 26 29 29 28 24 20 22 20 22 24 25 25 30 35 36 38
30 31 31 29 30 33 34 38 41 42 43 44 45 45 44 42 43 46 50 55 59 62 66 71 69 65 58 51 46 40 37 38 34 31 29 31 29 32 26 24 27 26 26 22 19 16 15 17 20 23 25 28 32 34
33 32 32 32 34 36 39 42 44 45 45 45 43 42 41 45 46 51 55 58 61 65 69 66 61 53 48 44 42 41 40 41 37 32 30 29 27 26 31 26 25 26 26 26 23 19 16 14 14 18 20 23 26 29
34 35 36 37 39 41 43 43 42 43 43 42 40 42 45 48 52 55 58 61 64 67 62 52 51 56 59 61 59 57 55 53 49 42 34 27 28 26 28 36 30 28 28 30 28 24 21 18 17 17 18 20 23 26
35 36 37 39 41 41 39 40 41 40 39 39 42 46 47 50 54 57 57 62 64 58 52 53 55 54 48 45 41 39 42 43 44 45 45 38 31 31 32 27 32 34 34 33 30 25 21 18 19 20 19 20 22 25
35 37 38 38 37 38 40 39 37 38 40 43 45 47 50 52 53 54 57 56 53 50 52 44 40 37 36 37 35 34 38 39 36 33 32 37 41 39 35 31 28 28 33 35 31 27 24 22 23 21 22 22 23 25
36 36 37 39 39 36 33 35 37 39 40 43 49 51 52 50 48 47 47 49 48 46 39 34 33 37 37 36 35 33 30 33 35 35 32 30 31 40 42 37 32 30 29 32 33 29 25 24 24 25 26 27 27 28
39 38 36 33 32 34 35 36 36 37 41 45 47 47 45 43 43 46 45 41 37 31 29 28 31 32 33 33 33 33 32 29 28 27 25 23 27 34 41 43 40 36 34 32 34 33 31 30 29 29 30 31 32 32
32 31 32 32 34 34 34 35 38 40 41 42 40 35 31 37 43 44 36 28 24 22 24 26 27 29 29 29 28 29 29 26 23 21 19 15 13 18 32 37 43 43 39 35 33 33 34 35 33 32 34 35 35 36

GFSWCAN_500_spd_057.txt.gz
Wind_Speed
54 56 51 41 38 42 33 33 32 29 25 26 23 23 24 22 15 17 18 20 24 30 28 30 32 28 19 12 10 10 13 26 26 25 24 18 17 16 16 17 17 17 17 17 16 14 17 17 18 18 17 18 18 20
52 51 58 52 44 37 37 38 36 28 31 25 23 23 19 19 14 14 15 17 22 26 26 25 28 29 25 18 18 5 9 15 28 28 26 25 20 19 19 19 20 21 22 22 21 20 20 21 21 22 21 19 19 19
54 49 56 50 45 38 42 39 34 35 30 23 27 26 17 15 13 12 12 16 19 21 25 21 26 28 24 16 14 14 8 9 21 28 29 27 26 26 24 22 22 24 25 24 23 22 23 25 25 25 25 23 23 24
53 52 54 49 43 38 40 40 35 29 30 26 27 26 14 17 11 8 11 14 15 18 21 18 20 24 25 20 16 12 10 7 9 22 25 30 31 29 28 28 26 30 28 27 24 24 25 26 28 29 28 27 26 26
56 47 46 50 46 47 44 40 35 32 30 27 29 22 14 10 10 8 10 11 12 15 17 16 19 21 26 25 17 13 9 8 10 14 22 24 24 27 35 36 32 29 31 30 25 26 24 23 26 28 27 28 30 29
57 48 47 44 46 40 41 41 38 31 25 27 23 17 12 11 8 7 7 8 10 11 14 15 16 21 26 26 20 18 15 10 9 10 12 20 23 24 24 27 30 28 28 31 25 18 18 21 23 27 29 32 32 33
53 47 43 43 43 37 37 43 42 30 28 24 17 17 12 11 8 6 6 5 7 9 12 14 16 19 23 26 22 16 13 12 11 9 7 10 14 17 16 16 17 17 17 20 21 21 21 24 23 27 29 32 35 38
62 57 46 47 43 43 42 43 42 34 27 21 17 16 14 12 7 5 4 5 6 9 11 12 16 20 22 25 26 17 14 13 12 11 10 10 12 10 9 13 16 19 22 24 26 26 24 24 27 30 34 38 40 42
61 54 48 47 45 41 41 43 35 36 26 18 20 18 17 11 7 3 3 3 7 10 11 13 15 18 21 23 26 23 13 14 14 13 13 13 16 15 15 17 19 21 23 24 26 29 31 31 32 33 36 35 43 52
54 46 46 45 44 48 41 43 39 31 24 23 21 22 16 11 8 5 2 3 7 11 13 14 15 18 21 21 23 28 27 12 13 15 18 19 18 18 20 22 24 26 26 27 28 28 30 31 33 34 26 33 55 49
59 50 48 50 46 48 49 42 32 28 28 27 24 24 18 12 10 7 6 4 7 10 11 12 11 13 15 17 18 19 21 21 16 13 18 21 19 20 22 27 29 32 32 32 33 33 30 29 29 29 28 29 38 15
55 52 51 52 52 49 46 36 30 34 33 30 29 24 19 16 15 13 9 6 6 7 10 11 11 12 15 16 15 14 15 16 14 16 17 17 17 19 21 24 29 32 35 34 32 32 30 28 26 28 26 26 24 2
62 59 52 49 51 51 44 33 36 39 37 35 32 25 23 21 21 18 14 12 10 11 14 16 16 16 17 18 18 18 17 18 17 18 19 19 19 23 29 30 31 34 34 38 40 39 33 29 26 27 26 19 19 17
71 59 49 56 57 50 39 38 37 40 39 38 31 26 27 26 24 21 19 17 16 18 21 22 22 23 23 24 24 24 24 25 25 24 24 24 25 30 32 35 37 40 40 38 39 41 42 37 32 28 27 23 17 18
61 53 58 60 55 43 41 42 39 42 41 38 30 30 30 26 28 26 22 21 22 24 25 27 26 27 29 32 32 33 32 32 33 32 31 32 33 37 41 43 45 47 50 51 46 46 42 42 38 31 28 28 25 21
59 59 60 57 48 43 47 43 44 44 42 35 31 31 32 28 30 31 29 28 27 28 31 34 35 34 35 38 39 40 40 39 40 37 38 38 41 45 48 51 53 54 53 51 53 44 45 40 39 33 28 26 28 22
52 55 57 52 46 50 48 46 46 44 42 35 33 34 33 33 33 33 32 32 32 34 38 40 41 45 46 46 46 46 43 42 43 44 44 47 52 55 58 60 62 57 50 46 47 42 45 43 38 36 30 26 30 28
47 48 51 48 49 49 48 48 46 47 40 36 35 35 36 37 36 35 34 35 36 39 43 45 47 49 51 51 49 47 44 46 48 49 53 56 60 64 67 67 63 55 44 42 45 47 46 41 38 39 30 27 28 30
51 48 49 48 47 46 46 47 48 44 40 37 38 37 38 38 36 36 37 39 42 46 48 49 50 52 53 51 48 47 48 50 51 54 58 62 67 68 66 62 51 45 39 38 39 40 38 39 36 37 34 27 28 31
53 51 48 45 47 48 47 47 43 40 36 37 36 38 39 37 38 39 41 42 44 47 48 50 50 50 48 48 49 50 53 57 59 61 64 64 63 64 59 47 38 33 29 28 30 31 30 29 30 33 38 30 27 28
53 49 49 49 45 41 37 34 35 34 30 31 34 35 36 37 37 37 38 39 42 46 48 49 49 48 50 50 52 56 58 62 66 69 69 64 53 48 42 37 26 21 20 19 20 21 21 24 26 30 34 34 30 27
50 50 48 44 40 34 32 29 26 25 26 28 29 31 33 34 35 37 39 40 43 48 50 48 48 49 51 54 58 60 64 66 68 64 54 47 42 39 33 28 16 18 21 21 17 18 20 23 23 25 27 32 34 31
49 44 37 35 31 26 24 24 25 28 28 29 30 32 34 34 35 39 41 43 48 49 49 49 50 51 54 57 62 65 68 69 65 54 42 38 37 34 31 26 19 23 22 23 20 18 21 20 23 24 25 26 33 35
34 34 33 29 25 23 24 27 30 30 30 30 33 34 34 36 39 41 42 48 50 50 49 50 52 54 57 62 64 66 66 59 51 39 37 34 32 31 30 29 26 23 23 20 22 20 21 21 20 22 24 24 26 30
33 32 29 25 22 24 25 25 25 26 30 34 35 35 36 39 42 44 48 50 50 50 51 52 55 58 62 64 62 59 50 48 50 49 40 40 35 31 27 26 23 31 28 27 25 21 19 19 18 20 24 25 25 27
29 22 22 19 19 20 19 22 25 28 31 34 35 37 40 42 44 47 49 48 48 49 50 54 59 62 65 65 65 62 57 56 54 50 43 45 42 36 30 26 25 28 32 29 28 23 21 20 16 16 20 22 23 25
26 22 20 20 19 19 21 24 27 29 31 33 35 38 41 43 45 45 46 46 47 49 54 60 64 65 65 63 59 56 50 47 45 43 39 35 35 39 37 33 27 22 33 24 27 27 24 25 19 15 11 14 19 21
25 23 22 21 22 23 26 28 30 30 32 34 36 39 41 43 43 45 44 44 46 51 57 61 62 63 60 56 48 43 43 45 46 47 46 43 41 36 37 41 31 25 26 31 25 30 27 24 24 20 15 14 14 16
26 26 27 27 27 29 30 31 32 32 34 36 38 40 41 41 42 41 44 47 52 58 58 58 58 53 45 40 40 44 46 47 47 45 44 42 37 35 31 39 37 30 27 28 32 27 29 28 26 25 19 15 15 15
27 28 29 31 31 31 31 32 32 34 37 38 38 39 39 39 41 45 48 52 57 58 57 55 46 37 34 33 37 42 46 47 48 45 44 38 33 27 26 30 40 35 32 28 30 32 33 32 29 25 22 18 16 16
29 31 30 30 31 32 31 32 34 35 37 38 39 39 39 39 43 48 52 55 59 55 50 40 33 31 31 34 39 39 40 41 42 41 36 30 27 23 22 25 33 40 35 32 28 28 31 33 30 28 26 23 22 22
30 31 32 31 30 30 31 32 35 35 36 38 38 41 43 45 46 49 52 57 54 45 38 29 24 25 29 33 35 35 37 39 40 39 36 30 23 18 16 18 24 32 35 35 31 28 29 31 30 29 29 28 26 25
31 30 30 30 31 33 35 35 35 35 34 36 40 44 48 49 48 52 54 53 42 34 26 21 21 24 28 30 29 31 34 36 36 37 36 31 25 19 14 9 14 21 26 32 34 31 29 30 30 32 31 30 31 31

GFSWCAN_500_spd_060.txt.gz
Wind_Speed
66 63 61 50 52 49 40 37 35 32 25 17 10 11 6 8 10 10 8 10 12 17 19 19 22 28 32 25 20 12 8 10 21 23 24 22 20 18 17 17 17 16 15 15 15 16 20 18 18 21 22 21 20 21
67 59 54 41 48 50 40 34 37 33 27 21 13 15 10 10 9 10 9 10 12 14 16 16 18 24 28 28 21 17 10 6 10 21 25 23 23 22 20 20 20 19 19 19 20 21 22 22 21 21 23 23 22 21
67 68 64 44 52 52 41 36 36 31 27 24 16 16 11 11 10 9 10 9 10 13 13 15 14 19 24 26 26 18 12 8 7 11 22 28 26 26 25 25 26 25 25 24 22 22 24 25 26 28 28 26 27 26
63 60 53 37 50 51 43 38 36 32 27 21 14 16 10 11 13 11 9 9 10 10 11 12 11 16 20 24 25 22 15 9 7 7 11 25 29 27 26 27 28 30 30 28 27 26 26 27 30 30 28 28 27 28
62 65 59 50 53 55 40 34 30 29 31 22 13 15 12 11 14 12 10 9 9 11 10 11 11 14 18 20 24 24 17 13 9 9 9 14 25 27 26 27 30 34 35 36 33 31 30 27 31 31 29 31 31 28
68 66 62 50 52 51 44 40 31 29 30 24 15 11 8 7 13 14 10 9 10 9 9 8 9 12 17 20 21 25 23 16 11 11 9 11 15 22 24 25 26 26 30 35 37 37 30 28 28 29 27 30 32 31
67 64 63 49 51 51 50 44 32 31 28 24 16 11 9 9 13 12 10 10 9 9 7 7 9 10 14 16 18 21 21 17 15 12 12 12 12 12 14 16 18 17 18 21 23 23 23 25 25 27 29 29 29 30
72 62 54 46 45 44 43 44 38 31 29 26 21 15 15 14 14 13 11 11 10 8 7 6 7 10 12 15 16 18 18 20 16 14 11 12 12 11 12 13 14 16 19 22 23 24 22 24 28 30 32 33 33 31
74 63 52 51 50 47 49 44 38 27 25 22 20 16 20 18 15 14 12 11 10 8 7 6 6 10 12 15 16 15 15 17 15 15 12 13 14 13 14 15 16 18 20 23 27 29 31 32 32 33 34 37 36 36
74 58 59 56 45 45 43 38 35 30 22 17 16 20 20 21 19 15 14 12 10 8 7 8 9 11 15 17 17 15 13 14 13 13 14 13 12 12 14 17 19 22 25 27 29 31 32 34 35 35 35 35 35 37
73 69 61 57 50 39 39 42 37 27 20 13 15 24 24 20 18 17 14 12 11 10 9 9 11 13 16 17 19 17 15 14 13 10 9 11 14 13 11 16 19 23 25 27 32 35 39 41 40 37 36 37 36 36
73 59 55 50 47 44 42 40 28 23 17 18 21 26 28 24 21 19 15 13 13 12 11 12 12 14 17 18 19 19 18 17 16 16 13 14 15 17 19 21 24 25 28 31 32 32 36 36 40 42 39 36 35 34
60 57 47 42 43 41 37 32 31 30 25 21 25 30 29 27 23 20 16 16 15 16 16 17 18 20 22 24 23 25 25 23 24 24 25 25 25 24 26 29 32 35 36 37 39 41 43 45 48 46 40 42 36 31
68 54 59 51 48 43 41 42 36 33 27 27 31 35 31 30 26 21 20 20 19 20 21 24 25 27 30 31 31 33 33 35 35 34 33 33 32 32 33 36 37 41 42 43 45 48 49 50 47 48 43 40 40 32
67 65 58 53 50 44 44 40 36 29 28 31 34 36 34 31 28 24 25 24 24 24 27 28 29 30 33 36 35 39 43 44 43 40 37 37 38 39 40 41 44 47 50 53 56 57 58 55 50 49 47 40 37 37
67 71 59 49 48 49 44 41 42 36 34 35 36 37 35 35 30 25 26 26 27 29 32 33 35 37 39 40 41 45 47 46 44 42 41 40 42 44 46 50 54 58 60 62 65 66 62 57 51 49 48 44 34 34
68 58 51 46 49 49 43 44 43 42 38 36 38 38 39 36 28 27 26 26 26 29 32 33 37 39 43 44 43 43 44 45 44 44 43 43 46 50 54 58 63 65 67 67 65 61 53 48 44 43 41 39 35 34
65 57 51 50 52 50 43 42 47 41 38 38 38 41 40 33 28 28 28 27 28 31 34 37 40 42 42 41 42 44 45 46 44 43 45 50 55 59 63 66 67 65 61 57 49 42 39 34 31 30 29 28 31 32
57 57 57 53 52 49 45 44 42 39 39 40 42 42 37 30 26 24 24 26 32 34 36 36 38 40 40 43 46 47 47 46 45 47 51 57 63 66 68 67 60 51 48 40 34 28 24 23 22 20 21 23 28 31
51 50 49 47 43 42 45 42 38 37 40 41 43 40 34 30 26 25 28 32 33 34 35 36 38 41 43 46 48 49 48 50 51 52 55 62 68 67 64 56 45 41 37 29 20 14 14 18 17 18 20 23 27 30
51 48 44 44 44 42 43 38 36 40 42 42 36 28 26 26 25 26 27 29 31 34 35 38 41 45 48 49 50 51 53 54 56 61 63 64 66 61 51 41 37 31 29 18 8 16 19 15 13 15 17 21 24 26
46 46 46 45 47 41 39 37 39 40 34 28 26 26 24 22 23 26 27 30 33 35 37 41 45 48 51 52 53 54 55 57 62 66 68 66 60 51 40 36 34 29 28 20 10 19 26 20 14 12 15 17 21 22
41 42 43 42 40 35 37 35 32 25 25 25 25 23 20 22 26 28 30 33 36 38 42 45 49 50 51 53 54 56 59 62 66 69 63 58 53 49 44 38 35 31 27 23 25 24 24 22 18 14 15 17 19 21
47 47 44 44 41 39 34 27 25 24 21 20 18 18 22 26 28 30 33 37 39 42 45 47 48 50 50 51 55 62 66 69 70 62 49 46 46 42 37 35 38 34 28 26 27 30 27 21 21 17 15 17 20 20
45 44 42 40 40 35 27 23 19 17 16 15 17 21 25 27 29 32 35 38 41 42 44 46 48 49 50 53 58 62 65 67 58 50 43 46 45 41 37 33 31 33 32 27 25 30 27 25 22 21 18 16 19 20
39 33 33 31 30 28 22 16 14 15 16 18 20 24 27 29 32 36 37 39 40 42 44 45 47 48 52 59 61 63 60 52 46 45 44 46 45 45 40 35 28 25 37 35 28 26 31 29 26 24 20 15 17 20
31 28 25 24 19 15 14 15 16 17 18 20 23 28 30 32 35 37 37 39 40 42 45 46 49 52 56 60 62 56 46 41 44 46 47 46 46 46 44 38 33 25 29 38 30 25 28 26 24 24 23 19 15 14
24 24 22 21 20 19 19 19 18 18 21 24 27 29 32 34 36 37 37 39 41 42 45 49 51 56 60 61 55 43 37 40 43 45 46 49 51 49 45 40 33 26 24 32 33 25 26 23 21 24 23 23 20 14
22 22 21 21 22 21 19 18 20 22 24 27 29 31 32 33 35 37 39 40 40 42 46 50 54 59 59 54 42 38 37 39 41 42 45 48 49 48 48 41 32 24 21 28 33 27 29 27 22 25 25 23 22 18
26 23 22 22 23 22 23 24 24 26 28 30 30 31 32 34 36 38 38 38 41 44 48 52 56 57 52 42 34 36 37 38 40 42 44 46 47 46 43 37 28 21 19 25 34 30 27 30 26 25 26 23 23 23
22 24 25 25 26 27 27 26 28 29 30 30 31 31 33 35 37 37 37 39 44 48 52 55 55 51 43 34 30 32 36 37 41 43 43 41 43 45 41 35 27 19 15 20 31 30 26 27 28 28 26 25 22 25
26 28 30 29 28 27 27 28 30 31 31 30 31 34 36 36 35 36 38 42 47 51 54 54 51 42 32 28 28 31 32 37 39 39 37 36 35 37 38 35 29 20 11 11 28 27 26 24 26 30 31 28 26 27
27 27 26 24 25 27 29 30 30 29 30 32 33 33 34 35 37 40 43 47 52 55 53 50 43 30 25 26 28 29 33 35 33 31 29 28 29 28 29 30 29 22 13 6 13 24 25 24 23 24 25 25 27 27

GFSWCAN_500_spd_063.txt.gz
Wind_Speed
70 72 65 63 58 65 62 45 39 42 41 30 26 19 12 11 9 4 6 7 6 4 6 9 10 15 19 21 26 24 14 6 9 17 23 23 24 23 21 22 22 22 22 23 23 23 24 20 22 24 27 29 28 27
72 69 56 57 50 44 58 51 39 41 37 32 24 23 13 12 7 8 8 9 9 6 7 7 9 11 15 16 19 24 19 10 4 6 13 24 25 26 24 23 23 23 22 22 23 21 21 23 24 26 26 26 27 27
77 65 53 55 51 47 57 43 42 37 37 30 25 23 15 11 9 8 9 11 11 9 7 6 8 9 12 15 14 19 20 16 10 6 7 14 25 27 25 24 24 23 23 23 24 24 26 25 25 28 28 29 30 30
72 57 51 64 51 55 53 35 46 37 30 32 27 20 16 14 9 6 9 11 12 9 8 8 9 9 10 12 12 13 18 16 15 10 8 10 12 19 25 25 25 26 28 27 28 30 30 30 32 31 31 31 30 31
65 57 51 57 50 51 56 44 39 36 32 31 25 22 19 17 10 7 8 13 13 10 11 10 9 9 10 12 12 10 13 11 14 11 9 9 11 12 16 22 23 28 28 28 30 33 35 37 37 37 35 35 35 33
64 61 68 57 56 47 56 39 38 37 29 28 26 20 18 17 14 10 10 14 13 11 12 12 10 9 10 10 9 7 9 8 12 13 12 9 8 9 11 16 23 27 26 27 27 28 26 28 31 36 35 35 35 36
62 71 64 53 56 50 45 44 40 35 25 27 25 22 16 15 15 12 11 12 14 14 14 12 10 9 10 10 9 5 7 7 11 11 12 11 10 11 10 12 14 14 15 16 18 20 23 24 24 29 35 38 34 33
75 75 66 61 55 49 46 42 35 34 25 22 21 20 19 18 16 15 15 16 15 15 14 12 9 7 9 8 7 6 5 6 9 8 10 13 12 11 12 14 16 17 19 20 22 24 24 27 30 30 31 31 33 38
74 75 64 60 55 52 42 42 43 36 25 22 18 23 18 17 20 17 16 17 16 17 13 11 9 8 8 8 8 9 8 8 6 9 10 12 15 15 13 12 15 17 21 25 27 28 32 32 31 34 35 35 36 39
73 73 70 58 54 53 45 46 37 37 30 23 26 23 21 20 20 19 18 18 19 17 14 12 10 9 9 11 11 12 13 13 13 11 15 16 17 17 19 18 18 19 21 21 26 29 29 35 37 35 33 37 40 43
78 81 68 59 53 52 47 37 38 34 33 25 19 21 22 21 22 22 21 20 20 18 15 13 11 12 13 13 15 18 19 19 20 20 21 22 23 24 24 24 27 30 32 32 32 32 33 37 41 43 42 41 42 47
76 70 64 57 55 52 45 39 35 36 30 24 25 23 24 24 23 24 22 22 21 19 16 14 14 16 16 17 20 22 23 26 26 26 29 31 31 32 31 33 36 39 40 42 43 42 44 45 47 48 51 54 56 53
77 67 61 58 56 51 40 39 33 34 28 25 23 23 24 26 24 24 23 22 21 19 17 17 19 20 21 22 25 28 30 32 33 34 37 39 37 37 38 41 43 43 43 45 49 50 52 55 57 59 60 61 60 58
71 69 63 58 56 46 39 33 34 28 31 26 21 20 23 23 22 23 24 25 24 22 20 21 21 24 25 26 30 34 37 40 40 41 41 40 40 41 43 44 46 46 47 50 53 56 59 63 65 66 69 69 67 63
70 71 57 56 52 48 41 34 33 29 28 27 20 23 21 22 24 26 28 29 26 25 24 24 25 26 28 30 33 37 41 43 43 42 41 42 42 43 42 44 45 48 51 56 61 64 68 72 75 75 75 72 68 61
81 66 50 50 51 48 40 37 35 29 28 22 22 22 24 26 27 31 33 33 28 26 24 24 26 27 28 31 34 38 39 40 41 43 44 46 46 46 47 50 53 56 61 65 68 73 76 76 72 69 63 56 47 40
78 69 56 51 46 45 42 34 33 34 27 26 28 26 28 29 30 34 35 32 27 23 21 22 24 26 30 33 35 36 39 42 44 46 48 49 51 52 55 58 61 65 70 71 72 69 63 60 57 52 44 33 28 28
72 68 56 53 46 39 39 37 34 31 29 29 31 31 32 28 31 33 32 27 25 24 25 25 26 28 32 33 36 40 44 45 48 50 51 53 56 60 63 65 69 72 69 66 60 54 51 46 39 31 27 24 23 24
66 63 60 50 43 40 39 41 37 32 32 33 35 37 30 30 31 31 29 27 23 23 24 26 29 30 32 35 39 43 46 48 50 52 54 56 59 65 70 74 74 70 61 51 45 44 40 31 19 20 21 19 20 24
66 61 55 47 45 44 41 41 38 39 33 34 35 29 31 34 31 28 25 25 26 27 25 25 29 31 34 38 43 46 49 51 53 54 56 59 65 71 74 74 68 58 47 40 38 37 32 21 14 19 17 16 20 19
63 59 53 51 46 42 42 39 39 37 35 29 28 31 33 28 24 22 24 24 25 24 23 28 30 34 39 44 47 50 52 54 56 57 59 64 71 76 71 60 52 50 47 41 35 34 32 23 16 22 22 15 15 16
63 60 54 45 41 41 44 39 37 33 29 30 31 29 26 23 21 23 22 22 24 24 27 30 35 39 44 48 50 51 54 56 56 59 65 71 72 62 52 51 49 45 42 41 37 33 31 30 23 23 24 19 15 16
57 53 49 45 46 40 41 39 32 28 30 29 24 22 22 22 22 22 21 23 25 27 30 34 39 44 47 49 51 53 54 56 59 65 70 70 57 50 50 49 47 45 41 38 37 33 31 29 31 27 23 20 16 16
52 51 52 45 40 43 39 36 30 24 25 24 22 22 21 21 22 22 22 24 26 29 33 37 42 44 46 49 52 53 55 59 64 69 62 55 46 47 50 48 46 43 42 40 37 33 30 30 28 27 23 21 18 15
47 40 40 45 41 39 33 28 26 23 22 22 21 18 19 20 20 21 22 24 28 33 37 40 43 44 46 49 50 52 57 63 67 64 49 46 45 46 47 49 48 46 43 40 37 33 27 29 24 23 26 23 19 16
45 45 43 36 29 25 28 29 27 22 21 20 18 19 20 19 21 23 25 28 32 36 39 41 43 45 47 48 50 53 59 63 65 55 42 43 45 45 47 48 48 45 44 39 36 34 29 29 29 24 27 25 20 16
36 30 28 29 32 31 28 24 23 21 19 19 19 18 18 20 22 25 29 32 36 38 39 42 45 46 46 48 53 57 62 64 60 46 40 42 44 47 50 49 49 47 43 36 33 32 29 27 31 25 27 29 24 20
29 28 30 27 27 26 25 23 23 22 18 15 16 19 21 24 27 30 33 35 36 39 42 44 45 45 47 52 56 58 62 61 49 40 41 43 47 51 50 48 48 49 45 36 31 24 25 23 28 24 25 28 25 22
25 27 27 28 30 27 26 22 19 17 17 19 21 23 26 29 31 33 35 36 38 41 43 43 43 46 50 56 60 64 64 53 38 36 39 43 47 48 46 45 46 47 44 36 25 20 21 20 23 21 24 25 25 23
28 30 30 30 29 27 25 23 22 22 23 23 25 27 29 31 34 35 35 38 41 42 41 43 46 49 52 56 62 60 49 38 34 35 39 42 40 38 39 39 42 43 40 31 19 17 15 22 20 22 24 25 24 23
28 30 30 29 26 25 25 26 26 26 26 27 29 31 32 34 36 36 38 39 38 39 42 46 49 53 58 62 61 47 35 32 34 37 36 33 34 34 34 35 36 40 38 30 21 11 14 22 19 19 22 23 23 23
26 27 26 26 27 27 25 24 25 27 29 30 30 31 33 35 36 37 35 36 38 42 45 48 52 58 61 57 45 31 27 29 32 33 30 31 31 35 35 37 36 35 36 32 21 7 13 23 20 16 21 22 23 22
27 27 27 27 27 25 26 28 30 31 30 30 32 34 35 36 35 34 35 38 41 44 47 51 55 58 53 41 26 23 25 28 29 27 29 34 36 36 35 34 34 32 28 27 22 10 13 17 19 18 16 20 23 24

GFSWCAN_500_spd_066.txt.gz
Wind_Speed
68 71 53 54 45 38 50 54 46 40 42 35 26 30 25 26 22 20 17 14 12 11 7 3 3 5 9 12 14 13 17 18 18 9 8 15 20 21 23 21 21 23 25 26 25 26 26 25 23 25 26 26 27 29
70 67 47 41 32 38 54 43 34 38 37 38 30 34 30 25 20 19 18 15 12 10 7 5 3 5 5 9 10 12 11 17 19 17 11 8 14 21 24 22 22 22 24 25 25 24 26 26 25 26 25 27 29 30
73 67 58 43 38 55 56 37 42 37 35 33 32 31 29 26 20 18 16 14 13 10 8 6 5 6 8 8 8 8 9 11 15 15 15 12 10 9 16 23 22 24 24 23 26 26 27 29 29 29 28 29 30 32
75 75 60 55 51 52 52 45 43 42 31 33 31 26 32 26 21 18 15 12 12 10 7 7 6 7 9 8 9 7 7 7 10 13 14 17 13 14 10 12 18 20 25 25 27 30 34 32 33 33 34 34 34 33
70 77 69 63 55 59 49 42 41 34 27 32 31 28 32 28 21 17 13 11 11 9 8 7 8 9 9 9 8 8 7 7 9 11 12 15 16 15 13 12 13 15 20 25 28 31 34 35 35 36 39 41 41 41
71 79 72 63 51 55 46 40 44 40 31 29 31 31 28 30 23 18 12 10 10 9 10 9 9 9 11 10 8 8 6 7 9 9 10 13 13 17 15 13 14 14 15 17 23 28 29 29 29 28 29 29 31 33
75 76 64 58 57 56 41 45 43 45 32 30 27 29 28 29 26 19 14 10 9 9 10 10 11 11 12 10 8 7 6 6 8 7 8 10 11 14 14 15 15 17 17 17 18 21 23 24 24 25 27 29 31 32
76 72 60 61 60 48 44 49 41 47 30 29 27 27 31 30 24 22 17 13 10 9 9 10 11 11 11 9 8 8 9 8 9 8 10 11 11 11 13 15 16 17 18 20 21 24 27 29 31 30 28 28 30 31
78 70 62 63 67 53 45 49 47 35 33 31 33 34 29 26 26 22 19 14 11 10 10 11 11 12 11 10 10 10 12 10 12 11 12 14 15 15 17 18 20 23 25 26 28 28 31 31 33 34 36 37 39 39
79 72 66 64 59 56 48 49 47 38 35 28 27 23 27 29 26 22 19 16 14 12 13 13 13 12 11 10 11 11 14 14 16 17 19 20 25 27 29 31 30 30 32 35 38 40 42 42 43 44 44 43 42 42
80 66 65 63 50 50 51 47 42 38 41 27 24 21 25 27 25 23 21 18 15 14 13 13 14 15 14 12 12 14 15 17 19 22 25 26 29 34 36 38 37 38 40 42 43 45 48 50 52 53 54 55 55 56
78 66 66 57 54 49 48 44 40 29 34 30 26 27 28 26 26 25 23 18 17 15 15 15 16 17 17 16 17 18 19 22 26 27 30 33 35 38 38 39 39 41 43 46 49 51 54 56 57 58 60 60 60 62
72 64 64 56 59 57 48 44 36 34 34 31 27 26 26 23 26 24 21 18 16 16 16 18 19 20 20 20 21 22 25 28 29 31 35 37 38 39 41 43 44 45 46 46 48 51 53 54 57 60 61 65 67 69
67 67 62 54 58 60 50 46 41 39 35 34 32 29 25 23 22 19 18 20 19 19 20 21 23 23 23 24 25 26 29 32 34 36 38 41 44 46 47 49 49 48 49 51 53 56 58 61 64 69 72 75 78 80
73 66 64 60 57 57 51 47 36 32 31 32 28 26 22 18 19 18 18 19 21 23 24 25 25 26 25 25 26 28 32 35 37 39 43 46 49 50 51 53 53 52 53 56 60 64 67 71 74 74 76 75 73 70
74 68 61 63 55 52 48 40 32 30 26 31 32 27 21 21 18 17 18 22 23 24 26 26 28 27 25 23 25 30 33 35 37 41 45 48 50 53 55 57 58 58 62 67 71 74 76 71 65 59 55 54 50 45
73 65 66 59 59 56 44 36 31 33 31 31 29 26 25 24 23 21 19 20 21 24 26 25 27 27 27 26 29 31 34 36 40 43 48 51 53 56 59 61 62 65 70 76 76 66 60 56 49 45 44 37 31 30
67 66 65 64 61 53 44 40 35 33 27 29 28 26 24 23 23 19 17 16 19 21 22 22 26 25 24 27 30 33 36 39 43 47 51 52 56 60 62 64 68 72 77 68 59 56 52 49 42 38 34 26 22 23
67 59 55 58 55 50 48 44 37 33 29 30 30 25 24 24 22 15 14 18 19 20 20 22 25 24 26 29 32 35 38 42 46 50 52 55 59 61 64 67 73 76 62 55 56 56 50 47 43 34 28 24 21 21
64 60 54 54 55 50 45 39 34 30 30 31 26 24 23 20 14 15 17 19 20 20 19 24 25 25 27 30 33 37 42 46 50 51 55 59 61 62 66 71 76 65 52 52 53 55 52 44 43 35 27 25 21 19
70 66 60 56 54 48 46 39 35 31 30 28 25 25 16 11 12 12 16 19 21 20 19 22 22 26 29 32 36 42 46 49 51 54 58 61 62 65 70 74 69 51 49 50 52 52 50 45 40 36 26 27 25 20
70 62 54 52 49 44 38 32 30 27 25 25 25 20 13 11 11 16 18 19 20 18 19 21 25 29 31 34 39 45 48 50 52 56 60 62 63 66 72 72 57 48 48 50 53 54 50 44 39 35 27 22 23 22
67 65 55 48 44 41 38 36 33 28 24 19 18 15 9 11 17 21 17 19 19 20 22 25 29 31 34 38 44 48 49 51 55 59 61 62 65 71 75 64 50 46 47 51 53 53 52 46 38 31 27 21 21 22
61 61 61 53 49 44 38 34 32 24 19 17 14 13 15 19 22 18 17 20 21 22 24 28 31 34 38 44 47 49 52 56 58 58 63 64 68 74 66 50 46 48 53 56 54 53 54 50 40 29 25 20 19 21
59 55 54 56 53 42 36 30 22 16 15 11 14 18 21 22 19 16 16 20 22 24 26 30 34 37 43 46 48 52 56 57 58 60 64 70 75 71 54 45 46 51 54 54 52 53 55 52 39 27 22 20 19 21
59 56 54 50 45 39 30 21 15 12 13 18 20 20 21 19 16 15 19 22 22 25 28 32 37 42 45 46 49 53 55 58 60 62 69 74 72 58 45 41 48 50 49 49 51 52 54 47 34 27 21 21 18 22
56 51 50 45 34 26 22 15 14 18 22 22 20 21 19 16 17 19 21 21 24 28 32 37 42 44 45 49 51 54 56 58 62 68 73 71 56 43 42 46 46 44 43 45 49 52 48 39 27 20 18 23 18 22
50 43 34 28 23 16 11 18 23 23 21 22 22 20 18 18 19 20 21 24 28 32 37 41 44 46 48 50 52 55 55 58 65 72 69 54 43 42 44 43 41 44 45 46 47 51 45 29 18 14 15 22 19 22
28 24 21 16 16 21 23 24 22 21 23 23 20 19 19 19 19 22 25 29 33 37 42 44 45 46 49 52 54 55 58 63 68 69 52 37 40 44 41 42 46 48 46 46 46 47 43 26 14 12 14 20 17 21
23 18 21 24 24 24 23 25 27 26 24 22 20 19 19 21 24 27 30 33 37 41 43 43 45 48 50 51 53 58 65 70 68 52 33 35 38 38 41 45 46 44 43 43 40 40 36 23 9 11 14 13 17 20
19 23 26 27 27 28 30 28 26 25 22 21 21 23 24 26 29 31 34 36 40 42 42 44 47 48 49 51 55 60 67 65 48 33 34 37 35 40 43 43 43 43 41 36 33 32 28 14 6 8 10 13 16 17
23 27 26 28 29 30 29 27 25 24 24 25 25 26 28 31 33 34 36 40 41 41 43 46 47 48 49 52 58 63 63 44 29 32 36 33 38 40 41 41 42 41 34 30 28 26 23 9 5 4 5 13 16 16
29 30 32 33 31 29 28 27 27 27 26 27 29 31 32 33 34 36 40 40 40 42 44 45 46 48 51 55 60 58 41 27 29 32 30 33 34 37 38 38 40 41 35 28 25 22 20 13 7 10 12 9 10 16

GFSWCAN_500_spd_069.txt.gz
Wind_Speed
16 49 66 37 27 45 46 38 44 37 39 40 32 33 23 23 33 32 23 23 22 20 15 10 7 4 1 4 6 8 11 13 15 17 16 11 4 8 16 21 22 21 21 22 24 26 29 30 29 29 31 32 33 34
20 60 56 35 38 47 47 39 33 32 41 35 28 33 24 28 34 29 28 24 20 17 15 12 8 4 2 2 3 4 6 8 10 12 16 17 17 14 10 11 14 20 23 23 25 26 29 26 23 25 27 28 29 29
33 67 50 37 44 45 48 42 37 38 40 30 33 29 24 27 32 27 27 22 20 18 17 12 10 6 5 3 4 3 4 5 9 9 11 13 16 16 15 12 11 13 19 23 27 27 31 28 26 28 30 31 33 33
49 67 48 40 49 45 41 45 42 28 30 35 36 28 25 27 31 28 28 26 17 17 17 14 11 6 3 3 4 5 4 5 5 7 9 10 11 13 15 14 14 15 15 16 20 25 28 30 30 31 33 36 36 40
53 74 52 47 46 39 36 41 37 32 32 31 34 24 26 31 31 26 23 20 19 20 17 13 10 6 3 2 5 6 6 5 5 6 7 8 9 12 13 13 15 16 17 17 17 22 25 27 29 31 33 36 38 40
58 72 58 50 43 36 40 38 34 35 28 30 28 24 13 30 30 26 22 18 18 19 13 11 8 5 4 3 5 6 6 5 7 7 7 9 10 10 12 13 14 16 17 19 19 21 23 24 24 25 26 28 29 31
59 76 55 50 42 46 53 40 31 34 29 27 25 16 19 36 31 27 24 21 19 17 13 11 7 5 4 5 6 6 6 7 8 9 8 10 10 11 12 14 17 18 20 21 22 23 24 25 25 26 27 29 30 30
67 78 64 54 50 51 46 41 36 36 31 32 25 18 17 39 33 28 23 21 18 15 12 9 6 4 4 5 6 6 6 7 8 9 10 11 12 14 15 16 18 20 23 27 29 31 32 35 37 37 37 37 37 37
67 78 69 66 52 46 43 42 36 35 31 28 25 18 20 37 33 29 26 22 19 15 11 8 6 5 5 7 7 7 8 8 10 11 13 16 17 21 24 26 28 30 30 31 32 32 35 39 43 46 47 48 50 50
65 78 77 66 58 47 43 40 39 37 37 32 25 22 25 28 33 30 26 22 18 15 12 9 7 7 7 8 8 9 10 12 14 17 20 21 24 26 30 31 31 32 34 35 36 39 40 44 47 51 55 57 59 61
68 76 78 71 55 46 39 43 41 37 40 38 28 22 25 31 30 26 25 21 18 14 11 10 9 9 9 9 11 13 13 16 18 22 25 25 26 30 32 34 36 37 39 40 41 42 43 44 47 50 52 56 59 61
73 75 76 70 57 46 42 45 42 38 37 36 27 30 32 29 28 26 24 23 19 15 13 12 11 11 12 13 14 16 16 19 21 26 29 30 31 33 35 37 40 42 43 44 45 44 45 47 50 52 55 57 60 62
75 75 72 66 54 50 46 42 42 43 38 31 28 27 26 30 30 26 21 19 14 13 14 14 13 14 15 16 18 20 21 22 24 27 31 32 34 36 40 42 45 47 48 49 50 50 52 54 59 65 68 68 67 67
75 74 72 63 57 53 47 40 42 41 40 32 30 26 28 26 22 20 24 22 20 18 17 17 16 17 18 19 22 24 26 26 27 30 33 35 36 40 44 48 50 52 54 54 53 56 60 66 64 60 59 59 57 56
76 73 70 58 52 50 50 47 45 43 38 34 31 27 26 23 24 20 21 19 17 19 20 19 19 19 21 22 24 26 27 28 31 35 36 37 40 44 49 53 55 57 59 58 60 64 67 62 55 53 55 53 49 47
76 78 67 52 54 54 55 52 45 43 37 33 32 28 24 25 23 19 18 17 17 20 20 19 20 21 22 24 26 27 27 31 34 37 39 40 44 48 53 56 59 61 62 61 66 69 64 53 50 51 54 51 44 42
81 75 66 51 53 55 55 50 44 41 36 35 31 31 31 29 24 20 16 14 14 16 17 17 19 21 24 24 25 25 28 32 36 39 41 44 48 52 55 58 62 65 64 65 69 69 56 49 49 52 53 47 42 37
81 74 60 55 54 56 56 49 45 40 36 33 35 34 32 31 24 20 17 14 13 11 11 15 21 22 22 22 24 27 30 34 37 40 44 47 50 54 57 61 65 64 66 69 72 65 51 47 49 52 54 50 41 35
78 71 56 55 56 57 55 52 40 37 31 33 37 37 32 26 23 21 15 12 9 11 15 18 21 21 21 23 26 29 32 34 37 41 46 50 52 55 60 65 65 67 69 73 70 56 47 48 51 53 52 51 43 35
72 62 59 58 59 58 53 49 44 39 37 38 36 33 28 25 21 13 11 11 12 16 18 19 20 19 20 22 25 29 32 35 38 44 49 52 55 59 64 65 69 69 73 74 60 49 46 48 53 54 52 50 46 35
66 61 63 63 60 55 52 46 41 38 38 38 35 32 30 24 15 13 12 14 19 18 17 18 17 18 21 24 28 32 35 39 43 48 52 53 59 65 66 69 70 74 77 68 54 46 46 51 54 52 50 50 45 35
67 67 64 65 59 53 51 42 39 40 36 34 33 31 24 15 16 15 15 19 19 16 17 18 18 20 24 28 31 35 39 43 47 51 54 58 63 68 69 69 72 77 72 57 48 47 50 51 50 49 48 48 44 31
69 66 66 60 58 56 51 42 40 37 35 32 31 27 18 15 17 19 18 18 17 16 16 18 20 23 27 30 33 37 42 47 49 53 57 63 67 70 70 73 80 75 55 44 48 49 49 48 49 48 50 48 38 26
68 68 65 63 59 56 49 45 42 37 30 25 21 16 18 19 22 19 15 17 15 15 16 19 22 26 29 32 36 40 45 49 52 56 62 67 70 68 72 78 75 59 47 46 46 46 48 49 50 51 53 46 32 22
71 68 62 58 52 50 46 41 36 29 24 16 17 18 22 24 20 15 14 16 15 16 19 21 25 28 31 34 39 45 48 50 52 59 66 68 67 69 76 73 56 46 47 46 46 50 53 52 52 53 54 44 25 19
69 63 58 50 42 45 42 35 27 19 16 21 20 23 25 23 18 11 15 16 17 19 21 24 27 29 32 38 44 48 49 51 57 63 65 66 69 74 74 55 43 45 45 48 52 53 52 51 52 51 50 35 18 17
61 58 55 49 48 44 37 28 19 15 20 23 23 24 23 15 10 13 16 17 19 21 23 26 28 32 36 42 46 47 50 55 61 63 65 68 74 74 55 44 44 44 50 53 54 53 51 49 46 47 37 21 11 17
58 54 48 45 41 37 30 23 19 24 26 26 27 23 15 11 13 14 16 18 20 22 24 27 31 35 40 44 46 49 54 58 61 63 66 74 74 54 46 46 46 50 54 56 54 50 44 41 41 40 23 10 9 19
53 51 48 43 37 28 18 16 19 24 24 23 19 14 14 14 15 16 17 19 20 23 27 31 34 39 43 44 47 51 55 58 60 62 68 70 50 46 45 45 49 52 54 55 50 43 39 36 38 28 16 10 12 19
51 45 39 26 20 23 20 26 28 29 27 20 16 16 15 16 17 17 18 21 24 28 31 34 38 42 44 47 52 55 56 58 60 64 69 53 41 41 41 45 48 50 51 51 45 39 34 34 28 17 7 4 14 13
37 28 26 25 22 27 31 31 29 26 20 17 17 17 18 18 18 19 22 25 28 31 33 38 41 42 45 49 52 54 55 57 60 67 57 39 39 38 40 43 45 47 47 46 42 35 29 28 19 11 6 3 6 9
28 24 22 23 28 29 29 27 22 20 20 19 19 18 19 20 20 23 26 29 30 33 38 40 42 45 47 50 52 52 54 57 64 60 41 37 35 36 39 39 39 41 44 44 43 36 26 22 17 7 5 4 5 8
24 25 26 27 30 29 26 23 21 21 21 21 21 21 21 23 26 28 29 30 34 37 39 41 43 46 48 50 50 52 53 59 60 43 34 33 32 34 35 35 36 39 41 42 43 42 33 22 16 12 9 9 7 11

GFSWCAN_500_spd_072.txt.gz
Wind_Speed
49 7 26 29 23 25 37 39 40 31 25 25 25 30 25 24 16 23 34 28 26 24 21 18 15 11 8 7 7 8 9 10 11 14 13 13 10 5 3 7 12 17 20 22 25 27 25 28 29 29 32 33 35 35
44 19 27 22 35 34 36 37 36 24 29 28 26 25 25 16 17 33 29 26 24 23 20 17 14 12 8 6 4 4 4 5 6 7 10 9 8 6 6 3 4 6 8 11 14 20 22 26 29 29 29 30 32 32
36 28 33 26 44 39 36 37 34 26 27 26 27 25 27 16 25 31 30 26 26 24 21 18 14 11 8 4 4 3 1 1 3 2 3 4 6 6 8 6 6 8 10 12 13 12 17 22 24 29 31 31 32 33
35 28 37 29 45 43 36 28 33 22 20 21 20 22 28 21 24 30 33 26 25 23 21 18 16 12 9 5 3 2 1 2 4 4 4 4 5 6 7 9 9 10 11 14 15 17 18 20 22 24 27 30 33 35
32 34 42 39 45 44 39 32 30 25 23 25 25 23 22 25 28 31 32 29 25 22 21 19 17 13 10 7 4 2 2 4 4 6 7 7 7 8 8 10 11 13 15 17 18 20 22 23 26 26 27 28 29 32
28 42 54 41 43 44 40 37 28 23 28 29 28 28 26 23 25 31 30 30 24 21 19 18 16 13 10 8 5 3 3 5 5 7 8 8 9 10 11 12 13 15 17 20 22 25 26 27 28 29 29 29 31 33
30 43 59 42 44 40 45 38 32 26 25 26 26 27 25 24 32 32 29 25 23 21 20 18 16 13 10 8 6 4 5 6 6 8 9 10 12 12 14 15 16 17 18 21 24 28 31 33 35 37 38 40 42 42
30 31 64 46 50 44 41 39 36 29 26 27 31 28 19 24 32 32 29 26 25 23 20 16 15 12 9 8 7 6 4 7 8 9 11 12 13 13 16 19 21 22 23 24 26 29 31 33 35 38 41 44 49 51
28 24 67 51 48 49 47 42 36 31 35 23 30 27 20 25 33 32 30 28 25 23 21 18 15 13 10 8 6 5 5 8 9 11 12 14 16 18 19 22 25 26 28 30 32 34 35 37 39 41 44 47 49 52
26 20 70 57 52 50 50 44 39 34 34 28 28 26 19 30 37 35 33 29 26 25 22 18 15 11 9 8 6 6 7 8 11 14 15 18 20 23 25 27 28 30 33 36 39 39 39 39 41 42 44 46 48 50
25 22 74 63 57 54 51 47 40 37 35 31 25 21 19 35 39 34 30 29 28 25 21 17 13 11 9 8 8 8 10 11 13 17 20 20 23 26 29 32 33 35 38 41 43 43 42 42 41 42 47 51 54 59
25 26 72 69 60 51 54 47 38 36 35 30 25 18 17 25 40 36 37 33 27 24 20 16 14 12 10 10 11 12 13 15 17 19 22 23 27 29 32 34 37 40 44 46 46 46 47 47 48 51 54 56 57 58
24 29 69 78 65 51 50 43 35 36 36 28 28 23 19 22 30 33 27 27 22 18 15 15 14 14 13 13 14 15 16 18 19 21 23 26 30 33 36 38 41 45 49 50 52 53 53 54 55 58 60 59 53 48
24 34 68 81 76 58 49 42 39 39 37 31 30 28 26 23 28 28 24 25 23 22 19 16 16 16 15 16 18 20 21 22 23 23 27 30 33 37 40 42 46 50 53 55 57 58 57 59 60 64 61 54 48 46
25 46 67 78 76 68 53 47 42 39 35 31 31 29 26 28 29 29 26 25 25 23 20 19 19 17 17 19 20 23 25 27 26 27 29 33 37 40 43 46 50 53 56 60 64 61 61 63 66 61 53 48 46 47
28 63 69 72 79 67 53 43 42 40 38 34 32 32 27 27 29 25 23 24 24 23 20 19 19 18 19 21 24 26 26 25 26 28 32 35 39 42 45 50 55 57 60 65 65 65 65 68 66 56 46 45 45 49
44 69 69 66 76 68 52 46 42 42 42 37 35 32 30 29 30 27 23 22 22 21 18 16 17 18 24 27 26 26 26 27 28 31 33 36 40 43 49 55 58 61 65 66 68 68 70 70 60 48 41 42 47 49
63 70 65 64 75 78 61 49 46 46 41 40 39 32 31 32 29 26 24 23 22 19 15 17 20 24 26 25 25 25 25 26 28 31 35 38 42 48 54 57 60 65 68 70 70 72 74 62 49 42 41 45 47 47
71 71 67 65 72 64 54 50 51 45 42 44 38 33 31 32 30 30 28 24 20 18 21 22 23 24 24 22 22 22 24 27 30 34 37 41 46 52 56 59 63 69 73 72 72 77 66 49 42 44 45 44 43 42
73 69 65 62 64 57 57 56 54 47 44 41 36 34 34 35 34 31 28 24 20 23 23 25 25 24 21 19 21 22 25 28 33 36 40 45 50 54 58 62 68 73 72 73 78 68 51 43 45 45 43 43 44 42
66 64 67 63 57 58 58 56 52 46 43 39 37 37 38 38 34 30 25 24 25 26 27 25 24 21 19 19 21 23 26 30 34 38 42 46 51 54 59 67 72 72 74 80 72 54 46 46 43 43 46 47 47 46
64 67 68 64 56 59 59 57 50 44 42 40 39 39 39 39 33 25 25 28 28 26 24 23 22 20 19 20 22 24 28 31 36 41 45 49 53 57 64 70 72 73 79 72 56 49 48 47 49 51 52 50 48 48
72 69 64 58 60 60 60 56 52 47 44 41 40 39 38 36 27 25 27 28 27 24 23 22 19 17 19 21 23 26 30 34 39 45 49 52 57 63 69 73 73 78 72 56 52 49 50 54 56 56 53 48 45 44
71 70 67 60 57 60 58 55 52 49 46 42 41 39 37 30 25 28 27 28 27 23 20 18 17 17 20 23 25 28 32 37 43 49 51 55 61 67 71 71 77 74 60 51 50 53 58 59 60 56 51 45 41 40
72 69 66 63 59 58 55 54 52 46 44 41 37 34 30 27 27 29 29 29 24 21 19 17 16 18 21 24 27 30 35 41 46 49 53 57 63 69 70 75 74 64 53 50 54 59 61 61 57 52 47 39 39 35
70 69 65 63 61 60 57 51 45 42 39 34 30 26 29 29 31 31 28 27 22 19 17 17 17 20 22 26 29 34 40 44 47 51 55 60 66 70 70 73 62 52 50 52 56 58 57 56 53 48 43 41 30 19
66 65 65 63 62 57 54 47 40 37 37 30 30 30 31 32 32 25 28 25 20 17 16 17 19 21 24 27 32 38 42 45 49 53 57 63 68 69 72 66 54 47 49 53 54 54 53 53 49 42 40 33 18 8
64 63 62 61 58 54 50 45 41 34 33 32 33 35 35 28 21 25 22 19 18 16 17 18 20 23 26 31 36 41 44 48 52 56 61 66 70 68 69 56 46 45 47 49 51 53 53 50 43 38 31 26 14 5
62 61 58 56 56 53 45 40 31 27 31 36 37 37 28 26 24 21 20 19 17 16 17 19 22 25 29 34 39 42 46 50 54 58 63 67 66 70 58 49 43 45 46 48 50 51 53 48 39 33 27 22 13 3
60 58 56 52 50 46 33 30 26 31 36 36 34 31 29 24 21 20 20 18 16 16 19 21 25 28 33 37 40 45 49 52 55 60 64 64 65 62 50 43 42 44 43 45 47 48 49 47 35 29 24 20 10 3
59 55 53 48 40 35 26 26 32 35 33 31 30 27 24 21 20 20 19 17 17 19 21 24 28 31 37 40 44 48 50 54 57 61 63 60 64 52 42 39 40 41 41 40 41 43 46 45 35 25 19 15 11 8
51 48 43 35 32 29 33 37 37 35 32 28 26 24 21 20 20 19 17 17 19 21 24 27 31 35 38 42 46 48 52 56 59 61 58 60 57 44 38 37 38 38 37 36 37 40 43 43 38 25 17 13 10 7
41 40 36 32 34 38 39 37 37 33 29 26 23 20 20 20 19 18 18 20 22 24 27 30 34 37 41 44 47 50 54 57 59 58 57 56 44 37 34 36 36 35 33 34 34 37 39 42 39 32 21 14 12 11

GFSWCAN_500_spd_075.txt.gz
Wind_Speed
51 14 12 12 14 32 30 36 25 26 25 31 26 27 26 19 14 16 28 30 27 25 24 22 20 16 16 15 13 12 11 11 10 11 11 9 9 8 5 7 9 11 13 14 14 17 19 19 22 24 27 29 30 32
45 21 19 21 16 22 28 22 21 19 25 30 25 25 26 21 17 14 24 28 27 24 23 21 18 16 12 11 10 8 7 6 6 6 6 5 4 4 2 0 1 3 4 5 7 10 13 16 17 20 22 25 27 29
44 27 26 27 21 21 16 27 20 14 19 25 21 23 21 21 16 21 29 29 26 24 21 21 19 16 12 10 9 7 5 3 2 1 1 1 1 2 3 4 5 6 6 7 9 13 15 17 19 21 23 24 26 28
44 34 32 33 32 26 23 25 19 17 20 20 19 19 20 15 22 26 34 31 27 24 21 20 17 15 14 11 9 7 4 3 2 2 3 4 6 7 7 8 9 10 11 12 14 16 16 19 21 23 27 28 29 31
40 33 26 40 39 36 29 25 18 21 19 17 14 15 17 12 24 30 32 30 26 24 21 20 18 15 13 11 9 7 4 4 3 4 5 5 7 8 10 11 11 12 13 15 17 19 22 24 27 29 31 33 35 37
36 30 15 42 46 45 35 28 24 21 18 17 14 12 15 14 22 28 30 29 25 22 20 20 18 16 14 12 10 8 7 6 5 5 7 8 8 10 11 13 14 14 17 19 20 22 25 27 30 33 36 38 41 42
35 25 21 46 44 47 43 33 28 26 23 22 19 16 14 15 23 24 32 29 26 24 22 21 19 17 14 13 11 9 9 7 5 6 8 9 11 11 13 15 16 18 19 21 25 27 30 33 35 36 37 38 40 42
34 24 22 48 46 47 51 42 31 31 25 25 23 20 21 17 21 22 29 32 27 24 22 22 20 16 14 13 12 11 9 7 7 7 9 11 12 14 18 18 20 22 24 26 29 32 35 38 41 41 41 42 43 44
32 25 25 39 51 50 50 44 38 31 24 24 25 25 22 21 25 25 26 29 29 27 22 20 18 17 15 14 12 10 8 8 8 8 11 13 15 16 18 21 25 27 29 31 34 37 41 44 45 45 45 45 44 45
30 25 22 33 53 52 50 49 44 38 29 26 27 26 24 28 28 28 29 28 25 23 25 21 18 17 17 16 13 10 9 8 8 10 12 15 19 20 22 24 27 30 32 35 38 43 46 48 48 48 48 47 48 49
26 23 24 22 49 54 48 44 46 43 33 30 27 28 28 24 29 32 31 28 26 27 26 25 23 21 18 15 12 10 10 9 11 14 14 16 20 23 26 29 31 35 37 40 43 48 50 52 51 49 49 51 53 56
25 25 25 22 45 59 55 50 44 44 40 38 29 28 31 29 31 35 35 31 29 27 27 27 23 19 16 15 13 13 12 12 13 16 19 20 22 25 29 31 34 37 40 43 48 51 53 55 57 56 55 56 60 66
24 28 26 24 44 61 56 53 51 50 44 40 36 31 29 30 37 38 35 32 30 24 27 23 20 18 17 16 15 15 15 16 19 20 23 25 26 28 30 33 36 39 42 48 53 55 57 60 61 63 62 68 70 63
26 28 25 28 43 65 57 53 53 52 48 41 39 34 31 29 33 38 33 31 27 28 26 24 22 19 18 19 17 17 19 21 21 24 25 26 28 30 33 35 39 42 47 53 56 58 62 66 67 66 73 71 63 51
27 27 28 27 41 67 59 56 54 56 50 44 43 39 29 27 23 30 37 34 32 31 28 27 23 21 21 20 17 19 23 23 25 26 27 28 31 32 35 38 41 46 53 57 61 63 69 72 71 73 71 61 48 40
28 29 28 27 45 73 62 57 57 57 51 47 47 39 30 27 26 30 34 34 34 33 31 27 23 22 21 21 20 23 23 24 27 28 28 30 32 34 37 40 45 51 57 61 64 69 74 73 75 72 58 45 40 41
28 29 32 27 48 70 68 58 54 54 50 50 44 35 31 29 31 33 33 34 31 28 27 25 24 24 25 24 24 24 24 26 27 27 28 31 34 36 39 44 49 56 60 63 69 75 74 77 73 61 45 41 41 40
26 33 33 33 57 65 69 63 57 55 51 48 41 34 31 33 35 34 35 33 30 28 26 27 26 27 26 25 24 24 25 26 26 27 30 33 35 38 42 47 54 59 62 67 74 77 78 74 64 50 44 42 42 43
31 34 33 48 64 68 69 67 58 57 50 44 41 32 32 34 35 37 34 31 28 28 28 28 29 27 26 23 24 26 25 26 27 29 32 34 36 41 46 53 57 60 65 72 77 79 75 66 55 48 47 49 50 51
37 33 35 68 66 70 68 67 61 54 50 42 40 34 34 35 38 37 34 31 29 29 28 29 28 26 25 24 26 26 26 27 28 31 34 35 39 45 51 56 58 63 69 75 77 78 70 59 52 53 56 57 58 57
39 33 62 72 68 70 67 70 62 59 53 42 41 36 37 37 39 36 32 30 30 28 28 27 28 27 25 25 25 25 26 27 29 32 33 37 43 49 55 57 60 66 73 78 79 71 63 54 54 58 59 60 60 55
35 44 79 71 68 69 65 66 63 56 48 45 42 39 42 39 38 36 34 34 32 30 29 30 29 27 26 25 24 23 26 28 31 31 34 39 46 51 54 58 63 70 77 80 75 68 56 55 58 59 60 61 57 50
34 67 74 67 67 68 68 63 56 54 53 48 44 41 43 41 39 37 36 33 32 31 32 29 27 27 26 23 23 24 27 30 31 33 38 44 49 53 57 61 66 74 78 77 70 60 54 56 58 58 60 60 53 45
55 77 70 65 64 66 69 64 61 55 50 47 42 41 42 41 40 38 35 31 30 31 28 27 25 25 24 23 24 26 28 30 32 36 41 47 51 56 60 64 70 76 76 72 63 55 53 56 58 60 61 58 49 43
73 68 73 72 70 71 68 64 58 52 49 44 43 43 44 43 40 36 33 30 32 30 27 26 25 24 23 24 25 26 28 30 34 39 45 48 53 57 61 67 73 75 73 63 54 52 53 57 59 62 60 53 43 38
69 73 76 74 74 70 65 59 54 52 49 47 45 43 42 40 36 32 31 33 31 29 26 26 24 22 22 24 26 26 28 32 37 42 46 51 54 58 63 69 74 72 66 55 49 51 52 55 57 60 57 47 38 29
74 74 73 76 72 63 57 55 52 51 51 48 43 40 39 36 36 31 34 33 31 28 25 24 21 21 24 25 25 27 30 34 40 44 49 52 56 59 65 71 71 68 57 49 48 48 49 52 56 58 50 40 34 23
76 71 73 73 64 59 54 52 51 51 50 46 41 37 35 35 27 30 33 34 31 26 23 21 21 23 24 25 26 29 32 37 41 46 51 54 57 62 69 70 67 62 50 45 46 46 47 49 53 55 45 35 29 17
72 72 72 65 58 53 50 48 47 47 48 44 39 37 30 27 31 33 33 31 26 22 21 21 23 24 24 24 27 30 35 39 43 49 53 56 59 65 69 65 62 55 46 44 43 43 44 46 49 52 43 32 26 16
73 72 67 61 54 49 48 47 46 43 41 37 31 29 32 35 36 35 30 26 23 21 22 23 23 23 24 26 28 33 37 41 46 50 54 57 61 67 65 62 57 48 42 42 41 41 42 42 44 48 43 29 23 17
69 64 56 52 49 47 46 45 41 38 35 31 30 37 38 37 34 29 26 25 23 23 24 23 23 24 25 27 31 35 39 43 48 51 54 58 62 63 59 56 50 42 41 40 38 40 40 39 41 43 43 32 21 16
60 54 48 45 45 45 41 36 33 33 36 40 42 43 38 33 30 27 25 24 25 25 24 23 23 25 27 30 34 38 41 45 49 52 56 58 61 57 57 51 44 38 39 37 36 38 37 37 39 40 40 37 25 16
50 44 37 34 38 40 39 35 37 40 40 40 37 34 33 30 26 25 25 26 26 24 23 23 24 26 29 33 36 39 43 47 49 53 55 57 56 55 52 44 37 37 37 35 36 36 34 36 38 39 38 38 32 20

GFSWCAN_500_spd_078.txt.gz
Wind_Speed
65 67 17 10 10 3 4 5 10 8 6 11 14 11 6 5 2 13 21 21 18 19 20 22 20 18 18 17 16 15 14 14 12 11 8 6 5 4 2 2 3 5 6 8 10 12 14 14 16 17 20 22 24 27
63 62 31 10 12 13 10 11 6 5 4 10 7 10 8 3 3 17 19 19 17 20 20 22 20 17 15 13 12 9 9 8 8 7 6 4 2 2 2 4 4 7 6 8 10 12 14 15 17 20 22 24 25 28
57 58 45 16 21 24 20 12 7 7 7 13 9 11 13 11 5 12 21 20 18 20 20 19 20 18 15 12 10 7 5 4 3 2 1 2 3 4 5 6 7 8 9 10 12 15 16 18 21 22 24 27 31 34
52 56 50 7 20 23 25 15 11 11 9 15 12 12 12 10 10 13 24 23 19 19 19 19 17 16 15 12 9 7 5 4 4 3 3 4 5 7 8 10 10 11 12 14 15 17 19 21 24 26 28 30 33 36
49 54 56 29 30 27 32 27 22 18 14 14 13 13 11 11 12 17 27 23 21 20 19 18 16 15 14 12 10 9 8 6 5 5 5 6 7 8 10 11 13 13 15 16 19 21 22 23 25 28 31 33 35 38
48 50 50 46 16 38 36 34 32 25 18 16 13 11 10 9 11 20 25 24 24 23 19 19 17 15 14 12 10 10 8 8 6 6 7 8 8 10 12 13 15 17 18 19 21 23 25 27 29 32 37 39 41 41
48 48 48 41 25 38 45 39 35 28 22 22 20 15 12 11 11 17 26 26 25 25 22 20 18 16 15 13 12 11 11 10 6 7 9 9 10 13 14 15 17 18 19 22 24 26 29 31 34 38 43 46 47 46
47 49 50 43 26 23 47 44 41 33 29 26 22 21 18 13 12 21 26 26 27 27 23 21 20 17 16 14 14 13 13 11 10 9 10 11 13 15 16 18 19 21 23 26 28 31 33 36 40 44 48 51 50 51
44 48 49 39 25 26 40 50 48 42 35 30 27 25 22 20 16 19 24 28 29 29 25 22 21 20 16 15 15 14 13 12 12 11 11 13 15 16 18 21 23 25 27 30 33 35 38 40 45 49 52 55 54 55
44 46 44 33 26 25 29 50 54 51 46 34 31 29 28 26 23 21 23 26 27 35 28 25 22 21 18 17 17 16 15 13 13 12 13 15 19 19 20 23 26 28 31 33 37 39 41 46 50 53 55 57 58 59
44 46 44 34 25 29 22 45 53 52 49 42 35 31 29 29 27 25 26 25 23 32 27 26 25 22 20 19 20 18 16 14 13 15 15 16 20 23 25 27 30 32 35 37 40 42 46 51 55 57 60 62 64 66
46 47 43 32 27 28 24 35 50 46 47 44 40 35 33 31 29 27 28 30 26 29 28 27 25 24 22 19 20 20 17 15 14 17 20 20 23 25 26 29 32 34 37 40 43 46 51 56 59 61 66 69 68 69
46 47 37 30 29 26 26 27 47 49 48 49 45 41 36 35 36 29 28 30 28 28 26 25 25 24 22 23 21 20 17 15 18 18 20 23 25 26 28 30 34 36 39 42 46 51 57 60 63 69 72 72 69 67
48 44 32 29 30 26 28 25 47 50 46 49 50 45 40 38 40 33 27 31 33 31 29 27 24 24 24 25 24 20 19 19 20 20 23 25 26 27 29 33 35 38 41 45 50 56 60 63 69 74 74 71 69 57
49 40 31 30 30 28 32 27 49 56 51 50 50 48 44 40 35 32 31 33 35 35 30 28 28 28 30 29 25 21 20 22 22 24 25 27 28 29 32 35 39 40 44 48 55 59 63 68 74 76 72 69 61 50
39 33 28 31 31 31 35 29 52 59 56 54 52 50 46 39 34 31 31 35 39 37 34 33 32 32 32 30 25 24 23 22 25 26 28 29 30 32 35 38 40 42 46 53 58 62 66 72 79 77 71 63 54 50
32 25 32 34 34 35 38 32 51 60 60 58 56 52 45 40 38 34 31 37 42 38 36 33 33 34 31 30 27 25 25 24 25 27 28 29 31 34 37 39 41 44 50 56 60 65 70 77 82 76 69 58 54 56
29 30 35 35 36 40 40 32 52 65 64 58 55 52 46 44 41 35 34 35 39 40 37 35 34 34 33 32 28 25 24 24 26 28 29 31 33 35 38 40 43 48 54 59 63 68 74 81 80 74 64 56 56 58
31 35 32 33 37 40 45 36 53 67 62 57 52 51 48 43 43 37 38 41 40 40 39 37 36 35 33 31 27 24 23 25 28 30 32 33 34 37 39 41 46 51 56 61 67 72 77 82 78 70 60 57 58 60
34 34 32 34 39 44 48 43 49 66 63 55 48 46 46 40 39 40 40 43 41 41 40 40 35 32 32 28 24 24 24 27 30 32 33 34 36 38 40 44 49 54 59 64 69 75 80 77 73 64 59 59 61 65
36 35 32 36 40 46 42 36 53 65 62 57 49 44 38 35 38 39 41 42 41 40 37 33 33 34 28 25 24 24 25 28 31 33 34 35 38 40 43 48 52 57 61 66 71 77 80 76 68 60 58 60 64 67
36 35 35 40 42 47 46 39 61 66 65 60 50 41 36 35 38 39 42 42 40 39 37 36 35 28 25 24 24 25 27 29 31 32 34 36 38 41 45 49 54 59 63 67 74 78 77 72 61 57 57 61 65 67
40 39 39 43 44 49 44 49 66 68 70 62 52 46 38 37 39 40 42 41 41 39 38 35 30 25 24 23 25 26 27 28 30 32 35 36 38 42 46 51 55 60 66 70 76 76 75 66 57 55 57 61 65 65
44 46 48 48 48 52 46 54 70 70 72 66 53 49 40 38 40 41 40 40 41 40 36 32 27 24 23 25 26 26 27 29 31 34 36 38 40 44 48 53 58 63 67 72 75 75 70 59 54 54 56 60 64 60
50 55 55 53 52 51 48 64 75 73 71 63 56 49 42 41 43 44 40 42 42 38 34 28 23 23 25 26 25 26 28 30 33 35 37 39 43 46 51 56 60 64 70 74 73 70 61 53 51 52 54 58 62 55
59 61 58 53 51 47 51 70 74 69 66 61 55 50 45 44 44 45 39 38 37 34 31 25 23 24 25 25 25 26 29 32 34 36 38 40 44 48 53 58 63 66 70 71 67 63 53 49 49 49 51 54 57 50
61 59 54 50 46 45 56 67 66 64 64 59 54 47 45 45 46 43 39 40 39 37 30 25 24 24 24 23 25 28 31 33 35 36 38 42 45 50 55 59 63 68 69 68 65 56 48 46 46 46 47 50 52 46
58 52 49 43 41 47 57 60 62 64 63 57 52 47 46 45 42 38 38 40 34 28 28 25 25 24 23 24 27 29 31 33 34 36 39 43 47 52 55 60 63 67 66 64 58 49 45 43 43 42 45 47 48 44
48 47 42 37 40 48 55 58 61 61 58 50 48 47 44 41 35 35 31 31 29 30 28 27 25 24 24 26 28 30 32 33 35 37 41 45 49 53 57 61 65 65 65 60 51 45 42 42 40 39 41 44 44 42
43 38 34 43 49 52 53 54 56 55 51 47 47 44 39 34 32 27 27 31 33 30 27 26 23 23 25 28 28 30 32 33 35 39 43 47 51 55 60 62 65 64 61 55 47 42 40 40 37 37 39 41 42 40
41 34 42 48 50 53 54 54 51 48 46 45 46 42 35 30 29 30 32 32 29 28 25 22 23 25 27 28 28 30 31 34 37 41 45 48 52 57 60 63 63 61 57 50 43 41 40 39 37 36 38 40 41 39
38 38 48 50 51 51 52 51 47 45 43 43 39 37 35 33 31 32 32 31 29 27 24 23 24 26 27 28 28 29 32 35 39 42 46 50 54 57 59 63 60 57 51 45 41 40 39 38 37 36 38 40 41 39
41 47 51 49 47 46 47 46 47 46 40 37 35 32 32 34 35 34 29 28 27 23 23 24 25 27 28 27 27 30 33 36 40 43 47 51 54 57 61 61 57 52 46 41 40 39 39 38 37 37 39 41 41 39

GFSWCAN_500_spd_081.txt.gz
Wind_Speed
46 50 55 35 5 4 3 8 13 10 10 9 8 12 15 17 16 7 4 6 12 16 19 20 21 21 21 20 18 16 15 13 12 10 8 7 5 3 2 4 5 5 5 7 7 9 11 12 14 15 18 20 21 23
43 43 48 46 11 11 8 6 12 11 9 9 11 14 12 14 11 4 2 4 9 12 14 15 15 15 14 15 14 13 12 10 9 7 6 4 3 0 2 4 5 6 8 9 11 13 14 15 18 19 21 22 23 25
42 37 39 45 32 17 19 17 15 14 14 16 15 12 12 9 5 1 7 6 9 9 12 13 13 12 10 9 8 7 7 5 4 3 1 0 2 4 5 6 8 10 11 13 14 16 18 20 21 22 24 25 27 28
39 36 31 37 41 26 28 23 24 20 18 16 17 13 13 10 7 5 12 11 10 12 12 14 13 12 10 8 6 4 4 3 2 1 3 4 4 6 8 8 10 12 13 14 17 18 20 22 23 25 27 29 31 33
37 35 29 32 39 32 24 31 25 24 21 20 18 17 12 10 10 9 15 17 14 15 15 15 14 12 10 9 8 6 6 5 4 4 5 6 7 9 10 11 12 14 15 16 17 20 22 24 27 29 31 33 36 38
38 35 31 31 37 40 27 31 35 31 27 24 22 20 17 13 13 13 16 21 20 19 16 17 16 14 11 10 10 10 9 9 9 7 8 9 10 11 12 13 15 16 17 18 19 22 24 27 30 32 34 37 40 43
39 36 31 31 36 40 37 26 42 37 34 31 25 24 22 17 16 15 18 22 24 23 19 19 18 15 13 13 12 12 11 11 11 10 11 11 11 13 14 15 17 18 19 22 24 26 28 31 33 36 38 41 45 49
41 38 31 31 37 42 41 33 28 50 38 37 34 29 25 21 18 17 18 23 27 27 23 21 20 18 17 15 14 14 14 14 14 13 13 12 13 14 15 16 18 20 22 25 27 29 32 34 37 39 43 47 51 52
42 39 32 33 38 41 43 39 29 35 44 36 38 37 28 24 22 19 19 23 28 28 27 25 24 23 20 18 16 16 16 15 14 14 15 15 15 16 18 19 22 24 26 29 31 34 35 38 40 43 48 52 54 57
39 39 32 34 39 42 43 40 30 26 43 41 38 37 33 29 26 22 21 24 27 30 29 26 26 25 24 22 19 18 18 17 15 15 15 16 19 20 21 23 25 27 30 32 35 36 39 41 44 48 53 56 59 63
39 38 35 35 39 43 45 40 30 27 33 43 41 39 35 33 30 26 26 25 27 29 27 29 27 27 26 24 22 20 19 18 16 16 17 17 21 23 24 26 28 30 32 35 37 39 41 44 48 53 56 60 65 69
41 37 36 36 39 44 46 37 28 31 29 41 43 43 39 37 34 31 29 29 29 29 27 29 32 29 29 27 24 22 22 19 17 19 21 19 23 22 24 27 28 30 33 36 38 41 44 48 53 56 60 65 71 73
42 36 37 36 40 46 46 34 29 32 32 38 45 45 45 42 39 34 30 28 26 25 26 28 33 33 31 28 26 26 23 20 19 21 21 24 23 24 26 28 30 32 35 38 41 44 47 53 58 61 65 71 74 74
42 37 38 37 44 49 46 34 31 33 33 36 46 46 49 48 42 35 30 30 29 27 30 30 30 32 29 29 29 25 23 21 22 23 25 25 25 26 28 29 31 34 38 41 44 47 52 57 61 65 70 75 78 71
41 39 38 40 47 49 46 37 33 35 36 33 47 48 49 49 43 37 32 31 30 29 31 32 32 32 33 34 30 27 25 25 23 25 25 26 27 28 29 30 33 36 40 43 46 50 55 61 65 69 75 79 76 70
42 38 39 44 49 51 47 36 35 39 38 36 43 50 47 48 46 39 32 32 31 33 31 35 36 36 35 36 32 28 26 24 27 27 27 28 28 28 29 32 35 39 42 45 49 53 59 63 67 72 77 79 75 69
40 37 45 47 51 49 42 38 40 43 44 43 31 48 48 47 45 38 34 33 33 33 34 36 37 35 35 35 32 28 26 28 28 28 29 29 29 30 31 34 37 41 44 47 52 57 62 66 71 77 79 79 72 65
39 43 49 51 53 49 41 40 43 46 43 36 31 42 50 47 44 39 36 34 35 34 36 39 38 38 37 35 31 30 31 30 28 29 29 29 30 31 32 35 39 42 46 50 54 60 64 69 74 79 81 78 68 61
42 46 51 53 50 46 44 43 45 44 42 36 31 33 53 49 45 41 35 37 37 37 37 40 42 40 37 33 33 33 31 28 29 29 29 30 30 31 33 36 40 43 47 51 57 62 67 72 77 80 82 77 65 60
45 50 53 53 47 46 46 46 42 41 39 37 39 28 52 53 48 44 42 37 36 39 40 41 43 40 37 35 34 33 29 29 28 27 28 29 30 32 34 37 41 44 49 54 59 65 70 75 79 81 78 69 61 60
51 52 53 50 47 45 46 44 39 37 36 33 41 43 45 57 49 44 47 40 40 40 37 36 38 39 38 37 35 31 30 28 26 26 27 28 30 32 35 38 41 46 51 57 62 67 72 76 79 80 74 62 58 58
55 51 51 48 46 45 46 42 38 35 36 38 39 41 47 59 49 41 37 43 42 37 37 38 40 41 40 38 34 32 30 26 26 26 27 28 30 33 37 40 44 50 54 59 64 68 73 77 79 77 65 57 54 55
56 53 50 49 48 49 46 43 39 36 37 35 44 35 50 56 53 47 41 42 37 35 38 40 41 38 35 33 32 30 27 26 27 26 27 29 31 34 37 40 45 51 56 61 65 70 75 77 77 69 58 53 51 54
58 52 51 53 52 52 47 43 38 38 37 35 34 32 47 54 52 48 44 37 30 36 39 40 38 36 34 33 30 27 26 27 25 26 28 29 31 34 37 42 47 52 57 62 66 72 75 77 73 61 53 48 47 50
57 57 59 61 58 54 51 46 41 38 38 36 36 32 41 53 52 48 43 36 32 37 39 37 35 34 34 28 27 26 27 25 24 26 28 30 33 35 39 44 49 54 59 63 68 73 76 75 65 53 49 44 45 48
59 62 60 57 54 53 52 50 45 39 39 42 43 37 40 52 54 50 41 36 34 37 38 35 30 31 30 27 24 25 24 23 25 26 28 31 33 36 42 46 50 55 60 65 70 74 74 69 57 48 46 42 41 44
62 65 62 54 52 51 49 49 45 45 47 45 45 40 43 53 55 48 41 38 36 35 37 38 37 34 28 24 24 24 22 23 25 26 28 31 34 38 43 47 52 56 62 66 70 74 70 62 50 45 44 40 39 42
65 66 56 48 50 48 43 43 44 48 48 47 46 45 47 54 54 48 42 39 37 36 38 40 35 30 29 24 24 24 22 23 25 26 28 31 35 40 44 48 53 57 62 66 71 72 63 53 45 43 42 40 39 40
63 53 52 49 47 47 47 48 45 44 43 44 44 42 45 51 51 50 45 40 39 39 36 31 32 30 28 26 25 24 23 23 25 27 29 32 37 41 45 49 53 58 62 66 72 65 57 48 43 43 42 40 38 39
52 51 50 48 45 46 45 42 40 39 41 38 35 37 43 46 44 46 43 38 39 33 33 33 29 27 29 27 25 24 22 23 25 27 30 34 38 42 46 50 55 59 63 68 70 60 52 43 41 43 40 39 38 39
49 47 46 46 43 38 35 35 38 34 33 35 34 34 35 36 40 40 38 37 38 35 31 28 29 30 28 27 25 22 22 23 25 28 31 35 39 43 47 51 56 61 64 71 62 55 47 42 43 40 38 38 39 40
43 40 41 39 33 32 31 33 33 37 36 29 25 26 29 34 36 35 37 36 33 31 30 31 29 27 26 24 21 20 21 23 26 29 32 36 40 43 48 52 58 61 68 63 55 49 42 42 40 37 37 39 41 42
34 34 32 31 31 30 30 33 36 34 31 26 22 23 28 31 33 36 32 29 32 34 33 31 26 24 24 20 18 19 21 23 27 30 34 37 41 45 49 54 58 63 63 55 50 43 40 40 37 36 38 41 43 45

GFSWCAN_500_spd_084.txt.gz
Wind_Speed
38 39 42 33 34 38 26 22 22 16 15 18 19 18 18 14 8 8 11 13 15 18 19 19 20 20 20 18 17 15 15 12 12 10 7 7 6 5 4 4 5 5 5 7 8 9 10 11 13 13 15 18 19 21
37 34 40 37 33 24 27 23 23 24 17 13 12 16 17 12 4 1 5 9 10 12 14 15 15 14 13 12 12 11 11 10 9 7 5 3 2 1 2 3 5 6 9 10 11 12 14 15 17 19 20 22 24 26
34 31 37 34 33 33 30 31 28 25 24 18 12 11 15 17 12 9 6 7 7 6 7 9 9 9 7 6 7 7 6 5 4 2 1 1 2 4 5 6 8 9 11 12 13 14 16 17 19 20 22 24 26 28
32 34 34 34 35 32 29 31 28 30 30 25 20 12 11 18 19 17 14 11 10 10 9 8 9 7 3 1 1 1 1 1 1 2 3 4 5 7 7 8 9 10 11 12 13 14 17 19 21 22 24 26 28 31
30 34 33 34 34 33 31 28 34 25 36 30 25 21 13 15 18 22 23 18 15 15 12 12 10 9 8 6 6 6 6 6 6 6 7 7 7 8 8 9 10 11 12 13 15 17 19 22 24 26 27 30 32 34
30 32 33 40 37 34 33 32 31 33 26 37 30 24 24 16 17 19 22 28 23 20 19 17 15 14 13 12 11 10 10 9 11 10 10 10 10 10 10 10 11 13 14 15 17 19 22 25 27 29 30 33 34 37
30 32 34 36 39 35 35 34 35 34 28 26 38 30 27 26 20 21 21 24 29 27 25 22 22 21 19 17 16 15 14 13 12 13 13 13 13 12 13 13 15 16 18 19 22 24 26 28 30 32 34 36 38 42
31 31 35 35 38 34 34 34 36 35 34 24 29 41 35 32 27 24 23 23 23 28 30 28 26 24 23 22 20 19 19 17 16 14 15 15 15 14 15 14 17 19 21 23 25 27 29 31 33 36 37 40 44 49
31 32 34 36 37 34 33 34 36 38 36 29 29 37 41 38 33 28 27 25 24 25 29 32 31 29 25 25 24 23 23 21 18 17 17 17 18 16 17 18 20 22 24 25 27 29 31 33 36 38 41 45 50 54
32 34 33 36 37 34 34 34 37 39 39 37 29 30 39 39 37 32 29 27 26 25 26 31 31 31 29 28 28 28 26 24 21 19 18 19 22 20 20 20 22 24 25 27 29 31 34 36 38 41 45 50 55 58
35 33 33 37 40 36 36 36 38 41 41 42 33 26 39 41 39 36 32 30 27 24 24 28 31 30 29 29 29 29 27 26 23 21 19 20 24 24 24 23 25 27 29 30 31 33 36 39 41 44 50 55 60 63
36 37 36 39 41 39 37 39 40 41 43 44 34 27 29 44 43 42 36 31 27 24 21 24 28 31 32 31 28 29 30 29 26 23 22 21 25 26 25 26 28 30 31 31 32 35 39 41 44 48 54 59 63 68
39 39 37 38 43 42 39 41 42 43 44 47 38 31 27 42 48 45 41 31 26 26 29 27 27 30 34 34 36 32 33 31 28 24 22 24 25 27 27 28 30 32 31 32 34 38 41 43 47 52 57 62 68 73
40 42 38 39 43 43 41 42 43 44 46 48 45 34 32 32 48 47 45 37 31 28 27 27 27 31 32 33 36 34 34 32 30 25 23 26 27 28 29 30 33 32 31 32 35 39 42 46 51 56 61 67 73 78
43 44 41 43 46 44 43 43 45 44 47 48 49 39 31 29 32 46 48 45 37 32 30 29 30 31 34 34 36 39 38 35 28 24 26 27 28 28 30 30 33 32 32 33 37 41 45 49 54 59 65 71 77 82
45 44 43 46 49 46 44 43 45 45 47 49 47 33 26 29 30 41 45 44 42 37 35 32 31 33 33 35 35 33 31 28 25 27 30 29 29 29 30 31 33 31 32 34 39 43 47 52 57 62 69 74 81 85
43 41 47 47 48 48 45 45 48 48 46 48 40 31 26 29 31 31 43 40 42 40 37 36 33 33 34 35 35 32 28 27 27 29 31 30 30 31 31 32 32 32 33 36 40 44 49 54 59 65 72 78 84 83
44 46 48 49 49 48 48 48 48 50 45 47 41 33 29 30 36 32 40 41 40 42 42 40 37 34 35 34 29 29 29 29 29 30 31 31 30 32 31 33 31 32 34 37 42 46 51 56 62 68 74 80 84 80
44 48 50 50 51 50 51 49 49 48 46 46 40 33 30 32 35 39 36 46 40 41 41 43 41 36 34 32 31 31 31 28 29 31 32 29 30 30 31 31 31 33 36 39 43 49 53 58 64 70 76 82 84 75
44 47 49 51 52 52 52 48 46 47 47 45 39 35 33 35 37 38 37 46 46 41 44 41 38 40 36 36 35 33 33 31 29 30 29 29 29 29 29 30 31 33 36 39 44 50 56 61 67 73 78 81 77 66
46 48 52 53 53 52 52 49 49 48 47 43 38 36 36 37 38 35 29 39 52 48 42 42 37 36 38 38 38 37 34 32 30 29 27 28 27 27 28 30 31 34 36 41 46 52 57 63 69 74 79 79 70 60
48 51 55 56 56 55 54 52 51 51 48 42 39 39 37 36 35 38 42 42 47 48 46 42 40 37 36 38 37 39 38 36 32 30 30 25 27 26 27 29 31 33 37 43 48 53 59 64 70 75 78 74 63 53
50 55 60 58 57 57 57 56 55 52 49 40 37 37 37 38 40 43 48 43 45 53 46 44 39 42 40 40 39 38 36 34 32 32 26 25 26 25 27 29 30 34 39 44 49 54 60 65 71 76 76 66 57 49
53 58 58 60 60 59 58 55 55 53 52 41 37 38 35 38 40 41 42 45 43 52 43 39 42 41 37 38 40 40 35 30 32 25 21 24 24 25 27 28 30 35 40 45 50 56 61 66 71 75 72 61 51 47
57 58 62 62 62 59 57 58 57 55 47 39 40 40 38 37 40 39 35 31 41 47 42 40 40 38 35 37 41 39 33 32 25 22 23 24 24 24 25 27 31 35 41 46 52 56 61 67 72 72 66 56 48 45
62 63 62 62 64 63 63 62 59 51 42 41 43 43 43 40 37 33 24 21 37 42 38 37 35 33 33 39 39 35 34 24 23 23 23 23 23 22 24 27 32 36 42 48 52 58 63 68 71 69 61 50 46 43
67 69 67 66 68 68 65 57 48 40 39 39 42 43 43 42 39 32 30 25 36 36 33 33 33 31 31 40 42 36 27 26 22 21 23 22 21 21 24 28 32 38 44 49 54 59 64 68 69 64 54 47 45 40
70 72 73 72 69 64 59 56 54 50 44 42 44 44 42 41 38 35 35 30 36 39 30 27 29 31 35 37 33 30 30 25 21 20 23 21 18 21 25 29 34 39 45 50 54 60 64 68 65 58 50 45 41 37
73 70 68 67 64 61 60 57 46 44 44 38 35 39 39 38 37 38 37 34 35 39 32 27 27 30 29 34 36 35 30 23 20 20 23 19 18 21 26 30 35 41 46 50 55 60 65 65 60 53 48 42 37 37
62 60 59 54 52 48 40 34 33 36 36 35 35 36 36 36 36 38 36 30 34 37 33 28 25 26 26 36 40 36 27 22 20 22 22 18 19 22 26 31 36 41 46 50 56 61 64 59 56 49 44 39 36 39
47 44 40 38 38 31 26 29 34 36 35 33 31 31 32 32 33 35 34 32 35 33 32 28 26 29 30 31 32 29 25 23 22 22 19 18 20 23 27 32 37 42 46 52 56 61 60 56 52 46 41 37 38 41
25 28 35 32 26 25 29 32 31 30 28 28 30 30 33 31 28 29 32 31 29 31 31 26 28 30 31 31 26 25 25 24 23 20 18 18 21 24 28 33 38 43 48 53 57 60 55 53 48 42 38 38 40 43
22 27 26 26 25 25 24 25 24 25 26 28 30 31 28 30 31 31 30 27 27 28 28 28 31 31 29 27 25 25 23 23 20 18 16 19 22 25 30 35 39 44 49 54 58 55 52 49 42 39 37 39 42 44

GFSWCAN_500_spd_090.txt.gz
Wind_Speed
32 30 30 30 30 32 31 33 36 37 37 37 32 17 13 9 7 7 6 7 9 11 12 12 11 10 9 8 7 6 6 5 3 5 5 6 6 7 7 8 9 10 10 11 10 11 11 12 13 13 15 16 17 18
33 29 30 30 31 29 31 30 33 33 35 35 36 29 19 14 11 4 6 5 5 2 4 6 7 8 7 6 6 5 5 4 6 7 8 8 8 8 9 9 9 10 10 11 11 12 12 13 14 15 16 18 19 21
32 29 29 27 31 30 28 29 30 32 33 33 33 40 34 21 19 16 11 11 11 11 9 7 7 6 6 6 5 5 5 6 6 7 7 8 9 10 10 10 9 10 10 10 11 11 12 14 14 15 16 17 20 23
32 31 30 27 28 30 29 27 27 29 32 32 34 36 39 35 22 22 20 18 18 19 18 16 15 14 11 10 9 10 10 10 10 10 10 10 11 11 12 12 12 11 12 12 12 12 14 15 16 16 17 19 22 25
34 33 32 30 27 28 30 28 27 27 30 33 33 37 38 41 25 24 26 24 23 23 24 22 21 21 20 18 16 14 14 15 15 15 14 14 16 14 15 14 14 14 14 15 16 16 17 19 19 21 22 24 26 28
35 36 35 32 30 28 29 30 31 29 28 30 32 33 36 37 35 22 25 28 26 27 27 29 29 27 28 27 25 23 20 20 20 20 19 18 21 18 16 17 18 17 17 17 19 20 20 21 23 24 26 28 31 33
37 39 38 34 33 32 29 30 31 31 29 28 31 32 35 35 36 31 21 25 33 31 32 31 32 35 34 34 33 31 30 28 25 23 23 23 24 23 19 21 21 20 21 20 21 22 23 24 26 28 29 31 34 36
39 40 39 37 36 34 33 31 31 31 32 29 28 29 30 35 34 31 27 25 26 36 37 37 37 36 38 41 40 39 38 37 33 31 27 27 26 27 19 28 23 22 23 23 24 25 25 28 29 31 33 35 37 40
41 42 42 41 40 36 36 33 34 32 32 31 31 28 29 31 33 34 30 29 28 30 35 41 42 42 41 41 44 45 44 42 40 37 35 34 28 23 28 27 25 26 25 25 26 27 28 30 32 33 35 38 40 43
45 40 41 41 41 39 39 38 35 35 31 33 32 33 29 30 31 34 34 35 32 31 33 34 45 47 45 42 41 42 46 46 44 40 41 39 27 30 33 25 27 27 27 27 28 29 30 32 34 35 36 39 42 45
47 41 42 43 42 42 42 41 39 37 31 32 31 33 32 31 30 33 36 37 39 40 33 35 40 47 44 41 40 40 42 42 45 44 41 40 24 33 31 28 27 26 28 29 30 30 31 34 35 36 37 40 44 47
52 47 46 46 45 44 43 43 42 41 36 34 31 31 34 34 32 32 35 37 40 40 39 35 35 43 43 41 40 40 39 42 42 40 39 33 24 30 31 29 28 28 29 30 32 32 33 34 36 37 38 41 46 49
57 51 51 50 49 48 44 43 43 43 41 37 34 31 35 35 32 33 36 38 39 40 42 37 34 36 43 43 42 40 41 39 41 42 37 25 26 29 31 30 30 28 29 31 32 33 35 35 36 37 39 42 47 49
50 51 53 53 52 51 47 44 44 44 44 40 35 33 36 40 36 35 37 38 38 39 41 40 36 37 39 45 43 41 42 41 40 39 38 33 31 32 31 30 31 34 35 33 34 35 36 36 36 37 39 43 47 49
50 53 55 57 56 52 49 47 47 45 46 43 37 34 34 40 37 36 36 37 37 38 39 42 40 36 38 40 46 45 42 41 38 40 42 37 34 34 34 33 32 34 34 35 35 36 39 37 36 37 39 44 47 50
54 56 60 60 55 52 50 49 48 47 47 45 37 34 35 38 37 38 38 38 36 38 40 42 43 41 40 40 40 46 46 41 42 40 39 38 34 36 35 33 34 35 36 37 36 38 39 35 36 37 40 44 47 50
59 60 60 56 52 51 50 51 50 49 51 43 32 32 35 37 37 37 39 39 36 37 40 43 44 44 40 40 37 37 44 43 43 42 40 38 41 37 34 34 37 38 38 38 40 37 35 33 35 37 40 44 47 50
60 60 59 57 54 53 54 53 53 54 52 39 34 34 37 37 36 36 39 39 36 37 42 41 43 40 29 33 33 35 41 44 40 38 34 32 37 43 42 42 37 37 39 40 36 34 34 33 34 37 40 43 47 51
59 59 58 57 55 55 56 56 58 57 51 42 39 38 39 39 39 38 39 41 38 38 41 38 41 43 32 32 37 40 39 42 43 41 38 34 34 40 43 43 42 42 45 39 34 33 33 32 33 37 40 43 46 51
58 57 54 55 56 58 60 61 60 59 55 43 41 42 41 41 38 37 39 41 39 38 40 38 40 43 44 41 41 41 39 41 41 39 36 38 37 38 43 46 45 46 45 34 33 32 32 30 32 36 39 42 46 51
60 57 56 60 62 62 62 63 62 60 55 49 43 44 43 42 41 39 41 43 40 36 38 39 42 45 46 47 41 36 37 38 40 39 33 35 39 40 41 44 46 47 40 32 33 32 31 29 32 35 38 41 45 51
49 53 60 62 65 64 63 63 64 60 56 53 49 46 44 45 43 42 46 45 40 33 38 44 44 45 44 43 41 38 35 31 30 34 40 36 36 40 43 44 44 47 38 33 33 33 30 28 31 34 37 41 45 51
56 57 59 64 66 62 61 62 64 63 58 56 50 47 46 45 45 45 48 43 38 33 42 46 45 48 44 43 39 39 38 41 40 40 39 39 38 36 42 43 45 42 36 34 33 33 28 27 31 34 37 40 45 51
58 60 64 65 64 62 60 63 64 60 56 53 50 48 47 48 46 48 48 41 37 38 45 47 49 50 44 42 41 40 42 48 46 48 45 39 39 39 39 39 37 36 35 35 34 33 26 26 31 34 37 40 45 51
64 67 66 64 62 62 63 64 62 60 57 52 49 50 49 48 49 51 44 39 36 45 47 52 55 51 46 43 45 44 40 42 51 54 40 42 43 40 42 41 37 36 36 34 34 31 24 26 31 34 38 41 46 51
67 66 61 56 55 59 61 60 58 57 54 52 51 50 48 50 54 48 41 37 46 49 52 54 54 50 46 46 47 44 42 44 41 30 37 45 46 40 41 40 40 35 34 33 34 27 23 27 31 34 38 42 46 49
61 53 50 51 54 56 55 54 56 56 56 53 50 51 54 56 53 48 43 53 55 56 54 52 51 49 48 50 50 42 41 35 30 33 36 36 37 38 35 36 33 28 30 32 31 23 24 27 31 35 39 43 47 48
51 49 48 51 53 51 52 53 54 54 52 51 53 54 55 52 50 48 54 59 59 57 55 53 52 51 51 53 51 41 34 31 30 32 34 32 35 29 34 34 28 26 25 30 27 21 24 27 31 35 40 44 48 48
46 46 49 52 53 52 52 50 47 49 50 52 52 52 51 52 55 58 61 64 65 63 60 59 58 56 55 52 44 37 31 30 32 35 36 37 34 35 38 33 27 25 25 29 24 22 25 28 32 37 41 45 48 47
47 49 50 50 49 48 46 46 48 51 50 49 51 54 56 57 61 63 65 66 67 66 64 61 59 57 54 45 41 37 30 30 35 37 37 35 33 36 34 29 27 26 26 27 23 23 26 29 34 38 43 47 47 47
50 51 50 47 46 48 48 48 46 46 50 54 57 59 61 63 64 65 66 67 68 67 62 58 56 52 44 38 40 34 30 34 38 36 30 32 36 36 31 25 27 26 26 24 21 23 27 31 36 40 44 46 46 47
46 46 48 46 43 42 43 47 53 57 59 61 61 63 65 66 68 69 69 66 62 56 53 51 46 42 38 37 38 34 34 37 38 34 33 35 34 34 27 26 26 25 25 21 20 24 29 33 37 42 45 44 46 46
43 41 42 46 48 51 54 55 56 59 62 64 64 63 63 66 66 61 56 52 47 43 42 41 38 38 36 35 38 34 36 39 40 38 33 31 34 31 25 27 25 25 23 19 21 27 30 34 39 43 43 44 45 43

GFSWCAN_500_spd_093.txt.gz
Wind_Speed
34 33 33 33 32 31 29 28 29 26 27 26 32 32 31 13 5 2 1 1 4 7 9 10 11 11 11 11 10 9 7 8 8 8 8 8 8 9 8 8 7 8 8 8 8 9 8 9 9 10 11 13 14 16
33 32 32 33 31 31 30 28 27 27 26 27 25 28 34 31 13 11 9 8 6 4 3 4 4 6 8 9 8 8 7 8 8 8 9 8 8 9 10 10 11 10 10 10 10 10 11 11 12 12 13 14 16 19
30 32 31 33 31 30 28 29 28 29 28 26 28 27 29 36 31 13 15 14 14 14 11 9 7 6 7 8 11 11 10 11 9 10 10 10 11 11 11 11 12 11 11 11 11 11 12 13 14 14 14 15 18 20
31 28 31 32 32 31 28 28 27 28 28 27 27 28 29 30 35 29 15 18 19 19 19 19 17 16 15 14 14 15 16 16 16 16 14 14 15 13 13 12 14 13 14 12 14 15 15 15 16 16 16 18 19 21
37 31 30 31 32 33 29 29 26 27 29 28 26 26 26 29 31 34 26 15 18 22 22 23 24 24 24 24 23 23 23 22 22 21 20 20 19 20 16 16 20 16 17 16 17 18 19 19 19 20 20 21 22 24
36 36 33 31 31 32 32 30 29 26 28 29 28 26 24 24 26 28 27 23 18 12 19 25 29 30 32 32 32 32 32 31 30 29 27 24 25 26 20 16 26 21 20 22 21 21 22 23 23 24 25 26 26 27
33 37 39 33 32 32 32 31 30 28 27 28 29 27 25 24 23 22 21 21 21 18 17 16 22 30 38 39 38 39 40 41 40 38 36 33 32 32 26 18 30 25 23 24 25 24 25 25 26 28 29 30 31 32
36 34 39 40 37 35 35 36 34 31 28 28 28 28 28 26 24 23 21 19 20 22 18 15 15 25 30 40 44 46 45 46 47 47 44 42 40 39 29 29 33 30 27 27 27 28 27 28 29 30 31 33 34 35
39 33 36 39 43 39 37 38 36 33 31 30 29 29 29 31 27 26 24 23 24 23 21 16 16 16 19 27 35 46 52 51 49 47 49 49 45 40 36 38 36 31 29 31 30 30 30 30 32 32 33 35 37 38
40 38 37 40 44 46 40 39 35 33 33 33 32 30 28 31 31 28 27 26 25 25 24 24 23 23 25 29 30 34 44 49 49 47 46 44 44 41 39 40 38 33 33 34 33 33 32 32 32 35 35 36 38 39
44 43 41 41 44 46 42 41 38 35 35 34 35 33 31 31 32 33 29 30 29 29 28 27 27 30 31 32 36 37 39 42 45 41 42 39 39 36 37 37 38 37 34 33 34 34 34 34 34 35 37 38 39 40
49 48 48 46 45 48 47 44 42 40 38 36 38 37 34 33 34 35 32 32 32 32 31 30 29 28 32 34 36 37 37 39 41 40 39 35 36 33 31 35 39 38 36 34 34 34 35 35 36 37 38 38 39 40
53 51 51 49 47 48 50 50 48 46 42 40 39 39 37 35 36 36 35 35 34 33 32 30 30 29 32 34 36 38 37 35 35 37 39 38 36 36 30 34 37 37 36 35 35 35 35 36 38 39 39 39 41 41
56 55 53 51 50 51 54 57 55 50 46 45 43 41 39 36 36 38 38 37 36 33 32 29 31 30 33 34 37 38 40 39 34 29 36 39 36 32 30 30 36 35 36 36 36 37 37 39 39 39 40 41 44 41
59 56 53 54 54 55 58 58 54 51 49 48 48 47 37 35 37 41 40 39 38 37 34 30 32 31 33 36 37 40 42 43 39 33 34 38 39 37 32 27 33 35 36 37 38 37 38 42 40 40 40 43 42 39
61 56 56 57 58 59 61 59 56 53 52 52 52 46 38 38 38 40 38 37 37 37 35 31 31 33 32 36 37 39 43 45 44 42 39 37 37 38 34 33 34 38 41 41 41 41 44 45 45 45 44 42 39 38
59 59 57 60 60 60 60 60 58 57 56 56 51 41 39 39 40 39 39 37 36 35 35 31 32 30 31 33 36 38 41 44 41 42 39 38 36 36 35 33 34 37 42 43 40 45 49 48 48 45 40 42 39 37
65 60 60 62 64 61 64 62 61 60 58 55 48 40 38 39 39 40 40 39 37 37 37 31 32 29 32 33 35 39 39 42 44 40 37 36 37 37 39 37 35 37 41 45 49 48 48 47 47 41 42 42 38 35
65 61 61 59 65 66 67 65 63 60 59 55 50 45 41 39 40 42 42 42 39 40 37 30 32 33 34 33 35 40 41 41 43 42 39 37 40 40 38 37 37 38 41 43 45 46 47 50 44 40 41 41 36 34
64 58 57 59 60 64 63 62 61 59 62 58 52 48 45 44 43 43 43 43 45 47 35 30 34 39 36 35 35 39 43 42 42 44 40 38 38 35 35 35 35 37 40 43 45 47 48 46 38 40 40 39 33 31
72 58 56 62 64 63 60 57 56 56 60 60 53 51 49 47 47 45 44 45 49 47 33 31 40 42 41 38 36 38 42 44 44 44 43 39 39 33 32 35 37 38 40 42 43 44 43 46 36 38 39 38 31 31
62 64 63 68 70 65 60 58 57 58 59 60 55 52 51 50 48 47 47 49 50 41 35 34 44 42 41 42 39 39 40 44 48 47 42 43 42 42 41 40 38 41 42 43 43 36 40 39 35 36 37 36 29 31
60 65 64 66 70 65 59 58 56 56 57 58 57 56 54 50 49 49 50 49 46 39 37 39 48 43 42 43 39 40 42 45 46 44 44 45 45 44 46 47 44 44 45 44 41 35 38 32 33 34 35 34 28 31
59 66 68 70 70 63 57 55 53 52 54 57 59 57 53 51 48 49 50 47 41 40 40 47 47 42 44 43 41 41 43 45 47 44 45 48 50 46 42 47 55 53 46 47 40 35 34 30 32 33 34 30 27 31
63 70 71 69 67 59 55 53 50 48 47 48 51 53 53 51 50 49 47 45 42 41 47 48 46 45 45 42 45 46 47 49 51 45 45 49 48 46 50 54 48 46 44 43 41 34 31 33 33 33 33 27 26 31
67 68 63 58 61 55 50 49 49 45 45 46 48 51 53 53 52 50 46 43 44 48 49 49 49 49 47 46 49 48 48 52 53 45 46 48 45 47 44 36 33 36 40 42 42 32 34 35 32 32 30 25 27 33
65 58 54 50 54 52 48 45 42 41 43 41 42 46 52 54 53 48 46 50 51 51 52 52 51 50 49 52 53 50 49 52 52 50 47 45 38 40 37 33 37 39 41 43 35 31 35 33 32 30 26 25 27 34
57 57 51 48 51 46 40 36 36 39 39 39 42 46 49 50 50 47 49 52 54 54 53 52 52 50 52 55 53 51 51 54 53 50 46 39 35 36 33 33 37 34 30 27 25 28 30 28 30 27 24 25 29 36
52 51 53 55 55 50 42 40 41 42 42 43 45 46 47 47 46 48 51 53 53 54 54 53 53 56 57 55 55 57 56 54 51 46 42 34 35 36 37 33 34 29 24 27 30 32 31 29 29 26 24 26 31 37
48 52 49 50 47 40 37 38 38 39 41 42 44 47 47 46 47 49 52 53 53 54 54 56 56 56 56 58 60 61 56 50 48 40 33 34 38 37 36 31 30 29 30 31 30 32 30 29 29 26 25 29 34 40
43 43 41 39 38 37 36 36 36 37 40 43 45 47 47 48 49 50 51 52 54 54 52 53 56 59 62 63 61 56 48 44 38 32 33 37 36 35 30 27 28 29 30 31 30 30 28 29 29 26 27 32 37 42
40 35 34 32 30 32 35 36 38 40 42 44 46 48 50 51 48 48 52 53 52 53 54 58 61 61 59 55 49 45 34 31 28 31 34 34 35 31 25 27 26 28 31 30 28 28 27 29 28 26 30 34 41 42
33 31 29 31 31 33 35 38 40 42 44 46 49 50 48 46 45 45 49 51 53 57 61 65 60 53 49 43 35 27 23 26 28 31 32 32 32 25 23 29 31 34 30 25 27 26 28 29 26 28 32 39 42 41

GFSWCAN_500_spd_096.txt.gz
Wind_Speed
48 43 31 28 25 25 25 27 25 22 22 22 23 26 30 34 32 9 11 7 4 2 3 4 5 6 6 6 6 6 6 7 6 8 8 9 8 8 8 9 9 9 8 8 8 8 7 7 7 7 7 8 9 10
45 41 31 29 28 26 23 23 27 23 21 21 22 22 24 28 34 30 9 16 13 10 7 5 3 3 4 4 5 6 7 8 10 11 10 10 11 11 13 12 12 11 11 11 11 10 11 11 10 11 11 11 12 14
40 42 36 26 31 28 26 24 24 25 22 20 19 20 19 21 26 29 27 13 19 19 17 14 12 11 11 10 11 13 14 14 15 16 16 16 17 16 15 15 16 18 16 16 16 16 15 15 15 15 16 16 17 19
37 40 35 29 30 28 28 27 25 25 23 22 18 18 19 17 17 21 21 23 17 17 23 24 21 21 20 21 20 20 21 22 23 23 23 23 23 24 22 22 19 22 19 20 19 21 19 20 20 20 20 21 21 22
38 37 34 32 33 27 28 27 27 25 24 23 22 18 18 18 16 14 15 17 18 18 15 18 26 27 27 29 30 31 31 31 32 33 33 33 32 33 29 25 20 31 27 24 22 25 24 26 25 25 25 26 26 27
39 40 35 31 32 29 30 26 28 28 23 23 24 22 19 18 16 16 13 13 12 13 13 11 7 11 21 26 34 36 36 38 41 43 44 43 42 42 39 30 21 38 34 30 26 28 27 28 30 29 29 30 31 32
41 40 44 37 30 32 33 31 29 30 30 27 27 24 22 20 19 18 17 16 15 15 10 9 11 10 14 10 19 18 19 27 40 45 45 47 47 47 45 39 31 42 41 36 30 34 32 33 32 32 33 33 33 35
43 43 43 41 34 32 34 35 34 30 32 32 28 28 25 21 20 20 20 19 19 20 19 14 12 10 16 19 24 25 26 27 33 37 40 44 45 46 44 44 38 39 44 42 39 37 37 37 36 35 36 36 37 37
48 41 46 43 39 37 36 36 38 34 32 33 30 28 28 26 24 22 23 23 21 22 23 23 21 18 20 22 26 31 30 31 30 27 28 29 29 38 41 42 40 38 41 43 43 42 40 41 40 39 37 38 39 39
56 51 50 46 41 39 40 37 38 38 35 37 32 28 27 31 29 26 24 25 24 24 25 26 26 27 25 27 27 33 33 30 33 27 33 24 22 34 34 35 35 36 37 39 41 41 42 41 42 42 41 41 41 41
60 55 56 53 48 44 41 43 40 39 39 39 38 32 29 29 32 32 27 28 28 24 27 28 29 30 30 25 29 29 33 33 32 34 33 26 22 29 33 33 33 32 34 36 38 40 40 41 43 43 43 43 42 42
67 64 60 60 56 51 45 44 44 42 41 42 42 42 36 34 35 35 30 31 31 29 28 29 29 29 30 28 27 30 30 34 34 34 35 34 27 26 31 32 31 32 32 35 34 36 37 40 41 41 42 43 42 42
73 72 69 66 63 59 55 47 46 46 46 46 45 47 45 40 39 34 30 34 34 34 32 32 31 30 30 33 32 32 31 32 35 35 36 36 35 30 27 31 32 30 30 34 35 34 36 37 40 41 42 43 43 45
80 78 75 71 69 65 63 57 49 49 50 52 50 51 50 51 43 31 32 37 36 36 37 35 35 33 32 33 33 34 31 30 34 34 36 39 38 36 31 28 30 34 32 32 35 36 38 39 40 42 44 45 46 52
80 79 79 73 71 69 63 62 54 54 53 55 55 56 53 48 40 37 36 38 40 37 37 37 35 33 32 33 30 32 31 29 31 35 37 40 43 41 38 34 30 32 34 35 37 39 41 43 43 44 47 50 53 55
75 75 77 76 71 70 64 62 59 59 61 59 60 57 57 49 40 41 40 40 42 39 37 38 37 34 34 34 34 32 30 29 30 35 36 39 42 44 42 38 35 33 34 35 36 42 46 47 47 49 51 51 51 52
67 74 70 74 73 67 67 64 63 65 66 64 60 59 57 49 44 43 42 43 44 41 40 41 37 36 33 35 36 34 32 31 29 34 37 40 40 42 44 42 35 35 35 37 40 38 41 47 51 52 51 48 51 50
64 66 71 68 68 62 68 69 67 68 66 63 62 54 52 50 48 46 45 45 46 44 43 43 40 34 29 32 41 37 33 32 31 33 36 39 38 41 43 45 42 37 34 34 35 39 41 43 47 49 51 50 47 41
59 58 62 70 65 64 70 74 69 64 62 61 59 53 53 51 51 49 48 48 48 46 46 46 42 28 27 40 45 39 35 36 36 34 37 41 39 39 41 42 43 41 36 33 34 36 40 41 43 47 49 45 43 39
59 69 69 67 59 65 71 75 64 58 58 57 58 55 53 52 50 53 52 51 50 50 52 46 34 31 36 43 47 39 36 36 38 37 39 42 41 39 40 41 42 40 39 38 34 35 41 42 39 43 44 39 42 41
59 61 60 71 64 67 70 73 68 57 55 53 50 53 57 54 53 52 53 54 55 55 49 40 37 38 41 43 48 40 37 37 37 37 39 41 42 40 40 42 44 42 41 43 44 45 44 42 41 42 39 37 42 40
55 59 59 78 71 67 70 67 69 64 56 50 51 51 54 55 54 54 55 56 55 52 44 43 44 42 42 46 47 41 39 39 40 38 39 42 43 43 42 42 44 46 44 45 46 44 43 44 49 47 40 38 39 37
55 64 64 82 78 74 73 66 66 64 56 50 51 51 51 53 55 56 59 55 53 49 44 46 44 43 43 45 44 41 41 43 41 40 41 44 45 42 43 43 45 46 46 46 46 47 52 54 53 49 41 37 32 35
55 54 63 75 78 77 76 74 64 60 55 51 52 50 49 50 51 55 53 49 48 46 45 45 46 43 43 42 43 44 44 44 43 41 44 46 46 46 46 44 43 46 46 46 48 51 44 34 36 38 33 32 30 36
51 54 58 68 76 70 65 63 62 58 53 48 51 52 47 46 49 50 46 43 43 43 43 43 43 41 42 43 44 45 47 46 46 43 47 49 49 50 48 43 44 47 45 42 44 34 26 24 26 30 30 30 33 37
51 54 57 57 63 61 57 55 55 52 48 46 47 45 45 47 47 38 32 35 40 43 44 41 42 43 45 47 47 45 46 46 44 46 48 50 49 51 50 44 44 46 43 40 38 32 30 28 30 29 29 32 35 35
57 57 51 46 47 51 55 55 50 47 45 43 44 44 44 47 41 31 34 35 38 41 42 43 45 48 49 49 47 45 45 44 45 48 49 50 52 54 53 47 44 44 41 38 36 33 34 31 24 24 27 28 30 33
60 49 45 43 39 38 45 49 47 41 37 40 46 46 43 39 30 33 38 39 41 43 43 44 46 47 46 46 45 45 45 46 48 49 50 53 55 57 57 54 46 40 38 37 34 33 32 23 20 21 25 29 30 33
53 46 43 45 45 38 39 45 41 37 37 38 44 46 41 38 39 41 42 44 43 45 46 47 48 46 46 46 45 45 47 48 49 50 53 56 58 60 61 54 43 36 34 34 33 30 23 21 24 28 30 31 31 33
49 45 40 35 37 37 32 35 33 34 36 40 42 43 41 37 37 40 44 46 47 49 49 48 47 47 46 44 46 47 48 50 52 55 57 58 61 61 54 43 35 31 29 28 26 22 23 24 26 27 29 31 31 34
50 48 43 39 39 38 41 40 39 39 41 43 45 42 37 39 41 42 43 45 46 47 48 47 45 43 44 47 49 51 52 54 56 57 59 61 60 51 40 33 29 25 23 24 22 22 23 25 28 29 30 30 31 33
42 41 42 43 42 42 44 43 43 44 44 44 42 39 40 41 40 40 43 45 45 44 42 42 42 44 47 48 50 53 55 56 57 58 57 53 44 36 30 25 21 20 22 21 24 25 25 27 29 28 28 29 31 33
42 42 42 44 45 46 43 40 38 38 39 38 39 40 41 41 42 43 40 42 41 40 41 43 44 44 46 50 53 54 55 56 54 46 40 35 28 24 21 16 17 20 21 22 24 24 26 28 27 27 27 29 31 33

GFSWCAN_500_spd_099.txt.gz
Wind_Speed
46 44 44 33 35 31 29 26 20 16 16 16 18 20 19 23 27 28 15 13 11 8 8 7 6 6 6 6 7 8 8 7 5 6 7 9 9 11 13 15 18 17 17 16 16 16 16 14 14 13 12 13 13 12
50 50 46 34 33 33 29 28 24 17 16 13 12 15 16 15 20 23 23 25 10 17 15 13 13 12 11 12 13 13 14 16 17 18 17 16 16 17 18 17 22 22 22 21 22 20 20 19 19 18 18 18 17 17
49 47 46 37 29 31 31 31 27 22 17 17 12 11 12 12 10 15 17 17 22 20 13 19 20 21 20 20 22 22 24 25 26 28 30 30 29 29 26 24 26 25 27 27 27 25 25 24 23 23 23 23 23 24
45 40 40 40 32 29 31 33 31 25 20 18 15 11 12 11 10 6 9 12 14 14 16 11 10 17 21 26 29 31 33 33 35 36 39 40 41 45 38 36 33 29 33 34 30 29 33 27 27 29 27 28 28 27
37 36 35 40 36 31 29 32 34 29 24 22 18 14 11 13 13 10 8 9 9 9 10 9 9 10 9 11 13 15 17 19 20 25 33 42 45 52 49 41 38 39 38 43 37 35 36 34 34 34 34 34 33 33
31 32 35 37 35 35 30 30 34 35 30 27 23 23 16 14 16 16 13 12 12 11 9 10 7 5 6 7 9 12 16 17 22 22 26 30 35 37 47 43 44 45 37 39 44 37 37 38 38 40 39 38 37 38
36 32 36 36 35 38 39 36 35 36 36 32 30 26 27 19 18 21 18 16 15 14 15 14 13 12 12 12 12 14 20 19 22 26 29 32 34 33 37 43 48 39 36 32 37 46 41 38 40 42 42 41 41 42
48 40 39 41 36 36 42 44 42 39 36 36 36 33 29 27 23 23 23 20 20 18 18 18 18 19 17 18 18 18 22 24 23 25 28 32 34 38 37 40 43 38 32 30 30 35 41 41 40 42 43 44 45 45
57 51 45 46 45 39 41 41 41 46 40 38 39 38 34 30 30 28 27 25 23 24 20 19 22 22 21 21 22 23 25 25 26 25 26 28 32 37 38 37 38 38 32 29 30 33 36 39 40 41 43 44 44 45
65 58 54 50 49 47 45 45 45 47 45 41 41 41 38 33 36 34 30 28 25 25 25 23 24 24 25 24 25 26 25 26 27 29 27 27 29 34 37 38 39 34 36 35 32 31 34 38 37 38 39 39 41 43
76 72 69 66 58 56 56 52 50 50 50 47 44 44 42 39 40 40 38 28 26 26 27 25 28 29 28 28 27 26 27 28 29 29 28 28 29 31 33 35 37 39 38 36 36 34 34 34 34 37 38 38 40 41
90 83 79 76 73 66 63 62 58 55 54 53 49 47 47 46 46 47 44 32 29 31 29 29 29 31 31 31 31 30 29 28 28 29 28 30 30 30 31 34 35 38 40 37 35 36 35 35 31 34 37 39 40 42
95 95 83 81 76 75 72 71 67 64 57 57 56 51 51 53 54 54 47 34 32 33 33 34 34 35 33 33 34 33 31 28 26 27 28 31 32 31 31 35 37 38 42 43 38 35 35 35 33 32 34 37 40 42
85 85 85 84 84 79 81 76 78 71 66 64 63 60 56 59 59 57 48 42 40 37 35 36 37 39 38 37 38 35 35 32 26 27 27 31 33 33 33 35 37 42 43 45 43 39 36 34 35 38 41 43 45 47
73 75 81 84 83 76 80 75 71 79 70 72 70 66 62 60 58 58 52 49 44 41 41 40 40 39 41 41 40 36 37 39 29 29 26 31 33 34 37 40 39 39 42 44 43 42 39 35 35 37 37 41 46 50
65 66 66 69 70 72 77 63 70 79 67 73 79 71 67 66 63 57 56 55 50 46 46 46 44 45 43 44 40 35 37 41 37 29 27 30 32 34 36 40 41 39 40 42 43 41 38 37 35 35 38 39 40 43
60 62 60 61 60 61 54 71 77 77 76 78 79 74 70 69 66 61 56 56 54 51 50 51 49 47 48 46 36 32 37 47 40 30 28 29 33 34 36 40 42 41 41 39 41 42 39 38 36 35 36 37 36 37
55 52 54 55 56 65 72 68 75 79 79 67 74 71 65 61 61 62 59 56 54 53 52 52 53 53 51 42 33 35 44 46 43 34 32 33 34 35 37 39 41 41 41 41 39 41 39 39 40 39 39 38 35 35
49 51 55 59 62 66 73 69 70 80 74 60 61 64 58 58 59 57 58 57 54 53 55 53 56 57 40 34 33 39 42 43 45 39 35 35 36 35 37 39 41 42 43 42 40 42 41 40 43 43 44 42 37 34
46 48 52 57 63 68 76 82 72 64 66 68 67 65 58 59 60 56 56 57 56 56 54 53 54 46 39 39 40 41 43 44 46 42 39 39 41 40 39 40 42 43 42 45 44 44 46 45 47 47 43 43 41 42
46 48 47 43 51 64 76 84 76 71 61 64 64 63 61 61 65 60 58 57 58 55 51 49 48 44 45 46 46 45 44 47 48 44 41 42 43 42 41 41 45 44 44 45 45 46 46 46 48 49 46 46 48 50
46 46 42 46 57 68 66 81 87 76 65 60 64 65 61 60 62 61 58 60 59 52 50 45 45 48 51 51 49 47 47 48 46 45 44 45 45 44 43 43 47 46 45 46 45 45 46 47 50 46 48 50 49 38
46 48 47 50 54 58 63 70 79 72 64 62 64 67 62 61 62 60 59 58 53 48 46 44 48 52 53 51 50 46 46 46 47 46 46 43 44 45 45 47 49 49 47 46 47 47 47 48 45 43 40 35 29 25
50 60 49 50 62 65 65 61 76 78 65 57 61 65 58 58 63 64 56 51 45 42 40 43 48 52 49 45 43 42 45 48 48 47 43 43 44 43 46 47 51 51 49 48 48 49 50 47 42 39 33 29 26 22
56 67 67 56 53 54 57 58 62 66 59 64 58 56 51 50 52 60 55 47 44 41 41 43 48 48 44 41 42 44 47 48 48 45 41 45 45 45 46 50 52 50 51 50 50 51 50 46 40 37 33 32 29 27
60 58 64 61 49 46 45 50 61 62 61 59 65 68 55 53 54 58 52 45 42 41 40 45 45 42 39 39 43 47 46 46 46 44 44 46 47 48 50 52 52 52 54 51 51 53 49 42 37 36 33 32 31 26
56 62 59 56 48 44 43 44 48 52 54 58 54 58 56 51 47 45 44 43 44 45 44 41 39 38 38 39 41 40 42 46 48 46 45 47 48 50 52 53 54 54 53 51 53 52 46 39 35 33 29 31 29 21
57 56 56 43 41 46 44 39 40 49 52 49 52 58 52 43 38 40 42 45 47 44 41 38 37 40 40 39 39 40 43 45 45 43 43 45 49 50 52 54 54 53 53 54 53 48 42 37 32 28 29 28 20 19
67 67 59 54 50 48 47 40 36 38 44 44 46 47 40 40 44 46 47 48 46 41 36 38 41 42 40 41 41 41 42 41 40 42 43 45 48 51 53 53 54 55 55 53 47 42 37 32 26 26 26 21 20 23
67 68 68 59 54 49 43 41 38 37 36 40 46 51 49 51 48 44 45 44 40 40 40 42 43 42 42 42 42 41 42 43 43 42 43 46 50 52 54 54 54 56 54 49 41 34 30 24 23 22 20 19 21 24
60 61 65 63 53 49 43 44 42 42 41 39 40 48 56 54 46 41 38 35 36 41 43 43 42 41 42 41 41 42 42 41 42 43 46 49 52 52 53 54 55 53 49 41 32 26 24 22 22 21 20 19 22 25
45 48 50 55 57 47 45 46 45 42 42 40 38 43 44 43 38 36 34 34 34 38 42 42 42 41 41 41 40 40 42 45 46 46 48 51 52 53 54 54 48 44 38 26 22 22 20 19 18 17 20 23 24 25
37 44 48 47 50 60 48 45 41 44 46 43 41 41 44 43 37 33 35 38 40 41 40 40 40 41 41 42 42 44 45 47 47 49 51 51 51 51 48 42 37 29 22 21 20 19 19 18 17 18 20 23 24 26

GFSWCAN_500_spd_105.txt.gz
Wind_Speed
54 50 46 40 38 34 33 31 30 26 24 21 19 16 14 16 18 18 15 16 17 18 11 12 16 17 17 18 18 18 19 21 22 24 22 20 19 20 21 22 24 23 26 29 30 35 37 37 36 34 32 33 34 33
49 46 46 41 39 33 35 30 33 31 28 23 20 19 16 15 17 18 19 15 15 15 14 12 10 11 13 16 20 20 19 16 13 14 14 16 17 18 20 21 24 27 30 29 29 23 29 34 36 36 33 31 32 32
46 43 46 45 42 37 35 34 33 31 31 27 24 21 19 16 15 19 19 20 18 17 17 16 13 11 8 9 9 10 11 11 12 14 14 15 18 17 21 22 22 24 27 28 29 26 30 25 30 36 36 34 33 34
51 45 46 47 45 42 38 35 36 35 31 29 26 23 22 20 18 18 20 21 21 21 22 21 18 17 14 12 11 13 15 18 19 19 20 21 22 23 21 22 25 26 28 28 28 30 31 33 32 27 33 37 37 36
55 53 49 47 45 45 42 37 32 35 34 34 27 28 26 26 25 21 24 24 24 23 24 25 25 24 23 20 18 18 19 19 22 24 25 25 26 26 24 27 28 28 29 29 29 30 29 30 31 32 29 27 32 36
59 58 54 53 48 46 44 41 35 34 35 37 39 33 32 30 28 27 27 30 30 28 25 27 27 29 29 28 28 25 24 25 26 27 28 30 30 28 26 25 29 30 31 29 30 31 31 29 30 30 30 30 28 29
62 59 58 56 54 51 47 44 42 38 38 40 39 42 40 37 36 32 32 33 34 35 31 26 26 31 32 32 32 32 33 34 34 35 33 35 35 35 28 29 29 29 30 32 30 32 31 28 26 27 28 28 27 27
67 64 64 61 58 57 54 50 47 45 45 44 44 42 44 42 39 37 39 39 37 37 36 33 27 30 36 34 36 34 35 36 36 36 37 37 37 40 35 33 30 29 31 31 31 32 30 30 28 27 24 26 26 25
79 75 71 68 65 61 55 54 56 53 51 52 51 51 48 44 41 41 42 42 41 41 42 34 31 33 34 37 37 36 36 37 36 34 36 37 35 41 39 36 35 31 31 30 31 33 35 32 27 29 29 31 29 29
93 87 82 79 77 73 70 69 62 64 65 60 59 59 56 53 50 46 46 45 45 43 43 34 36 39 39 40 37 37 37 38 41 36 36 35 30 39 41 39 38 35 33 32 32 34 35 37 35 34 33 33 34 33
93 90 91 87 86 83 79 76 73 70 67 69 66 63 63 62 59 54 53 51 52 50 43 33 36 40 42 44 43 43 42 40 41 36 36 34 28 38 38 37 38 38 36 34 34 34 35 37 37 36 36 37 38 38
82 84 84 84 83 83 78 77 77 74 75 71 72 71 69 68 67 64 58 57 56 53 42 40 41 42 42 44 45 47 47 48 46 42 38 33 31 38 37 37 38 39 38 38 36 36 37 38 39 39 38 38 38 38
72 73 77 77 78 77 76 77 78 77 78 77 79 78 76 75 73 68 61 62 63 58 56 52 49 48 48 47 47 46 48 50 50 49 39 32 38 37 38 39 40 42 40 38 39 37 38 39 40 41 41 40 40 40
67 67 69 70 71 70 71 71 79 80 81 81 83 86 83 78 71 66 70 68 71 71 67 65 64 56 53 54 52 51 50 51 54 49 37 40 41 40 39 39 41 40 39 38 39 40 40 41 41 42 43 42 40 42
66 66 66 68 66 65 63 64 67 68 76 86 89 89 85 73 73 71 72 75 75 75 74 70 68 66 60 59 58 58 57 58 55 48 48 44 43 41 40 37 37 38 38 39 40 41 42 43 42 41 43 43 40 41
69 69 66 62 62 61 62 63 67 69 72 73 82 90 76 77 72 77 80 81 78 75 75 76 73 69 70 65 63 64 65 61 49 49 50 46 45 44 42 39 36 36 39 40 42 43 44 44 46 45 43 44 43 42
72 65 64 63 62 60 61 66 68 72 75 79 74 69 67 69 74 75 80 80 76 75 74 69 68 69 69 70 66 64 63 46 50 51 52 49 47 45 45 42 37 36 38 41 43 45 45 47 48 49 48 44 42 43
68 65 64 62 61 61 62 65 65 69 75 74 70 62 63 61 64 70 75 72 69 70 70 65 65 69 70 67 67 58 48 47 49 49 52 49 47 46 45 45 42 36 39 42 43 45 46 47 47 48 50 46 43 45
63 61 61 60 59 61 61 63 63 62 69 64 63 63 64 64 62 63 68 72 71 69 69 67 71 70 63 58 53 48 46 47 51 53 52 51 49 47 47 46 44 43 43 43 41 44 46 48 48 48 48 46 44 46
57 57 57 56 59 62 62 60 55 51 53 56 57 60 61 63 62 64 66 69 73 75 74 68 69 64 58 54 51 49 47 48 54 54 52 50 51 50 49 48 47 47 49 49 45 46 48 48 50 48 47 45 44 46
54 52 55 59 62 62 62 58 53 52 52 49 47 51 52 55 59 61 61 65 71 79 72 58 60 63 59 57 57 56 54 54 55 54 52 50 51 51 49 49 47 49 51 50 49 49 49 49 51 49 47 44 45 45
48 54 57 59 60 59 60 58 58 55 52 49 49 46 42 42 46 48 54 65 71 74 67 50 47 52 53 50 53 56 58 59 55 50 48 48 47 49 51 49 48 50 51 50 51 51 51 50 50 48 48 47 47 47
52 55 58 57 54 50 52 54 55 60 60 58 50 43 41 43 43 49 57 62 65 66 66 62 53 42 43 54 53 54 51 49 51 53 52 51 51 51 52 51 51 52 52 52 52 51 51 49 47 48 47 47 48 47
50 52 55 56 56 52 50 51 48 47 51 50 53 41 39 46 47 47 48 46 47 50 60 65 69 61 44 38 54 63 60 59 53 51 51 51 49 48 49 50 50 49 50 51 51 50 49 48 47 46 47 48 48 46
47 49 52 48 52 50 51 47 45 45 45 41 41 44 45 45 52 57 51 43 39 38 42 46 56 69 59 45 40 45 55 60 57 51 44 42 46 45 47 48 46 47 49 50 49 48 46 46 47 48 48 47 47 46
45 48 47 52 53 55 53 48 49 47 47 45 35 36 40 43 44 54 48 36 37 39 39 39 40 50 66 65 46 41 42 49 52 52 48 45 41 42 44 46 47 47 49 48 47 46 47 47 46 46 45 46 45 46
45 53 53 53 50 49 53 47 44 46 45 46 48 41 38 41 45 37 30 35 44 41 38 39 37 37 42 52 55 42 43 45 45 44 45 45 44 44 46 44 43 44 44 43 43 43 42 42 43 43 43 44 45 48
50 47 47 46 49 51 51 48 47 47 46 45 45 49 55 44 32 29 31 31 34 34 36 37 37 38 40 42 45 41 42 37 37 39 41 42 43 46 46 45 42 40 40 40 39 38 39 39 40 41 42 45 48 50
55 47 41 37 40 50 55 54 50 48 47 48 49 46 42 44 49 46 43 37 33 35 36 37 40 40 32 30 35 45 43 33 35 37 38 40 42 44 44 42 41 40 39 39 37 37 37 38 39 42 45 47 49 49
46 46 48 50 50 51 50 52 49 49 51 53 54 53 49 44 46 48 48 41 41 37 37 36 33 36 36 36 36 38 46 42 36 35 39 41 44 43 41 38 39 38 38 36 36 36 36 39 42 45 47 48 47 42
43 46 49 51 51 48 50 52 53 54 55 56 57 57 55 50 46 46 48 47 47 39 36 36 38 36 34 33 37 37 39 40 35 38 41 41 39 36 35 36 37 36 33 34 34 35 38 41 43 45 45 40 33 29
41 43 44 47 47 48 51 54 55 57 57 58 58 59 59 55 50 43 40 47 47 42 33 28 29 32 35 35 33 36 38 32 33 36 39 38 35 35 36 34 32 32 34 33 35 38 39 41 41 37 31 25 20 17
43 45 46 49 51 53 54 57 58 60 62 62 61 59 57 54 50 36 38 43 42 37 37 31 30 32 33 37 37 30 33 31 37 38 34 33 36 35 31 29 29 31 33 34 35 37 38 35 28 22 17 12 13 15

GFSWCAN_500_spd_108.txt.gz
Wind_Speed
54 52 52 47 48 44 30 27 27 26 22 24 25 22 17 16 16 15 15 13 13 12 13 14 14 13 14 15 15 16 17 15 12 13 13 14 13 15 16 20 23 23 26 26 27 29 30 26 26 23 21 24 28 29
56 55 50 40 39 42 35 30 27 31 28 24 24 25 21 18 18 17 17 18 15 14 14 14 16 13 12 11 13 14 10 9 11 13 13 14 16 16 17 18 21 21 24 26 27 26 30 29 28 27 25 22 21 24
56 50 44 40 38 39 38 38 35 32 31 29 25 26 25 20 18 20 18 19 20 18 16 16 18 20 18 17 16 16 16 15 15 19 18 19 19 18 19 21 22 23 25 27 26 27 27 29 29 29 27 25 26 24
49 49 42 41 40 38 38 41 42 40 37 30 30 27 27 24 21 19 22 22 22 22 22 22 18 20 23 25 25 24 22 20 20 21 22 25 27 26 24 26 25 27 26 27 28 29 29 30 29 30 30 30 29 27
51 52 51 48 44 43 41 42 44 45 43 37 32 29 29 28 28 27 27 26 26 26 25 26 26 25 26 27 27 29 30 30 28 27 28 28 30 33 31 32 32 31 29 28 29 29 31 31 30 30 31 31 31 29
59 58 58 58 50 48 51 46 45 47 50 48 41 37 33 32 32 33 33 32 34 33 33 29 28 31 30 30 31 32 33 34 35 35 35 35 37 39 36 32 36 35 34 31 30 31 30 31 33 32 31 30 28 29
66 64 63 61 58 55 49 48 48 48 52 52 51 47 43 36 35 35 37 36 36 37 39 39 31 31 35 36 34 34 36 37 37 37 35 38 38 40 39 38 37 37 36 35 33 31 31 30 30 32 30 29 28 30
67 68 70 69 66 62 57 54 52 54 55 54 54 52 50 47 43 39 42 42 40 41 43 40 34 29 36 34 38 40 39 39 39 40 38 39 38 37 39 38 37 38 38 38 37 33 32 31 32 32 33 31 31 33
77 75 73 70 70 69 68 65 60 57 57 60 58 59 57 56 49 46 46 47 47 46 46 43 37 38 33 33 33 38 42 43 41 37 38 40 36 35 40 39 38 37 36 38 39 37 35 34 34 32 33 34 33 32
87 88 87 79 77 79 76 74 73 71 68 64 64 65 64 61 58 55 53 52 52 52 51 50 45 41 42 42 40 39 41 41 43 42 39 39 32 35 36 38 36 34 35 37 39 40 38 36 35 35 35 35 35 35
89 89 88 84 80 81 83 83 82 79 79 77 73 70 69 72 70 66 61 60 60 58 58 59 56 47 47 47 46 45 43 43 46 45 42 42 32 38 40 38 34 35 35 36 38 40 42 41 39 36 37 37 37 37
78 77 79 69 68 69 72 73 75 77 77 79 81 79 79 78 78 78 71 69 67 67 65 66 63 60 57 57 56 52 47 46 46 47 46 39 32 40 39 39 37 37 38 38 37 37 39 39 41 38 38 39 38 38
67 66 65 63 62 63 64 65 67 69 71 76 76 79 81 82 80 77 76 79 74 70 68 70 72 70 67 64 63 61 61 59 54 52 49 35 36 43 40 41 41 41 41 41 40 38 38 37 39 40 40 41 41 40
66 65 64 63 62 61 61 61 63 64 65 67 71 78 81 82 75 72 70 75 80 79 78 76 76 74 72 71 69 69 66 67 64 60 52 43 44 46 43 44 41 40 41 41 42 41 39 38 40 41 42 44 44 43
67 66 63 62 61 61 62 63 63 63 63 66 66 71 72 67 72 73 75 77 80 82 77 73 74 71 69 68 61 61 65 68 67 63 47 46 48 51 48 43 40 41 42 42 44 43 42 41 42 43 43 45 46 47
72 69 63 64 64 64 65 66 66 65 67 68 70 68 64 61 60 64 72 77 78 80 81 75 68 63 59 53 52 54 65 68 56 37 46 50 55 54 51 46 43 43 44 43 46 45 43 45 44 43 44 45 46 47
76 72 68 67 67 67 67 68 69 70 70 74 69 64 61 60 54 54 58 59 68 75 78 78 74 66 62 55 52 58 64 50 46 51 49 48 51 52 53 51 48 46 45 43 45 47 44 45 44 45 46 46 45 47
77 75 72 68 69 71 70 70 72 75 75 72 67 56 56 53 54 53 54 58 60 64 65 63 65 68 71 71 64 59 59 59 56 48 51 49 51 50 50 51 49 46 45 45 45 45 46 45 43 44 47 47 45 46
68 69 68 66 67 69 69 70 71 74 72 67 62 61 58 51 50 51 55 58 61 61 62 69 70 68 74 63 59 56 55 54 55 57 58 56 52 51 53 53 51 49 46 46 45 44 47 46 44 43 47 48 44 45
58 59 60 60 61 65 66 69 68 69 69 66 63 62 58 54 52 54 56 58 56 60 66 71 73 68 62 53 49 55 60 56 60 62 62 62 52 53 54 51 49 48 47 48 47 46 45 44 45 45 50 49 46 46
50 50 52 55 59 63 65 64 66 66 64 65 61 59 58 54 54 52 53 53 53 57 60 61 59 58 53 52 57 58 64 63 62 61 61 60 55 55 54 53 52 50 48 48 46 44 46 45 45 48 51 49 47 47
43 46 49 52 57 61 66 64 65 61 62 62 60 58 58 58 57 55 53 53 54 47 43 44 46 46 45 52 50 53 49 44 45 53 54 54 53 57 54 51 54 51 46 41 42 46 48 48 47 48 49 48 46 45
44 45 49 51 54 59 61 58 61 60 61 58 56 57 57 55 54 52 54 51 42 30 32 36 35 39 45 47 48 47 50 46 46 41 41 45 49 51 49 47 47 47 45 46 48 48 47 46 45 46 47 45 43 43
41 44 47 51 53 54 55 55 56 55 55 55 53 55 56 51 51 54 54 43 31 31 33 28 34 38 38 40 44 47 43 56 52 43 35 40 50 55 48 42 39 41 43 44 45 45 45 44 45 45 44 43 42 41
40 41 49 50 48 50 50 51 47 47 45 32 40 47 48 47 49 52 48 40 26 29 35 44 48 43 40 38 38 38 37 45 58 49 33 35 37 45 52 50 43 41 41 43 45 44 42 42 42 42 41 40 40 41
45 51 51 46 43 44 44 43 44 44 44 45 46 41 37 38 41 42 28 25 27 28 33 37 38 38 37 38 39 41 42 44 40 35 44 44 34 34 36 38 45 46 47 42 40 42 41 40 39 38 39 38 39 40
48 51 46 43 41 35 35 36 39 43 46 46 45 41 46 44 41 25 12 17 26 32 30 28 28 29 31 37 38 36 39 38 36 35 36 42 32 32 32 34 37 42 46 44 43 40 38 36 35 35 35 37 39 40
42 28 34 31 35 34 35 36 37 38 41 41 43 43 47 49 36 31 33 33 33 35 33 31 30 29 29 31 33 34 31 34 35 32 34 38 37 36 35 35 36 37 38 40 37 36 36 35 35 35 36 38 38 38
45 33 29 33 36 36 38 38 38 38 38 40 42 44 41 38 35 37 38 35 30 39 40 40 39 30 32 34 32 26 30 34 35 33 32 33 34 38 41 40 36 34 34 35 36 37 36 33 33 35 36 36 38 39
45 46 46 46 44 43 37 27 27 34 40 42 43 45 45 40 38 39 36 33 31 29 31 36 39 39 38 34 31 26 27 31 32 28 28 33 36 33 37 35 32 31 32 33 34 34 31 31 33 34 35 37 38 41
38 41 46 47 47 42 38 36 36 37 40 41 42 45 44 44 43 39 40 38 38 38 34 33 38 40 38 37 32 27 26 25 24 27 28 27 29 32 28 26 27 31 34 34 32 30 30 31 32 34 36 38 40 42
33 39 42 42 39 37 38 39 43 46 44 43 42 42 43 45 48 45 41 43 43 41 38 36 38 40 38 35 30 27 26 27 27 26 26 25 26 19 19 24 30 32 31 29 29 29 31 31 33 36 38 40 40 38
31 35 36 36 35 33 33 36 39 43 45 44 41 43 45 49 53 47 42 43 45 44 45 41 40 41 40 33 30 28 26 28 28 28 25 25 24 23 23 26 28 27 26 25 27 30 32 33 35 37 38 35 30 23

GFSWCAN_500_spd_111.txt.gz
Wind_Speed
51 50 49 47 43 40 43 39 28 24 23 21 19 23 21 18 18 18 15 14 15 16 15 14 15 15 14 13 12 13 13 12 10 12 13 13 14 14 17 19 20 20 23 22 25 27 26 26 23 24 25 24 25 25
55 51 51 51 49 47 41 40 32 27 26 24 22 22 26 22 19 17 17 16 16 17 18 18 18 19 20 19 17 16 15 16 16 17 17 19 19 19 19 19 23 21 26 26 26 27 28 28 28 27 25 25 26 26
58 56 55 53 53 44 42 38 34 29 30 31 27 27 26 27 24 19 18 17 15 17 19 20 21 21 23 21 24 25 24 21 20 20 21 24 24 26 23 23 26 27 28 28 28 29 28 31 28 29 29 28 28 28
64 59 52 47 44 43 39 38 34 31 30 32 33 33 31 31 28 27 22 23 23 21 22 21 20 21 24 27 29 30 29 29 28 29 29 27 29 31 28 30 30 34 33 31 29 32 30 31 31 31 32 32 30 31
64 58 48 48 46 43 40 40 38 37 35 37 39 38 36 33 35 34 33 31 28 26 25 27 28 31 29 27 28 30 32 34 37 35 32 34 34 38 34 31 31 37 34 35 32 33 32 32 30 32 33 34 34 33
59 57 56 51 49 48 44 44 42 43 45 44 43 44 42 39 37 39 39 38 38 35 31 26 28 32 31 32 33 34 34 34 32 35 38 36 37 42 38 33 34 38 35 37 35 38 37 35 34 33 34 35 35 36
55 57 57 58 56 52 50 47 49 48 49 50 51 50 50 48 46 44 44 41 41 43 43 39 30 31 35 36 33 34 35 35 34 34 38 36 36 41 38 35 40 40 39 39 39 38 37 36 37 35 36 37 37 37
61 60 59 59 60 58 58 56 57 58 57 55 55 57 56 52 49 48 49 47 47 46 46 46 43 33 38 37 38 39 38 39 38 41 38 40 42 39 35 42 42 42 38 35 35 35 34 34 37 37 36 37 38 38
72 70 66 65 64 63 63 61 59 59 59 61 63 62 61 61 57 53 55 55 51 53 54 53 51 47 45 41 42 45 45 44 45 45 44 46 41 32 37 37 40 39 36 36 35 35 35 36 37 38 38 38 39 38
83 78 76 77 78 75 73 71 71 68 67 66 66 67 67 66 65 63 60 60 60 58 59 59 61 60 57 53 51 50 51 55 56 55 54 50 41 32 37 39 40 39 36 37 36 35 37 37 38 39 40 40 39 39
91 91 88 87 90 87 84 81 83 84 81 79 74 73 73 73 74 73 69 65 65 66 66 65 68 70 68 65 60 60 63 65 65 63 61 58 49 39 39 42 40 38 38 36 36 36 37 40 39 40 41 42 41 40
86 88 95 81 89 87 81 81 84 87 87 80 78 77 76 75 78 79 77 74 73 74 74 74 75 76 76 77 77 74 71 68 65 65 65 64 54 51 48 47 46 42 42 41 39 39 38 39 40 41 41 42 42 42
72 69 68 66 69 66 65 67 68 70 71 68 67 69 73 74 77 82 81 81 82 83 83 83 82 83 80 77 77 76 79 78 74 68 65 66 61 56 50 51 51 50 47 44 42 41 41 40 40 42 42 43 44 44
67 66 65 62 64 64 64 64 66 65 64 62 64 67 68 71 82 73 68 69 75 79 83 84 85 82 80 76 76 76 79 80 81 78 68 60 61 59 60 57 57 52 47 44 43 41 42 42 43 43 45 47 47 46
70 68 66 63 64 63 63 64 65 63 65 65 67 69 65 62 64 62 62 65 69 72 74 77 76 73 63 49 45 47 47 49 55 47 45 57 54 55 56 62 60 48 44 45 44 41 42 43 46 44 44 46 49 47
73 72 67 66 66 67 67 68 69 68 71 70 70 66 57 57 57 55 55 57 58 62 68 67 65 67 69 68 67 59 59 56 46 38 48 49 50 51 55 59 52 47 46 45 45 43 43 44 47 47 45 46 48 49
79 74 70 72 73 72 72 74 75 75 75 76 67 60 56 57 52 54 54 55 56 60 61 62 62 62 61 62 66 65 66 62 50 51 57 58 56 54 56 54 48 51 53 51 49 46 44 45 45 47 50 49 47 44
75 75 74 74 74 76 77 76 78 82 81 73 69 59 64 58 55 55 57 58 57 59 60 63 66 69 70 72 74 69 66 66 61 58 60 61 63 65 66 60 59 64 62 56 52 49 46 46 47 50 52 51 49 46
66 65 65 67 69 71 75 77 78 81 80 74 69 68 69 64 61 58 61 60 58 61 63 65 67 70 69 69 68 65 63 60 54 57 62 65 68 68 67 61 58 60 57 54 54 51 49 48 47 49 51 51 50 45
55 57 59 60 63 66 70 75 75 77 77 73 73 70 69 67 64 63 64 64 62 65 68 68 65 63 62 61 61 62 60 54 54 58 57 55 56 59 61 60 59 59 57 55 54 52 48 46 46 49 51 50 50 48
45 45 46 46 47 53 59 64 70 71 70 71 68 70 70 68 66 63 63 63 65 67 65 59 55 54 48 50 49 50 52 50 53 56 55 55 49 52 53 53 57 58 54 50 50 49 47 47 50 49 48 45 44 45
44 46 44 43 44 48 54 58 63 62 63 64 65 64 63 63 61 61 61 65 66 61 55 50 46 40 40 42 40 41 44 44 46 50 54 56 58 56 46 41 43 46 49 44 43 44 46 47 47 50 47 44 44 44
47 48 49 50 52 55 59 56 57 56 58 57 56 57 57 56 53 54 60 60 58 50 47 44 41 42 42 37 40 42 40 40 43 46 47 50 54 51 44 41 40 42 43 41 40 41 41 41 41 40 41 43 43 41
45 47 48 47 47 53 56 53 52 52 50 49 51 51 50 46 48 55 57 51 44 38 39 36 36 38 41 42 42 35 32 44 43 39 35 40 47 46 47 42 36 35 37 45 45 45 42 36 36 36 37 40 41 40
44 43 45 49 49 52 53 51 48 47 45 42 42 44 40 41 47 47 42 36 28 29 36 37 44 42 45 38 34 39 41 45 40 34 29 34 33 34 39 47 39 39 35 40 42 42 42 38 39 40 39 39 39 38
48 50 53 50 48 49 49 44 42 38 36 35 36 33 30 33 37 35 19 11 21 24 28 30 36 36 41 37 28 32 35 37 36 31 37 42 41 41 40 46 42 41 44 40 35 37 41 42 45 42 40 38 36 34
49 50 46 45 47 47 46 40 36 39 38 37 34 33 40 48 47 29 20 20 22 14 23 26 24 28 31 31 28 29 28 27 25 25 31 33 34 34 34 36 45 46 41 32 35 35 39 40 41 37 36 36 35 35
46 45 47 39 42 42 42 41 41 41 36 32 35 39 41 41 33 25 34 35 32 33 32 26 26 27 31 33 32 32 30 28 27 30 34 31 34 32 29 27 27 37 36 35 33 32 33 35 34 31 32 33 34 36
46 41 41 42 38 39 41 39 38 33 30 35 36 37 38 35 29 34 38 40 41 42 38 33 27 30 31 30 35 36 33 31 27 25 26 30 31 32 28 29 30 32 35 37 38 31 36 30 26 27 27 28 31 32
42 39 44 39 45 47 37 32 30 31 34 36 37 41 41 32 30 36 39 40 36 35 37 36 31 28 25 27 30 27 29 33 26 26 25 25 25 27 27 28 30 33 29 28 28 32 33 25 22 23 25 28 28 28
34 42 48 46 46 43 38 34 34 35 38 38 39 42 37 37 38 36 36 36 35 32 29 28 31 30 29 28 30 31 32 30 29 27 26 25 24 25 26 29 29 26 27 27 28 26 23 20 22 24 25 26 28 29
23 28 36 38 36 35 39 47 46 43 43 42 37 40 41 39 34 26 30 35 35 34 31 32 33 31 33 35 35 36 39 35 29 26 25 24 24 26 29 30 29 28 27 26 21 19 19 21 23 23 25 26 27 30
22 21 26 31 33 33 34 37 39 42 41 40 37 39 41 44 35 18 23 27 31 36 38 38 38 38 38 40 38 39 41 39 30 25 25 21 22 26 26 24 25 25 22 18 17 18 19 20 22 24 26 27 29 31

GFSWCAN_500_spd_114.txt.gz
Wind_Speed
53 51 51 50 48 46 46 41 40 40 32 27 26 22 19 19 18 18 15 15 14 14 10 14 15 16 17 15 15 14 14 17 17 17 17 17 17 15 17 20 20 23 25 24 25 29 27 25 26 28 29 30 29 27
58 55 53 52 52 52 50 46 40 43 41 29 29 25 21 20 20 20 19 18 16 14 14 14 15 16 19 19 19 18 19 21 22 21 22 23 23 23 24 21 24 26 30 30 29 29 33 28 29 27 29 31 31 31
62 60 58 55 53 54 53 48 43 41 41 35 29 28 24 21 21 22 21 19 18 21 21 21 18 19 18 17 20 20 23 26 24 24 22 23 25 28 28 26 27 28 32 32 33 30 37 34 30 30 30 28 30 32
64 63 62 58 57 56 54 52 47 46 43 41 35 33 29 26 25 25 27 24 22 20 23 23 23 23 24 26 27 29 28 26 28 29 30 27 26 28 25 26 24 32 38 34 28 30 35 34 35 34 32 31 31 33
65 63 62 64 64 61 59 55 50 48 46 42 40 38 34 32 29 27 28 30 32 30 27 26 27 29 26 27 27 28 28 32 32 28 28 29 28 32 32 30 25 29 36 37 31 35 36 36 36 34 35 34 33 33
67 65 62 64 66 65 61 56 50 49 48 44 41 42 38 34 34 35 34 35 38 41 39 34 29 32 35 31 32 32 33 33 34 34 32 29 30 35 34 28 30 37 37 40 36 38 37 35 34 33 33 33 33 34
62 68 63 56 53 52 52 51 47 50 51 50 46 46 44 42 40 40 41 41 41 42 44 43 41 33 36 38 39 39 40 40 41 39 37 36 36 38 37 33 41 37 40 40 39 40 37 37 35 36 35 35 36 37
55 53 60 61 55 52 51 53 53 50 54 54 54 52 50 50 46 45 46 47 47 48 50 48 49 50 41 42 44 44 46 48 48 48 46 42 44 41 37 42 39 42 41 40 41 42 41 40 39 39 38 37 36 38
61 59 60 61 61 59 59 58 59 55 57 56 54 55 54 54 53 53 50 51 53 55 55 54 53 57 59 57 56 55 54 53 55 55 54 53 51 49 45 47 45 47 47 42 40 42 44 43 43 41 40 39 39 40
71 68 65 66 69 71 69 67 65 64 62 63 62 60 60 58 57 58 60 59 59 60 61 61 63 66 67 68 67 67 66 64 61 59 63 63 60 54 55 55 51 49 51 53 49 47 46 46 44 41 41 42 43 42
78 78 79 77 75 74 76 77 78 77 75 71 70 69 70 69 67 65 64 66 66 64 65 66 70 73 74 74 75 76 76 76 75 73 70 66 61 65 61 63 57 58 59 56 54 53 51 46 45 45 44 44 45 45
86 86 86 84 83 83 83 82 81 82 85 84 82 80 78 76 73 74 73 73 74 78 77 77 79 80 81 79 77 78 80 83 85 83 81 79 75 63 71 71 72 71 64 57 55 53 53 51 47 46 47 47 48 46
78 77 76 79 77 77 79 75 74 73 73 75 74 81 79 76 75 75 75 75 75 76 77 75 76 78 77 77 80 80 80 80 82 84 85 82 71 79 82 80 78 74 70 62 55 54 53 51 49 48 48 47 46 46
67 68 68 69 68 68 67 65 67 65 65 66 67 70 74 79 80 73 66 63 64 67 69 70 71 72 74 76 75 77 79 83 84 83 78 56 67 67 64 62 64 61 62 59 46 47 49 48 46 47 46 46 46 47
67 67 67 66 65 65 65 65 65 65 67 68 68 68 72 68 66 62 61 59 59 60 63 66 66 67 69 69 69 72 70 73 76 69 46 34 38 41 44 47 48 47 51 52 50 51 47 43 43 44 44 45 47 49
72 73 69 67 67 67 68 70 70 69 71 71 70 65 61 58 56 54 54 55 57 61 62 61 62 64 64 65 68 68 72 75 68 58 53 51 51 45 47 52 54 55 54 53 52 47 43 37 39 43 47 48 48 49
81 81 73 72 73 74 75 75 75 76 76 77 69 62 58 59 54 55 55 58 60 62 63 64 64 63 65 68 68 68 68 64 57 55 52 51 51 61 67 67 66 67 64 68 59 52 48 46 46 48 51 51 51 49
80 79 79 77 79 79 80 81 82 83 83 78 73 61 66 65 62 62 61 66 66 65 65 66 67 68 69 68 63 58 58 56 55 56 56 54 56 57 60 62 61 63 63 64 65 66 66 62 59 58 53 53 53 50
71 73 73 72 72 71 74 78 81 85 83 79 76 71 74 72 71 67 69 71 70 70 73 73 73 70 64 62 59 55 54 56 59 58 59 58 57 57 58 60 62 57 62 67 66 66 66 65 65 58 57 57 53 51
61 61 60 58 55 58 62 70 74 77 78 74 74 73 73 76 72 75 73 73 74 74 76 77 74 66 62 60 56 56 56 56 55 58 58 54 52 51 51 51 53 58 63 57 57 57 55 56 57 56 55 56 54 49
51 50 48 45 47 52 56 59 62 66 68 69 65 65 69 71 71 72 71 69 71 74 77 73 67 62 60 58 57 55 51 46 50 53 53 52 43 45 46 46 50 54 54 50 49 47 50 52 50 52 53 51 47 43
46 42 42 45 50 54 58 59 59 58 60 59 58 57 58 57 57 57 55 60 64 65 66 64 61 57 54 52 49 46 45 44 46 47 45 44 43 40 39 37 42 45 45 45 50 53 48 41 42 44 45 47 47 42
41 40 43 47 50 53 58 59 57 55 53 53 51 54 51 47 44 42 50 52 53 51 47 48 47 47 46 43 44 44 43 45 45 41 39 42 40 34 39 38 40 43 43 43 47 46 49 54 45 41 38 40 41 39
40 42 44 46 52 57 58 59 58 58 59 57 56 54 47 40 37 44 49 47 42 33 35 36 36 37 37 41 43 40 38 44 47 34 34 41 43 44 43 35 38 36 36 36 40 42 50 51 40 31 35 39 40 39
38 45 53 51 54 56 57 56 57 59 55 48 47 44 36 36 41 44 47 30 18 22 25 29 26 23 31 34 32 35 36 37 36 30 33 41 39 37 37 38 39 39 39 37 37 43 48 47 35 34 35 37 39 39
47 53 54 56 55 54 55 56 55 51 47 46 45 40 38 41 43 46 26 15 21 25 23 22 24 20 18 20 20 29 39 34 32 28 32 31 30 34 37 38 32 27 34 32 32 35 43 43 40 34 32 31 34 38
49 53 50 49 52 54 56 54 50 50 50 49 44 41 41 42 43 27 19 23 23 22 24 29 12 10 16 29 33 33 36 35 36 36 35 31 28 30 31 33 33 31 33 31 30 30 34 43 41 34 34 31 32 33
50 48 50 47 49 49 51 50 51 51 51 49 47 45 45 42 34 22 25 32 38 38 35 36 29 23 22 27 28 30 33 34 35 35 33 30 27 27 29 28 27 31 31 29 29 29 28 26 36 32 25 21 23 25
49 47 47 48 46 49 50 50 51 50 46 46 46 42 38 37 32 31 29 32 35 40 40 37 33 32 30 27 30 30 33 35 37 38 38 33 26 25 27 24 26 28 28 27 27 28 25 31 29 27 23 23 24 24
37 41 47 47 49 52 51 48 45 39 39 40 39 38 37 32 26 27 33 31 33 36 39 41 42 38 30 32 31 30 32 34 35 38 38 32 25 24 20 20 20 21 24 25 23 23 25 25 26 23 24 26 26 26
22 27 33 32 34 39 45 45 47 45 41 39 37 39 30 29 30 30 30 31 36 36 34 35 36 35 34 34 36 34 33 33 32 31 29 28 25 24 19 18 18 20 20 21 22 22 22 25 24 26 26 27 24 21
29 30 32 35 25 25 32 38 43 43 40 40 39 40 36 35 28 18 22 29 31 32 34 37 36 34 36 36 37 39 37 35 33 31 27 26 25 24 22 19 19 21 23 24 21 21 23 25 26 27 25 23 18 17
26 27 31 32 27 24 23 27 32 33 32 32 35 39 38 38 30 23 22 25 31 35 35 35 37 38 38 36 35 37 39 39 37 33 31 30 30 25 24 20 19 22 24 21 19 18 20 22 23 22 22 16 15 19

GFSWCAN_500_spd_117.txt.gz
Wind_Speed
54 51 50 49 48 47 47 47 44 42 39 36 32 26 22 23 21 18 11 9 11 13 14 12 11 14 16 12 11 14 11 14 15 16 16 16 15 16 17 17 19 21 25 25 26 26 25 26 26 26 25 24 27 27
60 58 56 54 52 51 49 49 47 46 44 41 35 31 24 24 23 23 19 13 10 9 11 13 15 18 19 15 15 14 15 17 17 18 18 19 20 19 18 16 21 21 25 27 27 22 31 33 29 29 27 27 28 29
64 63 62 61 57 55 54 54 52 51 49 45 41 38 35 29 28 26 26 23 18 16 14 13 15 15 14 17 19 20 24 23 23 22 22 23 25 26 23 21 21 24 26 29 24 21 28 32 32 31 34 32 31 32
66 65 66 65 61 61 60 57 56 55 51 47 46 43 42 39 34 34 31 29 28 23 22 20 18 21 22 22 21 21 23 24 25 24 24 22 22 25 22 23 25 26 31 37 32 29 31 29 33 35 36 37 35 33
66 65 65 68 65 64 65 60 57 57 55 53 51 50 47 47 45 38 38 33 32 30 26 24 25 26 26 26 27 29 28 28 28 28 28 28 27 32 28 21 22 33 33 34 34 37 38 33 33 34 35 37 38 36
62 61 60 61 62 60 63 64 62 60 58 57 58 57 53 50 50 46 41 40 39 37 36 31 28 29 32 33 32 32 33 34 36 36 34 34 35 37 38 31 32 37 35 37 37 40 43 42 41 39 37 37 38 39
63 66 63 64 66 65 65 64 63 64 60 56 57 56 55 53 53 51 46 46 46 45 45 45 37 30 31 32 34 38 40 40 41 42 43 43 43 47 45 34 44 47 46 49 49 48 45 44 46 44 44 43 42 41
54 52 50 51 50 50 56 57 58 64 67 54 50 49 48 51 51 52 47 50 51 50 50 51 51 47 40 39 40 41 43 46 48 49 50 49 50 52 50 46 51 55 57 56 54 56 56 51 47 47 49 48 49 46
57 55 53 51 52 50 52 52 48 46 52 55 51 48 48 49 52 55 54 53 55 56 58 57 53 54 55 55 54 52 51 52 53 54 54 56 57 55 57 59 61 60 60 60 61 67 62 57 53 54 55 54 52 52
64 61 61 58 57 59 57 56 57 56 53 53 56 53 52 51 51 55 57 59 60 58 62 62 65 64 64 64 64 63 63 60 62 62 63 62 63 64 66 67 68 70 71 72 72 70 68 66 61 61 58 56 54 54
69 68 67 67 65 64 64 63 63 62 63 62 60 61 61 61 62 61 62 63 64 68 67 66 68 70 72 71 72 72 73 72 71 71 71 71 71 74 71 71 73 77 79 75 73 70 67 69 71 68 59 56 56 56
69 71 72 72 70 69 71 70 70 70 69 68 68 68 69 68 69 68 66 67 68 69 71 73 71 71 72 71 71 73 75 78 79 79 79 78 74 74 78 78 77 75 76 76 77 77 77 71 62 59 58 56 55 57
58 59 62 66 68 70 75 76 74 76 75 75 75 75 72 71 70 69 70 71 73 75 74 72 69 69 69 70 72 73 77 78 77 78 77 70 63 70 72 72 74 73 70 66 68 66 59 53 50 52 51 50 50 52
63 62 59 62 64 65 66 66 65 65 65 68 70 75 77 77 76 77 77 76 73 67 66 68 70 70 67 66 65 68 72 76 78 77 71 61 63 67 71 71 69 62 55 54 52 52 48 46 47 50 51 52 44 47
61 61 60 60 62 61 62 62 61 62 65 66 66 71 74 72 72 68 65 64 63 64 64 63 64 64 63 65 66 69 70 74 73 64 56 52 61 61 57 55 56 52 48 48 51 52 48 48 48 48 49 48 51 51
65 65 62 61 61 62 63 64 66 67 69 69 67 68 64 63 62 61 57 58 61 63 63 62 63 63 63 64 66 66 70 67 58 56 56 57 55 54 55 56 56 57 58 57 58 56 61 63 59 56 53 51 51 51
72 70 66 65 66 67 70 72 73 73 74 75 69 64 59 60 58 60 61 61 64 64 65 67 67 66 68 69 67 64 60 55 56 54 54 54 55 55 55 56 55 55 53 54 52 55 62 66 70 70 68 62 56 57
73 71 72 72 73 75 77 80 82 82 80 75 71 62 66 67 66 66 65 68 72 71 71 69 68 71 73 72 67 64 63 60 61 61 60 58 59 57 55 55 54 56 54 52 52 52 53 51 53 56 59 61 63 59
71 71 72 73 74 73 74 76 80 84 81 77 73 69 71 71 74 72 72 76 76 77 73 74 79 80 75 72 71 69 68 66 65 65 64 60 60 60 58 56 55 54 51 50 48 47 49 52 53 54 56 55 54 59
65 66 66 66 66 65 61 63 67 72 79 75 73 69 70 73 73 74 73 74 74 69 78 81 81 79 78 75 75 77 75 70 68 69 66 62 60 56 57 54 50 48 46 41 40 43 46 49 50 51 52 50 46 44
58 57 58 56 55 52 53 55 60 63 63 66 61 60 63 64 62 63 64 60 63 69 73 71 73 75 75 74 72 72 72 67 67 67 67 65 56 53 53 46 40 40 40 35 36 39 41 42 43 45 46 46 46 44
51 50 51 50 50 44 49 53 56 57 57 57 54 55 56 57 56 53 50 52 54 53 51 53 54 56 59 60 60 59 60 59 60 62 62 61 57 51 45 39 35 35 34 36 40 44 44 43 42 42 46 44 47 48
40 41 40 47 47 45 48 49 52 54 54 53 52 55 55 50 48 47 50 45 44 42 45 47 48 48 52 50 47 43 41 45 51 55 52 47 50 44 36 33 33 36 38 43 47 43 40 39 41 38 36 40 46 49
35 36 37 41 44 47 45 49 51 51 50 49 51 56 56 54 53 54 50 39 39 41 41 41 42 45 47 47 42 37 34 41 49 44 40 42 40 35 34 26 30 37 41 46 44 41 39 40 39 38 37 39 41 44
36 34 37 43 45 47 50 54 54 55 58 55 57 59 60 56 58 57 46 37 36 37 38 39 39 37 32 31 26 21 25 32 31 32 34 35 28 24 26 29 28 31 34 38 40 40 40 40 34 33 38 34 39 38
31 37 43 44 43 45 49 49 46 46 47 50 55 56 56 57 59 57 41 32 34 35 33 32 26 22 21 16 19 17 16 18 22 31 29 33 30 27 27 26 25 26 34 35 37 33 32 31 29 29 25 23 34 38
40 45 46 43 46 42 43 48 44 52 53 51 55 58 61 63 61 47 36 33 36 34 32 28 30 24 23 28 24 21 22 22 23 32 35 32 31 30 29 27 25 26 29 29 29 27 26 26 27 24 22 20 28 34
39 41 44 43 48 51 51 47 47 47 50 53 59 66 65 63 57 41 33 31 33 32 30 31 35 30 39 42 36 27 28 33 35 37 37 34 35 35 29 27 26 27 25 27 27 24 23 23 22 19 17 16 28 34
34 37 34 38 44 49 52 52 53 56 58 60 58 56 58 54 44 33 30 31 32 32 33 32 36 42 48 47 43 32 26 29 34 40 40 35 36 32 33 29 28 28 25 21 22 21 22 22 21 16 15 22 27 24
36 38 41 40 42 47 47 48 49 45 46 48 51 57 58 45 32 31 29 30 34 36 37 36 33 41 48 49 47 41 35 32 32 36 35 35 36 31 28 27 27 28 27 21 21 20 20 21 19 16 14 18 22 25
18 24 28 29 31 31 32 33 37 36 36 39 41 47 45 40 34 34 35 33 33 34 34 31 29 31 39 50 52 46 39 36 35 35 35 33 31 26 22 19 20 26 24 19 21 20 19 20 20 18 15 17 22 25
35 37 36 35 35 35 40 37 38 40 38 38 38 39 36 36 34 31 32 37 38 38 33 29 29 29 32 37 46 50 47 42 38 36 37 35 29 23 20 16 16 21 24 21 22 22 19 21 22 21 19 19 22 23
29 33 34 40 40 39 38 40 41 42 42 41 37 32 34 37 31 20 22 27 33 33 29 29 29 33 35 33 33 35 41 46 46 42 38 38 33 28 24 23 21 20 25 23 22 23 23 22 21 18 17 19 19 19

GFSWCAN_500_spd_120.txt.gz
Wind_Speed
50 48 48 48 46 45 45 42 40 39 38 34 32 31 29 24 22 22 23 20 20 16 13 11 9 10 11 11 12 14 11 10 10 9 11 12 13 13 15 16 21 22 23 22 24 26 27 25 27 29 31 30 32 32
54 52 52 52 51 50 49 47 48 45 44 41 40 36 35 33 27 28 26 26 26 25 21 18 18 17 18 17 13 11 15 17 17 19 18 17 16 15 14 14 22 22 25 24 19 20 27 30 29 32 33 32 34 35
56 56 56 55 55 55 55 52 50 51 50 46 44 43 40 39 36 33 30 28 31 32 33 27 24 25 22 20 17 18 21 21 23 22 21 20 19 19 16 14 17 23 30 28 26 22 28 25 28 30 33 34 35 36
62 63 60 58 59 58 56 56 55 53 52 51 49 49 47 45 44 38 36 35 32 35 37 38 34 33 33 29 25 23 25 25 26 26 25 24 24 23 19 15 17 27 33 33 31 32 34 31 33 35 36 37 39 41
56 57 59 62 61 59 59 57 56 57 53 53 51 52 49 47 47 46 43 41 42 37 38 42 42 37 36 35 34 31 31 32 32 32 33 32 28 30 28 23 16 27 38 40 37 38 39 38 43 47 48 45 44 45
61 57 58 62 60 56 55 57 58 57 58 56 53 52 51 50 51 52 49 47 44 45 44 41 44 41 40 40 39 39 38 38 38 37 36 36 37 37 39 32 23 33 45 46 41 41 45 47 49 52 52 51 52 53
58 57 55 55 56 54 57 58 58 55 56 55 55 56 59 58 55 54 53 51 46 45 47 48 44 42 43 43 44 42 42 43 43 43 42 43 42 45 46 42 48 46 46 49 51 52 53 56 57 54 55 57 60 58
58 55 54 52 52 55 59 59 59 58 58 58 57 54 53 55 56 52 52 52 46 45 48 50 48 39 44 46 47 48 49 49 49 50 50 50 52 52 52 55 53 54 56 56 57 59 62 65 66 66 66 65 62 58
59 56 52 54 53 50 51 51 49 50 49 46 45 43 42 40 40 41 47 48 46 45 47 49 48 53 52 50 51 52 53 54 56 57 57 58 57 57 61 62 62 62 63 63 62 65 67 70 71 70 69 67 63 61
59 58 56 54 54 53 54 55 53 51 50 49 45 46 47 46 45 45 47 51 50 49 50 51 55 55 56 58 59 59 58 57 60 62 63 63 63 66 66 65 66 66 69 70 72 73 73 71 71 69 65 62 61 61
61 63 62 60 61 60 60 61 59 58 56 54 52 53 54 52 51 51 52 51 54 58 57 58 59 60 61 59 59 64 65 67 67 68 67 69 69 64 65 68 70 71 71 72 73 72 72 74 72 65 59 56 52 45
62 61 61 60 62 64 66 66 66 64 64 64 62 60 58 56 56 58 58 58 62 61 63 63 63 63 64 65 67 69 71 72 73 72 74 74 62 65 69 69 68 70 69 68 70 70 72 71 66 60 49 43 44 48
61 63 64 65 66 68 70 71 71 70 70 68 68 69 68 65 62 64 63 63 67 67 67 66 66 65 65 66 69 69 69 70 72 76 75 60 51 62 67 66 69 69 65 67 66 63 60 57 56 53 48 45 44 40
70 69 69 70 69 66 67 64 63 62 62 65 64 65 68 68 69 67 65 67 67 65 63 65 66 66 65 66 65 67 71 75 77 77 70 56 60 59 64 67 65 63 62 61 61 61 58 57 55 52 49 48 48 57
61 63 64 65 69 68 65 62 61 63 65 65 65 66 67 65 63 61 62 62 62 62 61 62 63 64 63 64 66 69 70 73 74 67 60 60 63 65 61 57 57 60 63 63 60 60 58 56 52 51 54 59 60 62
62 64 64 62 61 59 60 63 64 65 65 64 65 67 63 61 59 59 60 59 59 60 62 63 63 63 65 67 68 69 72 71 61 61 64 65 64 62 61 60 59 59 59 58 58 59 58 55 52 49 49 54 60 66
61 58 59 61 62 63 65 67 68 69 71 70 65 62 60 59 56 57 60 63 63 64 65 67 67 69 71 72 72 71 67 64 64 66 66 67 67 66 63 63 62 61 59 57 58 57 56 54 53 53 53 54 53 54
65 65 64 64 67 70 71 72 75 77 77 72 68 60 63 63 63 64 64 67 71 71 71 69 70 73 75 76 74 72 72 73 75 75 75 74 73 71 70 68 64 65 62 60 59 57 54 55 56 53 53 53 53 53
69 69 70 70 71 74 76 76 79 84 81 76 72 68 71 71 69 68 70 73 76 76 70 73 79 80 78 76 76 76 78 80 80 81 82 80 79 76 75 72 70 69 65 61 58 55 53 54 53 51 52 53 52 51
68 69 68 68 69 72 72 77 77 77 81 79 76 72 73 73 70 71 69 66 68 66 77 76 73 70 68 66 67 70 74 76 79 82 82 80 80 78 74 72 68 64 62 57 51 51 51 49 45 48 47 46 49 47
60 58 59 60 60 63 65 66 67 71 70 73 71 67 68 66 66 65 61 55 56 66 65 63 62 58 56 57 58 59 61 60 66 70 72 74 70 68 66 62 57 55 53 50 47 46 45 44 44 44 43 46 49 45
50 50 52 52 54 57 61 62 62 58 55 58 58 60 60 58 56 54 49 51 55 55 54 51 47 48 52 54 57 58 60 59 59 61 62 62 62 58 53 47 44 42 41 39 40 40 37 39 42 42 43 39 38 38
37 40 44 45 49 55 58 53 55 57 57 53 51 53 54 50 47 43 47 50 49 45 44 48 48 49 52 54 56 57 52 52 53 53 50 48 49 46 41 36 36 36 33 30 33 33 35 34 36 37 35 34 36 38
26 31 34 40 43 49 48 48 47 47 47 45 45 48 52 47 42 44 50 48 41 44 48 46 49 51 49 48 47 44 42 43 41 38 36 37 38 34 34 29 27 27 25 25 26 28 27 28 32 35 37 37 37 37
32 32 37 39 38 42 41 39 38 40 42 41 42 46 46 47 53 53 48 45 49 49 43 45 45 45 44 41 38 38 37 32 34 35 21 28 34 29 26 21 19 20 25 22 21 24 28 31 35 31 29 29 29 32
33 37 42 45 40 42 40 38 33 29 32 37 40 43 45 50 55 56 50 47 49 47 48 51 52 49 43 38 37 36 29 33 39 27 17 21 19 27 26 18 18 19 26 24 25 27 29 33 33 30 29 28 31 31
30 35 31 26 30 30 32 35 33 35 37 40 41 42 45 52 54 51 49 50 50 55 55 53 52 50 44 41 39 36 33 37 38 34 24 25 28 32 27 19 20 20 22 24 25 27 28 30 28 27 26 29 30 24
42 39 30 29 36 39 41 39 41 45 44 42 39 41 47 53 52 49 50 51 56 60 61 59 52 50 45 42 40 36 35 42 41 39 29 22 26 29 31 26 22 22 21 22 25 27 27 26 29 31 28 26 25 18
46 45 37 33 36 39 45 45 43 43 42 46 52 56 62 60 54 53 56 56 61 66 66 56 47 48 48 43 39 34 38 43 47 44 33 27 30 31 35 29 26 21 21 25 27 25 24 26 29 30 26 27 26 24
21 27 36 39 43 49 45 41 41 40 42 46 51 56 59 61 62 63 68 68 65 59 55 49 46 45 44 40 35 32 37 44 46 47 36 28 26 29 33 34 28 23 22 25 26 26 25 27 27 28 29 25 25 23
17 22 26 30 35 35 34 32 35 39 41 45 47 52 53 52 53 50 47 46 47 51 49 45 43 38 37 34 33 36 36 35 42 46 44 32 28 28 31 29 22 20 20 20 20 26 26 24 26 28 28 26 24 22
19 22 26 32 34 34 41 44 47 48 48 50 52 53 56 59 53 36 28 32 37 33 30 33 36 33 30 34 35 36 34 34 35 37 45 40 30 30 28 23 21 22 21 19 17 22 22 22 23 26 26 23 19 18
22 23 24 26 26 24 25 32 36 37 35 34 32 32 34 35 34 21 21 25 24 22 25 30 35 36 32 34 36 33 32 30 31 36 43 49 39 32 33 32 29 27 25 21 20 22 24 23 21 23 25 21 19 18

GFSWCAN_500_spd_123.txt.gz
Wind_Speed
49 49 47 45 44 42 41 40 38 37 37 35 34 34 32 29 26 23 21 21 23 25 22 23 23 21 21 20 20 18 18 19 18 19 16 15 16 18 20 21 24 24 23 22 24 22 22 19 18 23 23 22 26 27
55 54 52 49 49 48 46 45 44 44 41 41 38 37 36 34 33 29 26 25 24 26 28 28 27 26 27 27 27 26 27 25 24 25 24 23 24 24 25 21 26 27 29 27 26 23 31 26 27 30 30 28 30 33
59 55 54 52 51 50 48 48 46 46 48 46 44 40 39 40 38 36 34 32 30 27 29 30 31 31 31 32 31 32 32 30 30 30 30 31 27 26 23 24 22 24 31 33 34 27 29 28 33 37 37 38 37 38
58 56 55 54 52 51 52 52 51 50 50 52 50 45 42 41 39 40 38 37 35 34 31 33 32 34 37 38 38 37 38 38 38 36 36 34 33 32 29 30 26 26 34 41 42 36 35 31 35 40 42 42 44 46
61 57 55 54 54 53 50 50 51 49 50 52 52 50 48 44 44 40 41 41 39 38 37 36 37 39 38 39 42 42 42 43 44 44 42 41 39 42 41 37 28 30 43 45 43 45 46 43 41 43 48 50 52 53
59 58 59 53 47 47 48 51 52 51 52 54 52 51 50 50 50 48 41 40 41 45 46 43 38 37 39 40 42 43 46 46 48 49 48 48 44 45 48 45 34 46 44 45 47 51 54 54 54 54 56 57 57 56
57 57 54 53 51 53 52 50 51 51 50 52 53 53 50 51 49 49 51 52 51 49 48 46 44 36 36 40 42 45 48 48 52 53 53 50 47 49 50 48 54 51 53 51 52 53 56 60 62 62 62 62 63 64
53 54 58 56 54 52 52 51 51 51 50 48 49 53 53 52 52 51 52 47 42 40 40 38 37 34 36 38 39 42 46 47 48 51 52 51 54 54 55 56 56 57 57 58 58 61 65 66 67 67 68 67 65 65
53 54 58 58 56 52 51 52 52 53 52 49 50 50 51 48 45 45 47 46 44 42 41 35 33 40 41 38 39 45 44 44 46 48 50 52 52 53 56 57 60 62 62 63 64 67 69 69 70 71 72 71 70 69
58 58 56 56 55 56 58 56 54 54 53 50 49 47 48 46 46 46 46 46 47 46 45 43 42 43 45 46 48 49 48 45 49 50 52 54 54 53 55 54 54 57 60 65 66 66 66 67 68 69 69 68 66 65
63 61 60 59 60 61 62 59 56 55 57 55 52 50 51 50 50 52 53 52 52 51 51 51 51 51 52 50 50 51 52 54 54 53 53 56 56 52 48 51 55 57 60 61 62 63 66 67 67 63 61 61 60 58
62 61 59 59 59 59 59 60 60 61 61 60 57 56 56 56 57 57 59 62 61 61 60 61 61 60 58 57 59 59 59 58 58 60 62 62 51 50 55 60 61 62 65 64 64 64 64 64 63 63 59 54 50 50
57 57 57 57 59 59 59 62 64 62 61 61 60 61 63 62 64 63 64 63 65 66 66 63 61 61 61 62 62 63 64 64 65 65 64 59 51 59 61 59 64 65 66 65 62 61 63 64 60 56 56 54 53 51
55 54 54 56 57 57 57 60 60 60 60 62 61 62 61 65 68 67 68 66 65 60 58 56 58 59 61 62 62 63 66 66 66 67 65 61 61 58 59 63 65 65 64 64 65 64 63 62 59 54 56 55 54 52
54 52 54 54 55 57 60 62 63 64 66 66 66 65 63 63 63 63 63 63 62 61 60 61 63 63 63 65 65 67 68 65 65 64 62 63 65 66 66 66 66 66 65 64 63 63 62 61 58 57 58 56 55 55
59 60 59 63 65 64 64 66 67 71 71 72 66 62 60 60 63 65 62 61 62 63 62 63 64 66 67 68 68 69 69 67 64 64 66 68 68 68 69 71 71 71 70 69 66 67 68 66 63 60 58 57 59 59
60 60 62 64 64 65 69 70 70 71 71 69 63 60 60 60 61 62 63 64 66 67 67 68 69 71 73 74 72 70 69 66 68 71 74 76 77 79 79 78 76 76 75 74 75 73 72 71 68 64 63 59 62 61
58 59 61 63 63 64 66 67 69 72 73 68 66 61 64 63 62 62 64 68 70 68 69 70 73 74 76 75 73 71 74 76 79 82 84 83 83 81 80 82 81 80 79 78 77 75 73 69 67 65 62 59 59 59
63 64 65 66 68 70 70 72 73 76 73 70 67 66 68 67 66 65 67 71 74 76 76 76 79 80 76 72 72 74 75 76 80 80 82 82 80 79 78 77 76 76 74 73 70 66 62 58 58 56 54 55 55 52
66 68 69 69 71 73 75 77 77 79 79 78 76 71 73 73 71 73 75 74 72 72 77 83 81 74 69 66 64 66 69 68 68 73 76 74 72 70 68 67 64 62 62 60 55 51 50 48 45 46 47 46 46 45
63 62 63 64 66 70 73 75 76 78 78 78 76 76 78 77 75 74 71 69 66 74 77 75 69 61 55 53 54 52 53 52 57 61 65 69 64 61 58 56 54 53 52 49 46 42 39 38 37 37 37 37 39 38
49 51 52 53 56 60 66 68 67 66 65 66 66 66 68 68 67 66 63 63 67 65 63 57 52 49 44 46 43 45 48 47 47 50 53 56 54 50 47 44 46 44 41 37 35 34 30 28 29 29 29 29 29 31
44 45 47 47 50 55 57 52 53 54 54 55 55 58 59 58 56 54 57 55 56 52 50 47 45 42 43 42 42 44 42 43 46 48 48 45 43 43 41 36 34 35 30 24 27 24 21 18 21 22 21 23 27 31
28 31 31 37 42 47 46 44 42 41 41 43 47 49 52 52 52 55 57 51 43 38 40 37 39 43 39 43 46 39 33 42 47 47 43 41 40 34 33 24 24 26 27 20 15 15 13 12 16 19 24 27 33 34
22 23 29 32 33 35 29 24 24 32 33 31 36 40 38 40 47 49 48 41 37 36 36 37 39 42 44 44 38 34 37 44 48 49 36 35 36 35 22 18 26 23 22 14 11 9 12 14 16 21 26 32 33 32
28 32 36 36 34 31 32 33 33 30 37 39 38 30 30 36 39 41 30 25 28 32 36 38 42 44 44 42 40 40 43 46 51 48 34 34 35 35 24 19 20 21 23 18 18 16 17 19 23 24 27 30 34 31
35 32 33 28 25 24 29 30 28 31 29 29 29 33 36 40 42 38 33 33 35 33 38 42 43 44 46 48 49 51 50 53 51 45 37 35 35 33 32 25 26 26 26 19 17 16 18 20 21 26 26 29 31 32
26 28 35 34 36 34 36 36 34 37 38 40 40 42 45 46 47 45 41 40 45 48 52 54 56 58 58 57 59 60 60 54 47 44 40 34 34 31 30 32 26 24 20 19 15 17 18 23 26 29 28 29 30 31
22 22 26 30 36 44 52 50 48 45 41 43 48 47 49 47 46 46 45 47 50 52 55 56 57 56 56 58 58 54 48 45 43 39 37 36 31 26 33 29 21 23 23 20 18 20 22 24 26 28 27 28 28 30
13 17 23 25 30 32 31 34 41 44 47 50 54 59 58 53 48 46 43 41 40 38 39 43 44 40 37 40 42 37 37 39 37 35 35 30 26 28 28 32 21 20 21 22 22 23 22 22 22 23 24 23 25 25
17 22 25 28 33 31 31 33 38 41 44 46 49 54 55 53 50 48 49 49 51 51 51 39 28 29 34 33 31 29 29 29 32 33 32 27 25 24 29 33 20 20 22 24 21 19 18 18 19 21 23 22 23 23
24 27 29 25 22 22 28 34 38 41 39 39 37 38 39 41 42 31 31 37 36 36 31 30 32 31 32 32 27 26 23 22 27 30 30 27 23 21 28 30 24 20 21 24 21 21 20 19 19 21 21 23 25 24
20 20 27 30 31 32 33 39 42 39 33 32 32 31 31 35 29 12 16 25 33 36 36 33 30 27 22 22 20 20 23 24 24 24 24 23 22 21 23 31 29 25 21 20 18 21 22 21 20 22 23 25 24 23